[[{"header":{"parameterUnit":"m.s-1","parameterCategory":1,"la1":31.0,"la2":29.5877,"lo1":-88.7671,"lo2":-86.6584,"dy":0.0162,"dx":0.0185,"nx":115,"ny":88,"refTime":"2024-06-15T18:00:00:Z","depth":0,"parameterNumber":2,"parameterNumberName":"U-component_of_WINDS"},"data":[0.0,0.0,0.0,0.0,0.0,0.0,0.0,0.0,0.0,0.0,0.0,0.0,0.0,0.0,0.0,0.0,0.0,0.0,0.0,0.0,0.0,0.0,0.0,0.0,0.0,0.0,0.0,0.0,0.0,0.0,0.0,0.0,0.0,0.0,0.0,0.0,0.0,0.0,0.0,0.0,0.0,0.0,0.0,0.0,0.0,0.0,0.0,0.0,0.0,0.0,0.0,0.0,0.0,0.0,0.0,0.0,0.0,0.0,0.0,0.0,0.0,0.0,0.0,0.0,0.0,0.0,0.0,0.0,0.0,0.0,0.0,0.0,0.0,0.0,0.0,0.0,0.0,0.0,0.0,0.0,0.0,0.0,0.0,0.0,0.0,0.0,0.0,0.0,0.0,0.0,0.0,0.0,0.0,0.0,0.0,0.0,0.0,0.0,0.0,0.0,0.0,0.0,0.0,0.0,0.0,0.0,0.0,0.0,0.0,0.0,0.0,0.0,0.0,0.0,0.0,0.0,0.0,0.0,0.0,0.0,0.0,0.0,0.0,0.0,0.0,0.0,0.0,0.0,0.0,0.0,0.0,0.0,0.0,0.0,0.0,0.0,0.0,0.0,0.0,0.0,0.0,0.0,0.0,0.0,0.0,0.0,0.0,0.0,0.0,0.0,0.0,0.0,0.0,0.0,0.0,0.0,0.0,0.0,0.0,0.0,0.0,0.0,0.0,0.0,0.0,0.0,0.0,0.0,0.0,0.0,0.0,0.0,0.0,0.0,0.0,0.0,0.0,0.0,0.0,0.0,0.0,0.0,0.0,0.0,0.0,0.0,0.0,0.0,0.0,0.0,0.0,0.0,0.0,0.0,0.0,0.0,0.0,0.0,0.0,0.0,0.0,0.0,0.0,0.0,0.0,0.0,0.0,0.0,0.0,0.0,0.0,0.0,0.0,0.0,0.0,0.0,0.0,0.0,0.0,0.0,0.0,0.0,0.0,0.0,0.0,0.0,0.0,0.0,0.0,0.0,0.0,0.0,0.0,0.0,0.0,0.0,0.0,0.0,0.0,0.0,0.0,0.0,0.0,0.0,0.0,0.0,0.0,0.0,0.0,0.0,0.0,0.0,0.0,0.0,0.0,0.0,0.0,0.0,0.0,0.0,0.0,0.0,0.0,0.0,0.0,0.0,0.0,0.0,0.0,0.0,0.0,0.0,0.0,0.0,0.0,0.0,0.0,0.0,0.0,0.0,0.0,0.0,0.0,0.0,0.0,0.0,0.0,0.0,0.0,0.0,0.0,0.0,0.0,0.0,0.0,0.0,0.0,0.0,0.0,0.0,0.0,0.0,0.0,0.0,0.0,0.0,0.0,0.0,0.0,0.0,0.0,0.0,0.0,0.0,0.0,0.0,0.0,0.0,0.0,0.0,0.0,0.0,0.0,0.0,0.0,0.0,0.0,0.0,0.0,0.0,0.0,0.0,0.0,0.0,0.0,0.0,0.0,0.0,0.0,0.0,0.0,0.0,0.0,0.0,0.0,0.0,0.0,0.0,0.0,0.0,0.0,0.0,0.0,0.0,0.0,0.0,0.0,0.0,0.0,0.0,0.0,0.0,0.0,0.0,0.0,0.0,0.0,0.0,0.0,0.0,0.0,0.0,0.0,0.0,0.0,0.0,0.0,0.0,0.0,0.0,0.0,0.0,0.0,0.0,0.0,0.0,0.0,0.0,0.0,0.0,0.0,0.0,0.0,0.0,0.0,0.0,0.0,0.0,0.0,0.0,0.0,0.0,0.0,0.0,0.0,0.0,0.0,0.0,0.0,0.0,0.0,0.0,0.0,0.0,0.0,0.0,0.0,0.0,0.0,0.0,0.0,0.0,0.0,0.0,0.0,0.0,0.0,0.0,0.0,0.0,0.0,0.0,0.0,0.0,0.0,0.0,0.0,0.0,0.0,0.0,0.0,0.0,0.0,0.0,0.0,0.0,0.0,0.0,0.0,0.0,0.0,0.0,0.0,0.0,0.0,0.0,0.0,0.0,0.0,0.0,0.0,0.0,0.0,0.0,0.0,0.0,0.0,0.0,0.0,0.0,0.0,0.0,0.0,0.0,0.0,0.0,0.0,0.0,0.0,0.0,0.0,0.0,0.0,0.0,0.0,0.0,0.0,0.0,0.0,0.0,0.0,0.0,0.0,0.0,0.0,0.0,0.0,0.0,0.0,0.0,0.0,0.0,0.0,0.0,0.0,0.0,0.0,0.0,0.0,0.0,0.0,0.0,0.0,0.0,0.0,0.0,0.0,0.0,0.0,0.0,0.0,0.0,0.0,0.0,0.0,0.0,0.0,0.0,0.0,0.0,0.0,0.0,0.0,0.0,0.0,0.0,0.0,0.0,0.0,0.0,0.0,0.0,0.0,0.0,0.0,0.0,0.0,0.0,0.0,0.0,0.0,0.0,0.0,0.0,0.0,0.0,0.0,0.0,0.0,0.0,0.0,0.0,0.0,0.0,0.0,0.0,0.0,0.0,0.0,0.0,0.0,0.0,0.0,0.0,0.0,0.0,0.0,0.0,0.0,0.0,0.0,0.0,0.0,0.0,0.0,0.0,0.0,0.0,0.0,0.0,0.0,0.0,0.0,0.0,0.0,0.0,0.0,0.0,0.0,0.0,0.0,0.0,0.0,0.0,0.0,0.0,0.0,0.0,0.0,0.0,0.0,0.0,0.0,0.0,0.0,0.0,0.0,0.0,0.0,0.0,0.0,0.0,0.0,0.0,0.0,0.0,0.0,0.0,0.0,0.0,0.0,0.0,0.0,0.0,0.0,0.0,0.0,0.0,0.0,0.0,0.0,0.0,0.0,0.0,0.0,0.0,0.0,0.0,0.0,0.0,0.0,0.0,0.0,0.0,0.0,0.0,0.0,0.0,0.0,0.0,0.0,0.0,0.0,0.0,0.0,0.0,0.0,0.0,0.0,0.0,0.0,0.0,0.0,0.0,0.0,0.0,0.0,0.0,0.0,0.0,0.0,0.0,0.0,0.0,0.0,0.0,0.0,0.0,0.0,0.0,0.0,0.0,0.0,0.0,0.0,0.0,0.0,0.0,0.0,0.0,0.0,0.0,0.0,0.0,0.0,0.0,0.0,0.0,0.0,0.0,0.0,0.0,0.0,0.0,0.0,0.0,0.0,0.0,0.0,0.0,0.0,0.0,0.0,0.0,0.0,0.0,0.0,0.0,0.0,0.0,0.0,0.0,0.0,0.0,0.0,0.0,0.0,0.0,0.0,0.0,0.0,0.0,0.0,0.0,0.0,0.0,0.0,0.0,0.0,0.0,0.0,0.0,0.0,0.0,0.0,0.0,0.0,0.0,0.0,0.0,0.0,0.0,0.0,0.0,0.0,0.0,0.0,0.0,0.0,0.0,0.0,0.0,0.0,0.0,0.0,0.0,0.0,0.0,0.0,0.0,0.0,0.0,0.0,0.0,0.0,0.0,0.0,0.0,0.0,0.0,0.0,0.0,0.0,0.0,0.0,0.0,0.0,0.0,0.0,0.0,0.0,0.0,0.0,0.0,0.0,0.0,0.0,0.0,0.0,0.0,0.0,0.0,0.0,0.0,0.0,0.0,0.0,0.0,0.0,0.0,0.0,0.0,0.0,0.0,0.0,0.0,0.0,0.0,0.0,0.0,0.0,0.0,0.0,0.0,0.0,0.0,0.0,0.0,0.0,0.0,0.0,0.0,0.0,0.0,0.0,0.0,0.0,0.0,0.0,0.0,0.0,0.0,0.0,0.0,0.0,0.0,0.0,0.0,0.0,0.0,0.0,0.0,0.0,0.0,0.0,0.0,0.0,0.0,0.0,0.0,0.0,0.0,0.0,0.0,0.0,0.0,0.0,0.0,0.0,0.0,0.0,0.0,0.0,0.0,0.0,0.0,0.0,0.0,0.0,0.0,0.0,0.0,0.0,0.0,0.0,0.0,0.0,0.0,0.0,0.0,0.0,0.0,0.0,0.0,0.0,0.0,0.0,0.0,0.0,0.0,0.0,0.0,0.0,0.0,0.0,0.0,0.0,0.0,0.0,0.0,0.0,0.0,0.0,0.0,0.0,0.0,0.0,0.0,0.0,0.0,0.0,0.0,0.0,0.0,0.0,0.0,0.0,0.0,0.0,0.0,0.0,0.0,0.0,0.0,0.0,0.0,0.0,0.0,0.0,0.0,0.0,0.0,0.0,0.0,0.0,0.0,0.0,0.0,0.0,0.0,0.0,0.0,0.0,0.0,0.0,0.0,-1.9708,0.0,0.0,0.0,0.0,0.0,0.0,0.0,0.0,0.0,0.0,0.0,0.0,0.0,0.0,0.0,0.0,0.0,0.0,0.0,0.0,0.0,0.0,0.0,0.0,0.0,0.0,0.0,0.0,0.0,0.0,0.0,0.0,0.0,0.0,0.0,0.0,0.0,0.0,0.0,0.0,0.0,0.0,0.0,0.0,0.0,0.0,0.0,0.0,0.0,0.0,0.0,0.0,0.0,0.0,0.0,0.0,0.0,0.0,0.0,0.0,0.0,0.0,0.0,0.0,0.0,0.0,0.0,0.0,0.0,0.0,0.0,0.0,0.0,0.0,0.0,0.0,0.0,0.0,0.0,0.0,0.0,0.0,0.0,0.0,0.0,0.0,0.0,0.0,0.0,0.0,0.0,0.0,0.0,0.0,0.0,0.0,0.0,0.0,0.0,0.0,0.0,0.0,0.0,0.0,0.0,0.0,0.0,0.0,0.0,0.0,-1.9708,-1.9708,-1.9708,-1.9708,-1.969,0.0,0.0,0.0,0.0,0.0,0.0,0.0,0.0,0.0,0.0,0.0,0.0,0.0,0.0,0.0,0.0,0.0,0.0,0.0,0.0,0.0,0.0,0.0,0.0,0.0,0.0,0.0,0.0,0.0,0.0,0.0,0.0,0.0,0.0,0.0,0.0,0.0,0.0,0.0,0.0,0.0,0.0,0.0,0.0,0.0,0.0,0.0,0.0,0.0,0.0,0.0,0.0,0.0,0.0,0.0,0.0,0.0,0.0,0.0,0.0,0.0,0.0,0.0,0.0,0.0,0.0,0.0,0.0,0.0,0.0,0.0,0.0,0.0,0.0,0.0,0.0,0.0,0.0,0.0,0.0,0.0,0.0,0.0,0.0,0.0,0.0,0.0,0.0,0.0,0.0,0.0,0.0,0.0,0.0,0.0,0.0,0.0,0.0,0.0,0.0,0.0,0.0,0.0,0.0,0.0,0.0,0.0,0.0,0.0,0.0,0.0,0.0,-2.0587,-2.0557,-2.0557,0.0,0.0,0.0,0.0,0.0,0.0,0.0,0.0,0.0,0.0,0.0,0.0,0.0,0.0,0.0,0.0,0.0,0.0,0.0,0.0,0.0,0.0,0.0,0.0,0.0,0.0,0.0,0.0,0.0,0.0,0.0,0.0,0.0,0.0,0.0,0.0,0.0,0.0,0.0,0.0,0.0,0.0,0.0,0.0,0.0,0.0,0.0,0.0,0.0,0.0,0.0,0.0,0.0,0.0,0.0,0.0,0.0,0.0,0.0,0.0,0.0,0.0,0.0,0.0,0.0,0.0,0.0,0.0,0.0,0.0,0.0,0.0,0.0,0.0,0.0,0.0,0.0,0.0,0.0,0.0,0.0,0.0,0.0,0.0,0.0,0.0,0.0,0.0,0.0,0.0,0.0,0.0,0.0,0.0,0.0,0.0,0.0,0.0,0.0,0.0,0.0,0.0,0.0,0.0,0.0,0.0,0.0,0.0,0.0,0.0,-2.0816,-2.3161,-2.3221,0.0,-2.3208,0.0,0.0,0.0,0.0,0.0,0.0,0.0,0.0,0.0,0.0,0.0,0.0,0.0,0.0,0.0,0.0,0.0,0.0,0.0,0.0,0.0,0.0,0.0,0.0,0.0,0.0,0.0,0.0,0.0,0.0,0.0,0.0,0.0,0.0,0.0,0.0,0.0,0.0,0.0,0.0,0.0,0.0,0.0,0.0,0.0,0.0,0.0,0.0,0.0,0.0,0.0,0.0,0.0,0.0,0.0,0.0,0.0,0.0,0.0,0.0,0.0,0.0,0.0,0.0,0.0,0.0,0.0,0.0,0.0,0.0,0.0,0.0,0.0,0.0,0.0,0.0,0.0,0.0,0.0,0.0,0.0,0.0,0.0,0.0,0.0,0.0,0.0,0.0,0.0,0.0,0.0,0.0,0.0,0.0,0.0,0.0,0.0,0.0,0.0,0.0,0.0,0.0,0.0,0.0,0.0,0.0,0.0,0.0,0.0,0.0,0.0,-2.358,-2.361,-2.3187,0.0,0.0,0.0,0.0,0.0,0.0,0.0,0.0,0.0,0.0,0.0,0.0,0.0,0.0,0.0,0.0,0.0,0.0,0.0,0.0,0.0,0.0,0.0,0.0,0.0,0.0,0.0,0.0,0.0,0.0,0.0,0.0,0.0,0.0,0.0,0.0,0.0,0.0,0.0,0.0,0.0,0.0,0.0,0.0,0.0,0.0,0.0,0.0,0.0,0.0,0.0,0.0,0.0,0.0,0.0,0.0,0.0,0.0,0.0,0.0,0.0,0.0,0.0,0.0,0.0,0.0,0.0,0.0,0.0,0.0,0.0,0.0,0.0,0.0,0.0,0.0,0.0,0.0,0.0,0.0,0.0,0.0,0.0,0.0,0.0,0.0,0.0,0.0,0.0,0.0,0.0,0.0,0.0,0.0,0.0,0.0,0.0,0.0,0.0,0.0,0.0,0.0,0.0,0.0,0.0,0.0,0.0,0.0,0.0,0.0,-2.2778,0.0,-2.4078,-2.382,-2.3003,-2.1623,0.0,0.0,0.0,0.0,0.0,0.0,0.0,0.0,0.0,0.0,0.0,0.0,0.0,0.0,0.0,0.0,0.0,0.0,0.0,0.0,0.0,0.0,0.0,0.0,0.0,0.0,0.0,0.0,0.0,0.0,0.0,0.0,0.0,0.0,0.0,0.0,0.0,0.0,0.0,0.0,0.0,0.0,0.0,0.0,0.0,0.0,0.0,0.0,0.0,0.0,0.0,0.0,0.0,0.0,0.0,0.0,0.0,0.0,0.0,0.0,0.0,0.0,0.0,0.0,0.0,0.0,0.0,0.0,0.0,0.0,0.0,0.0,0.0,0.0,0.0,0.0,0.0,0.0,0.0,0.0,0.0,0.0,0.0,0.0,0.0,0.0,0.0,0.0,0.0,0.0,0.0,0.0,0.0,0.0,0.0,0.0,0.0,0.0,0.0,0.0,0.0,0.0,0.0,0.0,0.0,0.0,0.0,0.0,0.0,-2.3936,-2.3266,-2.5245,-2.438,-2.3312,0.0,0.0,0.0,0.0,0.0,0.0,0.0,0.0,0.0,0.0,0.0,0.0,0.0,0.0,0.0,0.0,0.0,0.0,0.0,0.0,0.0,0.0,0.0,0.0,0.0,0.0,0.0,0.0,0.0,0.0,0.0,0.0,0.0,0.0,0.0,0.0,0.0,0.0,0.0,0.0,0.0,0.0,0.0,0.0,0.0,0.0,0.0,0.0,0.0,0.0,0.0,0.0,0.0,0.0,0.0,0.0,0.0,0.0,0.0,0.0,0.0,0.0,0.0,0.0,0.0,0.0,0.0,0.0,0.0,0.0,0.0,0.0,0.0,0.0,0.0,0.0,0.0,0.0,0.0,0.0,0.0,0.0,0.0,0.0,0.0,0.0,0.0,0.0,0.0,0.0,0.0,0.0,0.0,0.0,0.0,0.0,0.0,0.0,0.0,0.0,0.0,0.0,0.0,0.0,0.0,0.0,0.0,0.0,0.0,-2.2443,-2.2586,-2.4226,-2.7243,-2.4448,-2.2748,0.0,0.0,0.0,0.0,0.0,0.0,0.0,0.0,0.0,0.0,0.0,0.0,0.0,0.0,0.0,0.0,0.0,0.0,0.0,0.0,0.0,0.0,0.0,0.0,0.0,0.0,0.0,0.0,0.0,0.0,0.0,0.0,0.0,0.0,0.0,0.0,0.0,0.0,0.0,0.0,0.0,0.0,0.0,0.0,0.0,0.0,0.0,0.0,0.0,0.0,0.0,0.0,0.0,0.0,0.0,0.0,0.0,0.0,0.0,0.0,0.0,0.0,0.0,0.0,0.0,0.0,0.0,0.0,0.0,0.0,0.0,0.0,0.0,0.0,0.0,0.0,0.0,0.0,0.0,0.0,0.0,0.0,0.0,0.0,0.0,0.0,0.0,0.0,0.0,0.0,0.0,0.0,0.0,0.0,0.0,0.0,0.0,0.0,0.0,0.0,0.0,0.0,0.0,0.0,0.0,0.0,0.0,0.0,0.0,-2.1821,0.0,-2.5771,0.0,-2.4171,-2.1983,0.0,0.0,0.0,0.0,0.0,0.0,0.0,0.0,0.0,0.0,0.0,0.0,0.0,0.0,0.0,0.0,0.0,0.0,0.0,0.0,0.0,0.0,0.0,0.0,0.0,0.0,0.0,0.0,0.0,0.0,0.0,0.0,0.0,0.0,0.0,0.0,0.0,0.0,0.0,0.0,0.0,0.0,0.0,0.0,0.0,0.0,0.0,0.0,0.0,0.0,0.0,0.0,0.0,0.0,0.0,0.0,0.0,0.0,0.0,0.0,0.0,0.0,0.0,0.0,0.0,0.0,0.0,0.0,0.0,0.0,0.0,0.0,0.0,0.0,0.0,0.0,0.0,0.0,0.0,0.0,0.0,0.0,0.0,0.0,0.0,0.0,0.0,0.0,0.0,0.0,0.0,0.0,0.0,0.0,0.0,0.0,0.0,0.0,0.0,0.0,0.0,0.0,0.0,0.0,0.0,0.0,0.0,0.0,-2.2504,-2.5946,-2.7957,-2.7556,-2.4809,-2.361,-2.1041,0.0,0.0,0.0,0.0,0.0,0.0,0.0,0.0,0.0,0.0,0.0,0.0,0.0,0.0,0.0,0.0,0.0,0.0,0.0,0.0,0.0,0.0,0.0,0.0,0.0,0.0,0.0,0.0,0.0,0.0,0.0,0.0,0.0,0.0,0.0,0.0,0.0,0.0,0.0,0.0,0.0,0.0,0.0,0.0,0.0,0.0,0.0,0.0,0.0,0.0,0.0,0.0,0.0,0.0,0.0,0.0,0.0,0.0,0.0,0.0,0.0,0.0,0.0,0.0,0.0,0.0,0.0,0.0,0.0,0.0,0.0,0.0,0.0,0.0,0.0,0.0,0.0,0.0,0.0,0.0,0.0,0.0,0.0,0.0,0.0,0.0,0.0,0.0,0.0,0.0,0.0,0.0,0.0,0.0,0.0,0.0,0.0,0.0,0.0,0.0,0.0,0.0,0.0,0.0,0.0,0.0,0.0,0.0,0.0,-2.4167,-2.5066,-2.6059,-2.6849,-2.3406,-2.1518,0.0,0.0,0.0,0.0,0.0,0.0,0.0,0.0,0.0,0.0,0.0,0.0,0.0,0.0,0.0,0.0,0.0,0.0,0.0,0.0,0.0,0.0,0.0,0.0,0.0,0.0,0.0,0.0,0.0,0.0,0.0,0.0,0.0,0.0,0.0,0.0,0.0,0.0,0.0,0.0,0.0,0.0,0.0,0.0,0.0,0.0,0.0,0.0,0.0,0.0,0.0,0.0,0.0,0.0,0.0,0.0,0.0,0.0,0.0,0.0,0.0,0.0,0.0,0.0,0.0,0.0,0.0,0.0,0.0,0.0,0.0,0.0,0.0,0.0,0.0,0.0,0.0,0.0,0.0,0.0,0.0,0.0,0.0,0.0,0.0,0.0,0.0,0.0,0.0,0.0,0.0,0.0,0.0,0.0,0.0,0.0,0.0,0.0,0.0,0.0,0.0,0.0,0.0,0.0,0.0,0.0,0.0,0.0,0.0,-2.5795,-2.6485,-2.7356,-2.8292,-2.4374,-2.2272,-2.2347,0.0,0.0,0.0,0.0,0.0,0.0,0.0,0.0,0.0,0.0,0.0,0.0,0.0,0.0,0.0,0.0,0.0,0.0,0.0,0.0,0.0,0.0,0.0,0.0,0.0,0.0,0.0,0.0,0.0,0.0,0.0,0.0,0.0,0.0,0.0,0.0,0.0,0.0,0.0,0.0,0.0,0.0,0.0,0.0,0.0,0.0,0.0,0.0,0.0,0.0,0.0,0.0,0.0,0.0,0.0,0.0,0.0,0.0,0.0,0.0,0.0,0.0,0.0,0.0,0.0,0.0,0.0,0.0,0.0,0.0,0.0,0.0,0.0,0.0,0.0,0.0,0.0,0.0,0.0,0.0,0.0,0.0,0.0,0.0,0.0,0.0,0.0,0.0,0.0,0.0,0.0,0.0,0.0,0.0,0.0,0.0,0.0,0.0,0.0,0.0,0.0,0.0,0.0,0.0,0.0,0.0,0.0,0.0,-2.9891,-3.1351,-3.1055,-2.8968,-2.633,-2.3396,0.0,0.0,0.0,0.0,0.0,0.0,0.0,0.0,0.0,0.0,0.0,0.0,0.0,0.0,0.0,0.0,0.0,0.0,0.0,0.0,0.0,0.0,0.0,0.0,0.0,0.0,0.0,0.0,0.0,0.0,0.0,0.0,0.0,0.0,0.0,0.0,0.0,0.0,0.0,0.0,0.0,0.0,0.0,0.0,0.0,0.0,0.0,0.0,0.0,0.0,0.0,0.0,0.0,0.0,0.0,0.0,0.0,0.0,0.0,0.0,0.0,0.0,0.0,0.0,0.0,0.0,0.0,0.0,0.0,0.0,0.0,0.0,0.0,0.0,0.0,0.0,0.0,0.0,0.0,0.0,0.0,0.0,0.0,0.0,0.0,0.0,0.0,0.0,0.0,0.0,0.0,0.0,0.0,0.0,0.0,0.0,0.0,0.0,0.0,0.0,0.0,0.0,0.0,0.0,0.0,0.0,0.0,0.0,0.0,-3.0417,-3.2387,-3.2717,-3.1244,-2.8268,-2.5661,0.0,0.0,0.0,0.0,0.0,0.0,0.0,0.0,0.0,0.0,0.0,0.0,0.0,0.0,0.0,0.0,0.0,0.0,0.0,0.0,0.0,0.0,0.0,0.0,0.0,0.0,0.0,0.0,0.0,0.0,0.0,0.0,0.0,0.0,0.0,0.0,0.0,0.0,0.0,0.0,0.0,0.0,0.0,0.0,0.0,0.0,0.0,0.0,0.0,0.0,0.0,0.0,0.0,0.0,0.0,0.0,0.0,0.0,0.0,0.0,0.0,0.0,0.0,0.0,0.0,0.0,0.0,0.0,0.0,0.0,0.0,0.0,0.0,0.0,0.0,0.0,0.0,0.0,0.0,0.0,0.0,0.0,0.0,0.0,0.0,0.0,0.0,0.0,0.0,0.0,0.0,0.0,0.0,0.0,0.0,0.0,0.0,0.0,0.0,0.0,0.0,0.0,0.0,0.0,0.0,0.0,0.0,0.0,-3.0764,-3.229,-3.3822,-3.4229,-3.3577,-3.0407,-2.7469,0.0,0.0,0.0,0.0,0.0,0.0,0.0,0.0,0.0,0.0,0.0,0.0,0.0,0.0,0.0,0.0,0.0,0.0,0.0,0.0,0.0,0.0,0.0,0.0,0.0,0.0,0.0,0.0,0.0,0.0,0.0,0.0,0.0,0.0,0.0,0.0,0.0,0.0,0.0,0.0,0.0,0.0,0.0,0.0,0.0,0.0,0.0,0.0,0.0,0.0,0.0,0.0,0.0,0.0,0.0,0.0,0.0,0.0,0.0,0.0,0.0,0.0,0.0,0.0,0.0,0.0,0.0,0.0,0.0,0.0,0.0,0.0,0.0,0.0,0.0,0.0,0.0,0.0,0.0,0.0,0.0,0.0,0.0,0.0,0.0,0.0,0.0,0.0,0.0,0.0,0.0,0.0,0.0,0.0,0.0,0.0,0.0,0.0,0.0,0.0,0.0,0.0,0.0,0.0,0.0,0.0,0.0,0.0,-3.2352,-3.465,-3.5332,-3.5633,-3.5508,-3.2373,-2.8925,0.0,0.0,0.0,0.0,0.0,0.0,0.0,0.0,0.0,0.0,0.0,0.0,0.0,0.0,0.0,0.0,0.0,0.0,0.0,0.0,0.0,0.0,0.0,0.0,0.0,0.0,0.0,0.0,0.0,0.0,0.0,0.0,0.0,0.0,0.0,0.0,0.0,0.0,0.0,0.0,0.0,0.0,0.0,0.0,0.0,0.0,0.0,0.0,0.0,0.0,0.0,0.0,0.0,0.0,0.0,0.0,0.0,0.0,0.0,0.0,0.0,0.0,0.0,0.0,0.0,0.0,0.0,0.0,0.0,0.0,0.0,0.0,0.0,0.0,0.0,0.0,0.0,0.0,0.0,0.0,0.0,0.0,0.0,0.0,0.0,0.0,0.0,0.0,0.0,0.0,0.0,0.0,0.0,0.0,0.0,0.0,0.0,0.0,0.0,0.0,0.0,0.0,0.0,0.0,0.0,0.0,0.0,0.0,-3.3482,-3.4675,-3.6107,-3.6634,-3.6182,-3.2968,-2.9829,0.0,0.0,0.0,0.0,0.0,0.0,0.0,0.0,0.0,0.0,0.0,0.0,0.0,0.0,0.0,0.0,0.0,0.0,0.0,0.0,0.0,0.0,0.0,0.0,0.0,0.0,0.0,0.0,0.0,0.0,0.0,0.0,0.0,0.0,0.0,0.0,0.0,0.0,0.0,0.0,0.0,0.0,0.0,0.0,0.0,0.0,0.0,0.0,-1.7752,0.0,0.0,0.0,0.0,0.0,0.0,0.0,0.0,0.0,0.0,0.0,0.0,0.0,0.0,0.0,0.0,0.0,0.0,0.0,0.0,0.0,0.0,0.0,0.0,0.0,0.0,0.0,0.0,0.0,0.0,0.0,0.0,0.0,0.0,0.0,0.0,0.0,0.0,0.0,0.0,0.0,0.0,0.0,0.0,0.0,0.0,0.0,0.0,0.0,0.0,0.0,0.0,0.0,0.0,0.0,0.0,0.0,0.0,0.0,-3.4487,-3.5852,-3.6734,-3.7161,-3.701,-3.3922,-3.0758,0.0,0.0,0.0,0.0,0.0,0.0,0.0,0.0,0.0,0.0,0.0,0.0,0.0,0.0,0.0,0.0,0.0,0.0,0.0,0.0,0.0,0.0,0.0,0.0,0.0,0.0,0.0,0.0,0.0,0.0,0.0,0.0,0.0,0.0,0.0,0.0,0.0,0.0,0.0,0.0,0.0,0.0,0.0,0.0,0.0,0.0,0.0,0.0,0.0,0.0,0.0,0.0,0.0,0.0,0.0,0.0,0.0,0.0,0.0,0.0,0.0,0.0,0.0,0.0,0.0,0.0,0.0,0.0,0.0,0.0,0.0,0.0,0.0,0.0,0.0,0.0,0.0,0.0,0.0,0.0,0.0,0.0,0.0,0.0,0.0,0.0,0.0,0.0,0.0,0.0,0.0,0.0,0.0,0.0,0.0,0.0,0.0,0.0,0.0,0.0,0.0,0.0,0.0,0.0,0.0,0.0,0.0,-3.2644,-3.5172,-3.7209,-3.7312,-3.7538,-3.7939,-3.4801,-3.1587,-2.8473,0.0,0.0,0.0,0.0,0.0,0.0,0.0,0.0,0.0,0.0,0.0,0.0,0.0,0.0,0.0,0.0,0.0,0.0,0.0,0.0,0.0,0.0,0.0,0.0,0.0,0.0,0.0,0.0,0.0,0.0,0.0,0.0,0.0,0.0,0.0,0.0,0.0,0.0,-1.7077,-1.8506,0.0,0.0,0.0,0.0,0.0,0.0,0.0,0.0,-1.8882,0.0,0.0,0.0,0.0,0.0,0.0,0.0,0.0,0.0,0.0,0.0,0.0,0.0,0.0,0.0,0.0,0.0,0.0,0.0,0.0,0.0,0.0,0.0,0.0,0.0,0.0,0.0,0.0,0.0,0.0,0.0,0.0,0.0,0.0,0.0,0.0,0.0,0.0,0.0,0.0,0.0,0.0,0.0,0.0,0.0,0.0,0.0,0.0,0.0,0.0,0.0,0.0,0.0,0.0,0.0,0.0,-3.2579,-3.3062,-3.478,-3.7764,-3.7864,-3.7914,-3.7914,-3.4801,-3.1964,-2.9528,0.0,0.0,0.0,0.0,0.0,0.0,0.0,0.0,0.0,0.0,0.0,0.0,0.0,0.0,0.0,0.0,0.0,0.0,0.0,0.0,0.0,0.0,0.0,0.0,0.0,0.0,0.0,0.0,0.0,0.0,0.0,0.0,0.0,0.0,0.0,0.0,0.0,0.0,0.0,-2.1016,-2.1942,0.0,0.0,0.0,0.0,0.0,0.0,0.0,0.0,-1.9459,0.0,0.0,0.0,0.0,0.0,0.0,0.0,0.0,0.0,0.0,0.0,0.0,0.0,0.0,0.0,0.0,0.0,0.0,0.0,0.0,0.0,0.0,0.0,0.0,0.0,0.0,0.0,0.0,0.0,0.0,0.0,0.0,0.0,0.0,0.0,0.0,0.0,0.0,0.0,0.0,0.0,0.0,0.0,0.0,0.0,0.0,0.0,0.0,0.0,0.0,0.0,0.0,0.0,0.0,0.0,-3.1876,-3.3555,-3.5529,-3.7889,-3.799,-3.7864,-3.7513,-3.3822,-3.0909,0.0,0.0,0.0,0.0,0.0,0.0,0.0,0.0,0.0,0.0,0.0,0.0,0.0,0.0,0.0,0.0,0.0,0.0,0.0,0.0,0.0,0.0,0.0,0.0,0.0,0.0,0.0,0.0,0.0,0.0,0.0,0.0,0.0,0.0,0.0,0.0,0.0,0.0,0.0,0.0,-2.1619,-2.2623,-2.3452,0.0,0.0,0.0,0.0,0.0,0.0,-2.0589,-2.0137,0.0,0.0,0.0,0.0,0.0,0.0,0.0,0.0,0.0,0.0,0.0,0.0,0.0,0.0,0.0,0.0,0.0,0.0,0.0,0.0,0.0,0.0,0.0,0.0,0.0,0.0,0.0,0.0,0.0,0.0,0.0,0.0,0.0,0.0,0.0,0.0,0.0,0.0,0.0,0.0,0.0,0.0,0.0,0.0,0.0,0.0,0.0,0.0,0.0,0.0,0.0,0.0,0.0,0.0,0.0,-3.1452,-3.4135,-3.6434,-3.8233,-3.8114,-3.7739,-3.7136,-3.3244,-3.0156,0.0,0.0,0.0,0.0,0.0,0.0,0.0,0.0,0.0,0.0,0.0,0.0,0.0,0.0,0.0,0.0,0.0,0.0,0.0,0.0,0.0,0.0,0.0,0.0,0.0,0.0,0.0,0.0,0.0,0.0,0.0,0.0,0.0,0.0,0.0,0.0,0.0,0.0,0.0,0.0,0.0,-2.3552,-2.4205,-2.3898,0.0,0.0,0.0,0.0,-2.2476,-2.2049,0.0,0.0,0.0,0.0,0.0,0.0,0.0,0.0,0.0,0.0,0.0,0.0,0.0,0.0,0.0,0.0,0.0,0.0,0.0,0.0,0.0,0.0,0.0,0.0,0.0,0.0,0.0,0.0,0.0,0.0,0.0,0.0,0.0,0.0,0.0,0.0,0.0,0.0,0.0,0.0,0.0,0.0,0.0,0.0,0.0,0.0,0.0,0.0,0.0,0.0,0.0,0.0,0.0,0.0,0.0,0.0,-3.3205,-3.4754,-3.6813,-3.9385,-3.853,-3.7739,-3.7161,-3.4324,-3.1311,0.0,0.0,0.0,0.0,0.0,0.0,0.0,0.0,0.0,0.0,0.0,0.0,0.0,0.0,0.0,0.0,0.0,0.0,0.0,0.0,0.0,0.0,0.0,0.0,0.0,0.0,0.0,0.0,0.0,0.0,0.0,0.0,0.0,0.0,0.0,0.0,0.0,0.0,0.0,0.0,0.0,-2.6389,-2.5536,-2.536,-2.5259,0.0,0.0,-2.4782,-2.577,-2.5418,0.0,0.0,0.0,0.0,0.0,0.0,0.0,0.0,0.0,0.0,0.0,0.0,0.0,0.0,0.0,0.0,0.0,0.0,0.0,0.0,0.0,0.0,0.0,0.0,0.0,0.0,0.0,0.0,0.0,0.0,0.0,0.0,0.0,0.0,0.0,0.0,0.0,0.0,0.0,0.0,0.0,0.0,0.0,0.0,0.0,0.0,0.0,0.0,0.0,0.0,0.0,0.0,0.0,0.0,0.0,-2.9839,-3.3636,-3.5845,-3.7859,-3.9702,-3.8628,-3.7588,-3.6757,-3.3445,-3.0256,0.0,0.0,0.0,0.0,0.0,0.0,0.0,0.0,0.0,0.0,0.0,0.0,0.0,0.0,0.0,0.0,0.0,0.0,0.0,0.0,0.0,0.0,0.0,0.0,0.0,0.0,0.0,0.0,0.0,0.0,0.0,0.0,0.0,0.0,0.0,0.0,0.0,0.0,0.0,0.0,0.0,0.0,-2.6942,-2.7017,0.0,0.0,0.0,-2.6264,-2.6474,0.0,0.0,0.0,0.0,0.0,0.0,0.0,0.0,0.0,0.0,0.0,0.0,0.0,0.0,0.0,0.0,0.0,0.0,0.0,0.0,0.0,0.0,0.0,0.0,0.0,0.0,0.0,0.0,0.0,0.0,0.0,0.0,0.0,0.0,0.0,0.0,0.0,0.0,0.0,0.0,0.0,0.0,0.0,0.0,0.0,0.0,0.0,0.0,0.0,0.0,0.0,0.0,0.0,0.0,0.0,0.0,0.0,-3.434,-3.703,-3.9043,-4.0366,-3.8874,-3.7487,-3.6358,-3.3043,0.0,0.0,0.0,0.0,0.0,0.0,0.0,0.0,0.0,0.0,0.0,0.0,0.0,0.0,0.0,0.0,0.0,0.0,0.0,0.0,0.0,0.0,0.0,0.0,0.0,0.0,0.0,-1.4884,0.0,0.0,0.0,0.0,0.0,0.0,0.0,0.0,0.0,0.0,0.0,0.0,0.0,0.0,-2.6741,-2.8122,-2.8448,-2.8473,0.0,0.0,-2.7645,-2.7555,-2.7052,-2.5988,0.0,0.0,0.0,0.0,0.0,0.0,0.0,0.0,0.0,0.0,0.0,0.0,0.0,0.0,0.0,0.0,0.0,0.0,0.0,0.0,0.0,0.0,0.0,0.0,0.0,0.0,0.0,0.0,0.0,0.0,0.0,0.0,0.0,0.0,0.0,0.0,0.0,0.0,0.0,0.0,0.0,0.0,0.0,0.0,0.0,0.0,0.0,0.0,0.0,0.0,0.0,0.0,0.0,0.0,0.0,-3.622,-3.8355,-4.0312,-4.2148,-3.9466,-3.7487,-3.6408,-3.4123,-3.0924,0.0,0.0,0.0,0.0,0.0,0.0,0.0,0.0,0.0,0.0,0.0,0.0,0.0,0.0,0.0,0.0,0.0,0.0,0.0,0.0,0.0,0.0,0.0,0.0,0.0,0.0,0.0,0.0,0.0,0.0,0.0,0.0,0.0,0.0,0.0,0.0,0.0,0.0,0.0,0.0,0.0,-2.8135,-2.8737,-2.9327,-3.0005,0.0,0.0,-2.9139,-3.0181,-2.9854,-2.8574,-2.5862,0.0,0.0,0.0,0.0,0.0,0.0,0.0,0.0,0.0,0.0,0.0,0.0,0.0,0.0,0.0,0.0,0.0,0.0,0.0,0.0,0.0,0.0,0.0,0.0,0.0,0.0,0.0,0.0,0.0,0.0,0.0,0.0,0.0,0.0,0.0,0.0,0.0,0.0,0.0,0.0,0.0,0.0,0.0,0.0,0.0,0.0,0.0,0.0,0.0,0.0,0.0,0.0,0.0,-3.3065,-3.7045,-3.9837,-4.1707,-4.237,-4.033,-3.8412,-3.691,-3.4726,-3.1813,0.0,0.0,0.0,0.0,0.0,0.0,0.0,0.0,0.0,0.0,0.0,0.0,0.0,0.0,0.0,0.0,0.0,0.0,0.0,0.0,0.0,0.0,0.0,0.0,0.0,0.0,0.0,0.0,-1.692,-1.7174,-1.7074,0.0,0.0,0.0,0.0,0.0,0.0,0.0,0.0,0.0,0.0,-2.9051,-3.0256,-3.0633,0.0,0.0,-3.0859,-3.0482,-3.0608,-3.0156,-2.895,-2.6549,-2.5661,0.0,0.0,0.0,0.0,0.0,0.0,0.0,0.0,0.0,0.0,0.0,0.0,0.0,0.0,0.0,0.0,0.0,0.0,0.0,0.0,0.0,0.0,0.0,0.0,0.0,0.0,0.0,0.0,0.0,0.0,0.0,0.0,0.0,0.0,0.0,0.0,0.0,0.0,0.0,0.0,0.0,0.0,0.0,0.0,0.0,0.0,0.0,0.0,0.0,0.0,0.0,0.0,-3.3543,-3.7674,-4.0808,-4.2531,-4.2794,-4.0931,-3.9016,-3.7232,-3.5052,-3.2416,0.0,0.0,0.0,0.0,0.0,0.0,0.0,0.0,0.0,0.0,0.0,0.0,0.0,0.0,0.0,0.0,0.0,0.0,0.0,0.0,0.0,0.0,0.0,0.0,0.0,0.0,0.0,0.0,-1.7978,-1.7928,-1.72,0.0,0.0,0.0,0.0,0.0,0.0,0.0,0.0,0.0,0.0,-2.9955,-3.1411,-3.1637,-3.1712,-3.1863,-3.1461,-3.1085,-3.0884,-3.0407,-2.9352,-2.7329,0.0,0.0,0.0,0.0,0.0,0.0,0.0,0.0,0.0,0.0,0.0,0.0,0.0,0.0,0.0,0.0,0.0,0.0,0.0,0.0,0.0,0.0,0.0,0.0,0.0,0.0,0.0,0.0,0.0,0.0,-1.9761,0.0,0.0,0.0,0.0,0.0,0.0,0.0,0.0,0.0,0.0,0.0,0.0,0.0,0.0,0.0,0.0,0.0,0.0,0.0,0.0,0.0,0.0,-3.3783,-3.8332,-4.108,-4.2773,-4.3413,-4.1167,-3.9064,-3.7258,-3.5052,-3.2591,-2.9829,0.0,0.0,0.0,0.0,0.0,0.0,0.0,0.0,0.0,0.0,0.0,0.0,0.0,0.0,0.0,0.0,0.0,0.0,0.0,0.0,0.0,0.0,0.0,0.0,0.0,0.0,-1.8129,-1.8204,-1.7802,0.0,0.0,0.0,0.0,0.0,0.0,0.0,0.0,0.0,0.0,-2.9528,-3.0984,-3.2064,-3.219,-3.2416,-3.2968,-3.1712,-3.0859,-3.1336,-3.0959,-3.003,0.0,0.0,0.0,0.0,0.0,0.0,0.0,0.0,0.0,0.0,0.0,0.0,0.0,0.0,0.0,0.0,0.0,0.0,0.0,0.0,0.0,0.0,0.0,0.0,0.0,0.0,0.0,-2.5988,-2.4815,0.0,0.0,0.0,0.0,0.0,0.0,0.0,0.0,0.0,0.0,0.0,-3.4901,-3.5232,0.0,0.0,0.0,0.0,0.0,0.0,0.0,0.0,0.0,0.0,0.0,0.0,-3.5549,-3.9649,-4.2792,-4.4486,-4.4709,-4.2426,-4.0468,-3.9038,-3.6396,-3.3151,-2.9314,0.0,0.0,0.0,0.0,0.0,0.0,0.0,0.0,0.0,0.0,0.0,0.0,0.0,0.0,0.0,0.0,0.0,0.0,0.0,0.0,0.0,0.0,0.0,0.0,0.0,-1.8154,0.0,0.0,0.0,0.0,0.0,0.0,0.0,0.0,0.0,0.0,0.0,-2.806,-2.9578,-3.121,-3.2516,-3.3219,-3.3345,-3.3545,0.0,0.0,0.0,0.0,0.0,0.0,0.0,0.0,0.0,0.0,0.0,0.0,0.0,0.0,-2.8323,-2.4864,-2.4381,-2.4381,-2.4052,0.0,0.0,0.0,0.0,0.0,0.0,0.0,0.0,0.0,0.0,0.0,0.0,0.0,0.0,-2.9478,0.0,-2.767,0.0,0.0,0.0,0.0,0.0,0.0,0.0,0.0,-3.4952,-3.6794,-3.7643,-3.7697,-3.7616,0.0,-3.7368,-3.4836,0.0,0.0,0.0,0.0,0.0,0.0,0.0,0.0,-3.7225,-4.0696,-4.3988,-4.5588,-4.5347,-4.3454,-4.1607,-3.9938,-3.6678,-3.3376,-3.0142,-2.8298,-2.6214,0.0,0.0,0.0,0.0,0.0,0.0,0.0,0.0,0.0,0.0,0.0,0.0,0.0,0.0,0.0,0.0,0.0,0.0,0.0,0.0,0.0,0.0,0.0,-1.9208,0.0,0.0,0.0,0.0,0.0,0.0,0.0,0.0,0.0,-2.6791,-2.8699,-3.0518,-3.1863,-3.2968,-3.3847,-3.4399,0.0,0.0,0.0,0.0,0.0,0.0,0.0,-3.2842,-3.2089,-3.2014,-3.2039,-3.1989,-3.2441,-3.2667,-3.2265,0.0,0.0,-2.7544,-2.6841,-2.6706,-2.6364,-2.7564,-2.866,-2.8634,-2.9099,-2.9424,0.0,0.0,0.0,0.0,0.0,0.0,0.0,0.0,-3.2792,-3.2491,0.0,-3.1286,0.0,0.0,0.0,0.0,0.0,-3.3028,0.0,0.0,-3.8143,-3.9518,-4.0314,-3.8859,-3.8472,-3.9116,-4.1478,-4.0395,-3.6207,-3.3368,0.0,0.0,0.0,0.0,0.0,0.0,-3.8811,-4.1444,-4.4646,-4.6032,-4.5467,-4.4267,-4.243,-3.9859,-3.6103,-3.3463,-3.224,-3.0181,-2.8247,-2.6625,-2.4456,0.0,0.0,0.0,0.0,0.0,0.0,0.0,0.0,0.0,0.0,0.0,0.0,0.0,0.0,0.0,0.0,0.0,0.0,0.0,0.0,-2.0037,0.0,0.0,0.0,0.0,0.0,0.0,0.0,0.0,0.0,0.0,-2.9414,-3.106,-3.2918,-3.45,0.0,0.0,0.0,0.0,-3.5002,-3.5508,-3.5132,-3.4806,-3.4826,-3.4776,-3.4424,-3.3438,0.0,0.0,-3.3445,-3.3671,-3.3696,-3.2616,-3.2893,-3.2968,-3.234,-3.1235,-3.0583,-3.0583,-3.0647,-3.0708,-3.0733,-3.114,-3.1477,-3.9923,0.0,0.0,0.0,0.0,-3.6784,-3.7739,-3.9548,-3.8542,-3.7462,-3.6282,-3.5228,0.0,0.0,0.0,0.0,0.0,0.0,-3.7629,-3.8273,-4.0065,-4.0969,-4.1081,-4.0588,-4.0721,-4.1436,-4.2617,-4.25,-4.1293,-4.0383,-3.7458,-3.284,0.0,0.0,0.0,0.0,-4.0606,-4.2791,-4.5083,-4.645,-4.6726,-4.5171,-4.2744,-3.9429,-3.7014,-3.4994,-3.3463,-3.2039,-3.0292,-2.8323,-2.6866,0.0,0.0,0.0,0.0,0.0,0.0,0.0,0.0,0.0,0.0,0.0,0.0,0.0,0.0,0.0,0.0,0.0,0.0,0.0,-2.0589,-2.0742,-2.1496,0.0,0.0,0.0,0.0,0.0,0.0,0.0,0.0,0.0,-3.4142,-3.4821,-3.5203,0.0,0.0,-3.6383,-3.6157,-3.6332,-3.6684,-3.7211,-3.7161,0.0,0.0,-3.6157,-3.5906,-3.5981,-3.6609,-3.696,-3.6634,-3.6408,-3.6132,-3.578,-3.5253,-3.4731,-3.453,-3.3395,-3.2441,-3.239,-3.2692,-3.2943,-3.2993,-3.3395,-3.3746,-4.6698,-4.2837,-4.0695,-4.0199,-4.0752,-4.0224,-4.0927,-4.2489,-4.1781,-4.1053,-4.0249,-3.917,-3.7513,-3.5479,-3.4801,0.0,0.0,0.0,-4.0584,-4.1526,-4.2663,-4.3125,-4.2944,-4.297,-4.3199,-4.366,-4.4255,-4.4293,-4.3834,-4.4565,-4.2256,-3.73,0.0,0.0,-3.8302,-4.0696,-4.2671,-4.4107,-4.5813,-4.692,-4.7309,-4.5288,-4.2975,-4.0563,-3.8342,-3.6449,-3.4966,-3.3572,-3.1934,-2.9955,-2.8649,-2.6615,0.0,0.0,0.0,0.0,0.0,0.0,0.0,0.0,0.0,0.0,0.0,-1.971,-1.7978,0.0,0.0,0.0,-1.9911,-2.1418,-2.3577,-2.3678,0.0,0.0,0.0,0.0,0.0,0.0,0.0,-3.3746,-3.4826,-3.5827,-3.6885,-3.7412,-3.7487,-3.6935,-3.7236,-3.7462,-3.741,0.0,-3.7713,-3.8266,-3.8341,-3.8241,-3.7914,-3.7612,-3.7436,-3.7487,-3.7764,-3.799,-3.799,-3.7713,-3.7513,-3.7437,-3.6985,-3.6486,-3.6461,-3.568,-3.47,-3.3922,-3.3997,-3.4223,-3.4223,-3.4455,-3.468,-5.365,-5.1735,-4.6752,-4.4599,-4.439,-4.3745,-4.3487,-4.3512,-4.3325,-4.3438,-4.379,-4.2816,-4.1681,-4.0551,-3.9044,0.0,-4.1205,-4.2342,-4.3868,-4.5635,-4.5733,-4.5733,-4.5635,-4.5613,-4.5656,-4.5699,-4.6272,-4.5959,-4.5021,-4.6562,-4.5825,-4.2911,-4.2218,-4.2081,-4.253,-4.3778,-4.4766,-4.5394,-4.6651,-4.7309,-4.7279,-4.4951,-4.3372,-4.258,-3.9718,-3.7563,-3.6379,-3.4639,-3.2996,-3.1392,-2.988,-2.8047,-2.5837,0.0,0.0,0.0,0.0,0.0,0.0,0.0,0.0,0.0,0.0,0.0,0.0,0.0,0.0,0.0,-2.3326,0.0,-2.7293,-2.7971,0.0,0.0,0.0,-3.0206,-3.2441,-3.352,-3.4525,-3.5633,0.0,0.0,-3.8216,-3.9044,-3.9496,-3.9045,-3.8467,-3.8316,-3.8844,-3.8442,-3.8341,-3.8868,-3.8969,-3.8994,-3.8919,-3.8919,-3.8693,-3.8266,-3.814,-3.8191,-3.8191,-3.8115,-3.809,-3.8065,-3.804,-3.7965,-3.799,-3.7814,-3.7387,-3.5378,-3.5002,-3.4951,-3.4901,-3.4926,-3.4951,-5.5335,-5.4363,-5.2638,-5.118,-4.9847,-4.8122,-4.7576,-4.7774,-4.5806,-4.4719,-4.4392,-4.3714,-4.2785,-4.181,-4.1408,-4.2029,-4.3462,-4.4776,-4.5898,-4.6754,-4.7836,-4.7737,-4.6731,-4.6731,-4.7035,-4.7547,-4.7693,-4.7927,-4.8185,-4.806,-4.7686,-4.6887,-4.6224,-4.4975,-4.3269,-4.4945,-4.5933,-4.6082,-4.689,-4.7309,-4.7279,-4.5709,-4.4167,-4.2622,-4.0032,-3.7514,-3.5239,-3.3766,-3.237,-3.0849,-3.0432,-2.9202,-2.6992,-2.5209,0.0,0.0,0.0,0.0,0.0,0.0,0.0,0.0,0.0,-2.4387,-2.0767,0.0,-2.5267,0.0,-2.6138,-2.7695,-2.9051,-2.9679,0.0,0.0,-3.3043,-3.3746,-3.6307,-3.6132,-3.6405,-3.7914,-3.8542,-3.8994,-3.9245,-3.9521,-3.9647,-3.9496,-3.9371,-3.9195,-3.8994,-3.9145,-3.9346,-3.9446,-3.9471,-3.9496,-3.9471,-3.9496,-3.9446,-3.932,-3.927,-3.9295,-3.9295,-3.8944,-3.8668,-3.8642,-3.8291,-3.804,-3.804,-3.799,-3.7864,-3.7312,-3.6885,-3.6458,-3.6128,-3.6028,-3.5981,-5.8489,-5.7799,-5.7226,-5.6421,-5.5302,-5.1925,-5.0678,-5.0779,-4.9054,-4.8095,-4.7727,-4.6885,-4.6073,-4.523,-4.4967,-4.5209,-4.6,-4.7091,-4.775,-4.811,-4.9484,-4.9679,-4.8964,-4.8915,-4.9135,-4.949,-4.9227,-4.928,-4.9628,-4.8745,-4.8297,-4.8267,-4.7638,-4.6591,-4.5244,-4.6202,-4.677,-4.677,-4.713,-4.7309,-4.7279,-4.5992,-4.4656,-4.3365,-4.1165,-3.8726,-3.6188,-3.4706,-3.3104,-3.1318,-3.082,-2.9829,-2.8097,-2.6691,-2.5259,0.0,0.0,0.0,0.0,0.0,0.0,0.0,0.0,0.0,0.0,0.0,-2.772,-2.8147,-2.9478,-3.0984,-3.2566,-3.3219,-3.4248,-3.6006,-3.5906,-3.6433,-3.8216,-3.7839,-3.7989,-3.9094,-3.9245,-3.9346,-3.9647,-3.9697,-3.9697,-3.9697,-3.9697,-3.9597,-3.932,-3.9521,-3.9697,-3.9697,-3.9697,-3.9697,-3.9697,-3.9697,-3.9697,-3.9697,-3.9697,-3.9697,-3.9697,-3.9446,-3.9245,-3.922,-3.8969,-3.8743,-3.8743,-3.8768,-3.8693,-3.8417,-3.8165,-3.7739,-3.7211,-3.7086,-3.7086,-6.1852,-6.1194,-6.0595,-6.0266,-5.9772,-5.5479,-5.3442,-5.3047,-5.2181,-5.1791,-5.1625,-5.0491,-4.9688,-4.9188,-4.8581,-4.8409,-4.8558,-4.9123,-4.954,-4.9765,-5.0828,-5.1349,-5.1349,-5.1259,-5.1229,-5.1199,-5.0584,-5.0315,-5.0285,-4.9134,-4.8506,-4.8386,-4.7758,-4.7369,-4.7309,-4.7309,-4.7309,-4.7309,-4.7309,-4.7309,-4.7309,-4.6082,-4.5035,-4.4167,-4.2282,-4.0098,-3.7641,-3.6097,-3.429,-3.2222,-3.1289,-3.0357,-2.9339,-2.8247,-2.7369,0.0,-2.5737,0.0,0.0,0.0,0.0,0.0,0.0,0.0,0.0,-2.9352,-3.0457,-3.1813,-3.2993,-3.4519,-3.6355,-3.7084,-3.7588,-3.804,-3.8191,-3.8417,-3.8919,-3.902,-3.917,-3.9647,-3.9697,-3.9697,-3.9697,-3.9697,-3.9697,-3.9697,-3.9697,-3.9672,-3.9672,-3.9672,-3.9697,-3.9697,-3.9697,-3.9697,-3.9697,-3.9697,-3.9697,-3.9697,-3.9697,-3.9697,-3.9697,-3.9697,-3.9672,-3.9672,-3.9622,-3.9647,-3.9697,-3.9672,-3.9521,-3.9044,-3.8944,-3.8718,-3.8115,-3.7914,-3.799,-6.251,-6.1912,-6.1762,-6.1104,-6.0002,-5.9088,-5.7377,-5.5165,-5.3331,-5.2207,-5.1653,-5.0906,-5.0243,-4.9744,-4.9633,-4.9939,-5.0526,-5.0695,-5.137,-5.2416,-5.2151,-5.2007,-5.1977,-5.1468,-5.1229,-5.1229,-5.1079,-5.105,-5.0973,-5.0242,-4.9613,-4.912,-4.8416,-4.7848,-4.7339,0.0,0.0,0.0,-4.7309,-4.7309,-4.7279,-4.6531,-4.5304,-4.3529,-4.1594,0.0,-3.6447,-3.5153,-3.393,-3.2738,-3.2169,0.0,0.0,0.0,0.0,0.0,0.0,0.0,0.0,0.0,0.0,0.0,-3.2566,-3.1888,-3.0959,-3.3345,-3.4926,-3.4781,-3.6157,-3.7061,-3.7036,-3.7989,-3.8642,-3.8768,-3.9094,-3.9421,-3.9521,-3.9521,-3.9597,-3.9672,-3.9697,-3.9697,-3.9697,-3.9697,-3.9697,-3.9697,-3.9697,-3.9697,-3.9697,-3.9697,-3.9697,-3.9697,-3.9697,-3.9697,-3.9697,-3.9697,-3.9697,-3.9697,-3.9697,-3.9697,-3.9697,-3.9697,-3.9697,-3.9697,-3.9697,-3.9697,-3.9697,-3.9697,-3.9647,-3.9546,-3.9521,-3.9245,-3.8216,-3.8015,-3.799,-6.2899,0.0,-6.2241,-6.1702,0.0,-6.0356,-5.9284,-5.7827,-5.6116,-5.4832,-5.3884,-5.3539,-5.3049,-5.2497,-5.218,-5.1863,-5.1597,-5.1967,-5.215,-5.22,-5.2524,-5.2516,-5.2187,-5.1858,-5.1528,-5.1229,-5.1229,-5.1229,-5.1199,-5.0524,-5.0016,-4.9733,-4.8775,-4.8117,-4.7788,-4.7459,-4.7309,-4.7309,-4.7309,-4.7309,-4.7279,-4.6651,-4.5472,-4.3828,-4.2512,0.0,0.0,0.0,0.0,0.0,0.0,0.0,0.0,0.0,0.0,-3.132,-3.0859,-3.1035,-3.2047,-3.2423,-3.347,-3.5353,-3.6031,-3.5676,-3.4016,-3.568,-3.691,-3.7186,-3.7965,-3.8442,-3.8442,-3.8944,-3.9321,-3.9295,-3.9521,-3.9697,-3.9697,-3.9697,-3.9697,-3.9697,-3.9697,-3.9697,-3.9697,-3.9697,-3.9697,-3.9697,-3.9697,-3.9697,-3.9697,-3.9697,-3.9697,-3.9697,-3.9697,-3.9697,-3.9697,-3.9697,-3.9697,-3.9697,-3.9697,-3.9697,-3.9697,-3.9697,-3.9697,-3.9697,-3.9697,-3.9697,-3.9697,-3.9697,-3.9697,-3.9697,-3.9697,-3.9546,-3.8944,-3.8843,-3.8843,-6.3137,-6.3019,-6.251,-6.2211,-6.2002,-6.0894,-6.0296,-5.9997,0.0,0.0,0.0,-5.6338,-5.5867,-5.5329,-5.467,-5.376,-5.2726,-5.3297,-5.2931,-5.1918,-5.2892,-5.3084,-5.2546,-5.2306,-5.1917,-5.1409,-5.1289,-5.1229,-5.1199,-5.0614,-5.0285,-5.0106,-4.9045,-4.8356,-4.8087,-4.7578,-4.7309,-4.7309,-4.7309,-4.7309,-4.7279,-4.677,-4.5801,-4.4526,-4.3798,-4.2641,-4.0778,-3.8961,-3.7365,-3.6073,-3.4286,-3.3174,-3.2943,-3.2867,-3.3269,-3.4248,-3.4349,-3.4776,-3.5708,-3.5884,-3.6411,-3.7563,-3.8467,-3.8441,-3.6958,-3.7312,-3.8015,-3.8994,-3.9019,-3.9246,-3.9647,-3.9697,-3.9697,-3.9697,-3.9697,-3.9697,-3.9697,-3.9697,-3.9697,-3.9697,-3.9697,-3.9697,-3.9697,-3.9697,-3.9697,-3.9697,-3.9697,-3.9697,-3.9697,-3.9697,-3.9697,-3.9697,-3.9697,-3.9697,-3.9697,-3.9697,-3.9697,-3.9697,-3.9697,-3.9697,-3.9697,-3.9697,-3.9697,-3.9697,-3.9697,-3.9697,-3.9697,-3.9697,-3.9697,-3.9697,-3.9697,-3.9697,-3.9697,-3.9697,-3.9647,-6.3137,-6.3049,-6.2989,-6.263,-6.2091,-6.1882,-6.1164,-5.9997,-5.868,-5.8022,-5.7782,-5.6675,-5.6188,-5.6017,-5.5359,-5.4929,-5.4747,-5.4889,-5.4779,-5.4598,-5.4212,-5.4012,-5.3862,-5.2755,-5.2157,-5.2007,-5.1468,-5.1229,-5.1199,-5.1109,-5.081,-5.0166,-4.9494,-4.8566,-4.7549,-4.7339,-4.7309,-4.7309,-4.7309,-4.7309,-4.7309,-4.7219,-4.6531,-4.5214,-4.4526,-4.3539,-4.2162,-4.1372,-4.0179,-3.8504,-3.7782,-3.6942,-3.5894,-3.5303,-3.5353,-3.5956,-3.6053,-3.6329,-3.691,-3.7387,-3.814,-3.922,-3.9496,-3.927,-3.8668,-3.9019,-3.9421,-3.9572,-3.9546,-3.9597,-3.9697,-3.9697,-3.9697,-3.9697,-3.9697,-3.9697,-3.9697,-3.9697,-3.9697,-3.9697,-3.9697,-3.9697,-3.9697,-3.9697,-3.9697,-3.9697,-3.9697,-3.9697,-3.9697,-3.9697,-3.9697,-3.9697,-3.9697,-3.9697,-3.9697,-3.9697,-3.9697,-3.9697,-3.9697,-3.9697,-3.9697,-3.9697,-3.9697,-3.9697,-3.9697,-3.9697,-3.9697,-3.9697,-3.9697,-3.9697,-3.9697,-3.9697,-3.9697,-3.9697,-3.9697,-6.3137,-6.3137,-6.3137,-6.2899,-6.257,-6.1882,-6.1014,-6.0027,-5.9069,-5.8441,-5.8022,-5.7094,-5.6496,-5.6158,-5.5478,-5.5209,-5.5209,-5.5209,-5.5209,-5.5179,-5.488,-5.4551,-5.4192,-5.3563,-5.2905,-5.2217,-5.1887,-5.1558,-5.1259,-5.1229,-5.105,-5.0674,-4.9763,-4.8775,-4.7878,-4.7489,-4.7309,-4.7309,-4.7309,-4.7309,-4.7309,-4.7309,-4.683,-4.5873,-4.5544,-4.4945,-4.3988,-4.314,-4.2166,-4.1001,-3.9526,-3.8766,-3.8831,-3.7309,-3.6991,-3.814,-3.767,-3.7513,-3.8114,-3.8617,-3.9145,-3.9647,-3.9697,-3.9597,-3.9346,-3.9546,-3.9697,-3.9697,-3.9697,-3.9697,-3.9697,-3.9697,-3.9697,-3.9697,-3.9697,-3.9697,-3.9697,-3.9697,-3.9697,-3.9697,-3.9697,-3.9697,-3.9697,-3.9697,-3.9697,-3.9697,-3.9697,-3.9697,-3.9697,-3.9697,-3.9697,-3.9697,-3.9697,-3.9697,-3.9697,-3.9697,-3.9697,-3.9697,-3.9697,-3.9697,-3.9697,-3.9697,-3.9697,-3.9697,-3.9697,-3.9697,-3.9697,-3.9697,-3.9697,-3.9697,-3.9697,-3.9697,-3.9697,-3.9697,-3.9697,-6.3137,-6.3137,-6.3137,-6.3137,-6.2959,-6.1822,-6.0954,-6.0266,-5.9608,-5.8949,-5.8321,-5.7633,-5.6974,-5.6346,-5.5688,-5.5329,-5.5209,-5.5209,-5.5209,-5.5209,-5.5209,-5.494,-5.4461,-5.4281,-5.3653,-5.2695,-5.2366,-5.1917,-5.1468,-5.1289,-5.1139,-5.09,-4.9972,-4.9075,-4.8297,-4.7788,-4.7459,-4.7309,-4.7309,-4.7309,-4.7309,-4.7309,-4.707,-4.6591,-4.6531,-4.6292,-4.5741,-4.4889,-4.4051,-4.3113,-4.1335,-4.0686,-4.1201,-3.9233,-3.8663,-3.9974,-3.9084,-3.8567,-3.907,-3.9446,-3.9697,-3.9697,-3.9697,-3.9697,-3.9697,-3.9697,-3.9697,-3.9697,-3.9697,-3.9697,-3.9697,-3.9697,-3.9697,-3.9697,-3.9697,-3.9697,-3.9697,-3.9697,-3.9697,-3.9697,-3.9697,-3.9697,-3.9697,-3.9697,-3.9697,-3.9697,-3.9697,-3.9697,-3.9697,-3.9697,-3.9697,-3.9697,-3.9697,-3.9697,-3.9697,-3.9697,-3.9697,-3.9697,-3.9697,-3.9697,-3.9697,-3.9697,-3.9697,-3.9697,-3.9697,-3.9697,-3.9697,-3.9697,-3.9697,-3.9697,-3.9697,-3.9697,-3.9697,-3.9697,-3.9697,-6.3137,-6.3137,-6.3137,-6.3137,-6.3047,-6.2301,-6.1613,-6.0954,-6.0266,-5.9638,-5.8949,-5.8321,-5.7663,-5.6974,-5.6346,-5.5748,-5.5239,-5.5209,-5.5209,-5.5209,-5.5209,-5.5149,-5.5029,-5.4491,-5.4162,-5.3832,-5.2785,-5.2187,-5.2037,-5.1498,-5.093,-5.0345,-5.0136,-4.9494,-4.8416,-4.8237,-4.7908,-4.7339,-4.7309,-4.7309,-4.7309,-4.7309,-4.7279,-4.7219,-4.7219,-4.7189,-4.704,-4.7043,-4.6136,-4.4602,-4.4177,-4.3567,-4.2611,-4.1206,-4.0777,-4.1353,-4.0235,-3.9572,-3.9648,-3.9672,-3.9749,-3.9697,-3.9749,-3.9749,-3.9697,-3.9697,-3.9697,-3.9697,-3.9697,-3.9697,-3.9697,-3.9697,-3.9697,-3.9697,-3.9697,-3.9697,-3.9697,-3.9697,-3.9697,-3.9697,-3.9697,-3.9697,-3.9697,-3.9697,-3.9697,-3.9697,-3.9697,-3.9697,-3.9697,-3.9697,-3.9697,-3.9697,-3.9697,-3.9697,-3.9697,-3.9697,-3.9697,-3.9697,-3.9697,-3.9697,-3.9697,-3.9697,-3.9697,-3.9697,-3.9697,-3.9697,-3.9697,-3.9697,-3.9697,-3.9697,-3.9697,-3.9697,-3.9697,-3.9697,-3.9697,-6.3137,-6.3137,-6.3137,-6.3137,-6.2989,-6.2361,-6.1732,-6.1074,-6.0386,-5.9727,-5.9129,-5.883,-5.8321,-5.7633,-5.6645,-5.6017,-5.5748,-5.5359,-5.5209,-5.5209,-5.5209,-5.5209,-5.5149,-5.494,-5.461,-5.4162,-5.3234,-5.2576,-5.2157,-5.1528,-5.1079,-5.0734,-5.0375,-4.9717,-4.8925,-4.852,-4.7967,-4.7339,-4.7309,-4.7309,-4.7309,-4.7309,-4.7309,-4.7309,-4.7309,-4.7309,-4.7309,-4.7309,-4.6943,-4.6211,-4.549,-4.5194,-4.5401,-4.3491,-4.2493,-4.2566,-4.0794,-4.0032,-4.0794,-4.0844,-4.0491,-3.9749,-4.0415,-4.0567,-3.98,-3.9697,-3.9697,-3.9697,-3.9697,-3.9697,-3.9697,-3.9697,-3.9697,-3.9697,-3.9697,-3.9697,-3.9697,-3.9697,-3.9697,-3.9697,-3.9697,-3.9697,-3.9697,-3.9697,-3.9697,-3.9697,-3.9697,-3.9697,-3.9697,-3.9697,-3.9697,-3.9697,-3.9697,-3.9697,-3.9697,-3.9697,-3.9697,-3.9697,-3.9697,-3.9697,-3.9697,-3.9697,-3.9697,-3.9697,-3.9697,-3.9697,-3.9697,-3.9697,-3.9697,-3.9697,-3.9697,-3.9697,-3.9697,-3.9697,-3.9697,-6.3137,-6.3137,-6.3137,-6.3137,-6.3107,-6.257,-6.2002,-6.1343,-6.0655,-5.9997,-5.9368,-5.9189,-5.886,-5.8261,-5.7214,-5.6526,-5.6137,-5.5688,-5.5359,-5.5209,-5.5209,-5.5209,-5.5209,-5.5179,-5.494,-5.4431,-5.3803,-5.3025,-5.2247,-5.1738,-5.1409,-5.1169,-5.0704,-5.0182,-4.9523,-4.8895,-4.8237,-4.7638,-4.7429,-4.7309,-4.7309,-4.7309,-4.7309,-4.7309,-4.7309,-4.7309,-4.7309,-4.7309,-4.7309,-4.7266,-4.6417,-4.6166,-4.6638,-4.4995,-4.374,-4.2978,-4.1591,-4.0969,-4.1591,-4.1617,-4.1219,-4.0415,-4.1119,-4.1069,-4.0083,-4.0032,-4.0032,-3.9697,-3.9697,-3.9697,-3.9697,-3.9697,-3.9697,-3.9697,-3.9697,-3.9697,-3.9697,-3.9697,-3.9697,-3.9697,-3.9697,-3.9697,-3.9697,-3.9697,-3.9697,-3.9697,-3.9697,-3.9697,-3.9697,-3.9697,-3.9697,-3.9697,-3.9697,-3.9697,-3.9697,-3.9697,-3.9697,-3.9697,-3.9697,-3.9697,-3.9697,-3.9697,-3.9697,-3.9697,-3.9697,-3.9697,-3.9697,-3.9697,-3.9697,-3.9697,-3.9697,-3.9697,-3.9697,-3.9697,-3.9697,-6.3137,-6.3137,-6.3137,-6.3137,-6.3137,-6.3019,-6.263,-6.1942,-6.1313,-6.0655,-5.9937,-5.9368,-5.9069,-5.8979,-5.8261,-5.7363,-5.6316,-5.6137,-5.5777,-5.5299,-5.5209,-5.5209,-5.5209,-5.5209,-5.5179,-5.4999,-5.4371,-5.3443,-5.2247,-5.2157,-5.1828,-5.1229,-5.1139,-5.0764,-5.0106,-4.9523,-4.8895,-4.8207,-4.7668,-4.7309,-4.7309,-4.7309,-4.7309,-4.7309,-4.7309,-4.7309,-4.7309,-4.7309,-4.7309,-4.7309,-4.7149,-4.6682,-4.5689,-4.5343,-4.4163,-4.2377,-4.2641,-4.2689,-4.1789,-4.169,-4.1541,-4.1419,-4.1568,-4.1069,-3.9929,-4.0567,-4.0693,-3.9775,-3.9697,-3.9697,-3.9697,-3.9697,-3.9697,-3.9697,-3.9722,-3.9747,-3.9722,-3.9848,-3.9722,-3.9722,-3.9722,-3.9697,-3.9697,-3.9697,-3.9697,-3.9697,-3.9697,-3.9697,-3.9697,-3.9697,-3.9697,-3.9697,-3.9697,-3.9697,-3.9697,-3.9697,-3.9697,-3.9697,-3.9697,-3.9697,-3.9697,-3.9697,-3.9697,-3.9697,-3.9697,-3.9697,-3.9697,-3.9697,-3.9697,-3.9697,-3.9697,-3.9697,-3.9697,-3.9697,-3.9697,-6.3137,-6.3137,-6.3137,-6.3137,-6.3137,-6.3137,-6.269,-6.2061,-6.1403,-6.0745,-6.0057,-5.9398,-5.9099,-5.9099,-5.886,-5.8261,-5.7393,-5.6585,-5.6047,-5.5777,-5.5388,-5.5209,-5.5209,-5.5209,-5.5209,-5.5089,-5.4521,-5.3503,-5.2336,-5.2187,-5.1858,-5.1319,-5.1229,-5.0853,-5.0255,-4.9986,-4.9374,-4.8386,-4.8027,-4.7728,-4.7339,-4.7309,-4.7309,-4.7309,-4.7309,-4.7309,-4.7309,-4.7309,-4.7309,-4.7309,-4.7309,-4.7106,-4.655,-4.507,-4.461,-4.4932,-4.2641,-4.1568,-4.2593,-4.2834,-4.2084,-4.0693,-4.1936,-4.1838,-4.0262,-4.0134,-4.016,-3.98,-3.9697,-3.9697,-3.9697,-3.9697,-3.9697,-3.9747,-3.9998,-4.0224,-4.03,-4.0526,-4.0626,-4.0275,-3.9948,-3.9697,-3.9772,-3.9697,-3.9697,-3.9697,-3.9697,-3.9722,-3.9697,-3.9697,-3.9772,-3.9722,-3.9697,-3.9697,-3.9697,-3.9697,-3.9697,-3.9697,-3.9697,-3.9697,-3.9697,-3.9697,-3.9697,-3.9697,-3.9697,-3.9697,-3.9697,-3.9697,-3.9697,-3.9697,-3.9697,-3.9697,-3.9697,-3.9697,-3.9697,-6.3137,-6.3137,-6.3137,-6.3137,-6.3137,-6.3137,-6.2839,-6.2361,-6.1732,-6.1044,-6.0386,-5.9727,-5.9308,-5.9129,-5.9099,-5.889,-5.8351,-5.7304,-5.6675,-5.6406,-5.5807,-5.5508,-5.5478,-5.5299,-5.5209,-5.5149,-5.476,-5.3922,-5.2935,-5.2606,-5.2187,-5.1588,-5.1349,-5.102,-5.0554,-5.0315,-4.9717,-4.9015,-4.8716,-4.8297,-4.7728,-4.7608,-4.7519,-4.7222,-4.6931,-4.6887,-4.7266,-4.7309,-4.7309,-4.7309,-4.7309,-4.7309,-4.7062,-4.4489,-4.3834,-4.5343,-4.3313,-4.1838,-4.2738,-4.3266,-4.2738,-4.1169,-4.1985,-4.2035,-4.0516,-4.0313,-4.0134,-3.9878,-4.0185,-4.0313,-4.0364,-4.0466,-4.0388,-4.0179,-4.045,-4.0724,-4.0749,-4.105,-4.1075,-4.0827,-4.0501,-4.03,-4.0224,-4.0249,-4.0249,-4.0224,-4.0224,-4.0224,-4.0224,-4.0224,-4.0224,-4.0224,-4.03,-4.0199,-4.0124,-4.0074,-3.9848,-3.9798,-3.9697,-3.9697,-3.9697,-3.9697,-3.9697,-3.9697,-3.9697,-3.9697,-3.9697,-3.9697,-3.9697,-3.9697,-3.9697,-3.9697,-3.9697,-3.9697,-3.9697,-6.3137,-6.3137,-6.3137,-6.3137,-6.3137,-6.3137,-6.3049,-6.2899,-6.2331,-6.1613,-6.0924,-6.0326,-5.9638,-5.9189,-5.9099,-5.9069,-5.889,-5.8321,-5.7693,-5.7094,-5.6466,-5.6137,-5.6098,-5.5538,-5.5239,-5.5209,-5.5179,-5.479,-5.4042,-5.3384,-5.2755,-5.2157,-5.1498,-5.1199,-5.1122,-5.0461,-5.0103,-4.9789,-4.9342,-4.879,-4.8356,-4.8104,-4.785,-4.7298,-4.6106,-4.5987,-4.7106,-4.7106,-4.7062,-4.7266,-4.7222,-4.7236,-4.6682,-4.3882,-4.2377,-4.374,-4.4489,-4.3929,-4.223,-4.2882,-4.3456,-4.2834,-4.2301,-4.1838,-4.1468,-4.1369,-4.0995,-4.0313,-4.0642,-4.1369,-4.14,-4.1718,-4.1647,-4.0788,-4.1059,-4.1275,-4.13,-4.13,-4.13,-4.1275,-4.1175,-4.125,-4.125,-4.11,-4.1025,-4.105,-4.1075,-4.105,-4.1078,-4.1,-4.1175,-4.1175,-4.1,-4.0827,-4.0651,-4.0475,-4.0149,-3.9898,-3.9772,-3.9697,-3.9697,-3.9697,-3.9697,-3.9697,-3.9697,-3.9697,-3.9697,-3.9697,-3.9697,-3.9697,-3.9697,-3.9697,-3.9697,-3.9697,-3.9697,-6.3137,-6.3137,-6.3137,-6.3137,-6.3137,-6.3137,-6.3137,-6.3077,-6.2391,-6.1702,-6.1074,-6.0386,-5.9727,-5.9219,-5.9099,-5.9099,-5.9099,-5.886,-5.8441,-5.7782,-5.7094,-5.6585,-5.6248,-5.5957,-5.5628,-5.5269,-5.5209,-5.485,-5.4192,-5.3533,-5.2845,-5.2187,-5.1511,-5.1229,-5.1152,-5.0129,-4.931,-4.8843,-4.8639,-4.8231,-4.7544,-4.7199,-4.727,-4.7629,-4.5511,-4.4674,-4.5824,-4.5161,-4.5524,-4.7106,-4.6462,-4.6003,-4.5598,-4.4069,-4.3122,-4.3456,-4.3834,-4.3882,-4.317,-4.317,-4.3074,-4.2496,-4.2544,-4.2398,-4.1739,-4.1568,-4.1369,-4.0844,-4.0668,-4.0389,-4.0823,-4.1333,-4.1696,-4.1802,-4.1892,-4.1907,-4.1907,-4.1907,-4.1907,-4.1856,-4.158,-4.13,-4.13,-4.1326,-4.1376,-4.1376,-4.1351,-4.1351,-4.1326,-4.1401,-4.1275,-4.1275,-4.125,-4.1404,-4.1178,-4.0902,-4.0576,-4.0149,-3.9873,-3.9722,-3.9697,-3.9697,-3.9697,-3.9697,-3.9697,-3.9697,-3.9697,-3.9697,-3.9697,-3.9697,-3.9697,-3.9697,-3.9697,-3.9697,-3.9697,-6.3137,-6.3137,-6.3137,-6.3137,-6.3137,-6.3137,-6.3137,-6.3019,-6.266,-6.2091,-6.1433,-6.0775,-6.0086,-5.9518,-5.9219,-5.9099,-5.9099,-5.9099,-5.889,-5.8441,-5.7782,-5.7124,-5.6496,-5.5987,-5.5628,-5.5269,-5.5209,-5.497,-5.4551,-5.3892,-5.3204,-5.2546,-5.1409,-5.0965,-5.0947,-4.9406,-4.8361,-4.8468,-4.8089,-4.7706,-4.7425,-4.6757,-4.6774,-4.7316,-4.4937,-4.4194,-4.5025,-4.3633,-4.3657,-4.5321,-4.507,-4.4932,-4.5207,-4.3834,-4.3218,-4.3882,-4.3313,-4.2786,-4.2786,-4.2689,-4.2496,-4.1887,-4.1936,-4.2035,-4.1518,-4.1269,-4.0946,-4.1027,-4.0977,-4.0901,-4.1515,-4.2,-4.2525,-4.2968,-4.2693,-4.2519,-4.2514,-4.2514,-4.2514,-4.2409,-4.2183,-4.1982,-4.1932,-4.1957,-4.1957,-4.1932,-4.1932,-4.1932,-4.1957,-4.1982,-4.1932,-4.1932,-4.2057,-4.1982,-4.1681,-4.1354,-4.1003,-4.0501,-4.0023,-3.9823,-3.9697,-3.9697,-3.9697,-3.9697,-3.9697,-3.9697,-3.9697,-3.9697,-3.9697,-3.9697,-3.9697,-3.9697,-3.9697,-3.9697,-3.9697,-6.3137,-6.3137,-6.3137,-6.3137,-6.3137,-6.3137,-6.3137,-6.3137,-6.3049,-6.263,-6.2002,-6.1433,-6.0715,-6.0057,-5.9488,-5.9219,-5.9099,-5.9099,-5.8907,-5.8644,-5.825,-5.7676,-5.6631,-5.5567,-5.5032,-5.4875,-5.4926,-5.4947,-5.4645,-5.382,-5.3714,-5.2812,-5.0979,-5.0397,-5.0378,-4.8446,-4.7503,-4.8154,-4.7448,-4.722,-4.7636,-4.6578,-4.6327,-4.6938,-4.4547,-4.3584,-4.4339,-4.2787,-4.2086,-4.3327,-4.3657,-4.4207,-4.4705,-4.3039,-4.2955,-4.4771,-4.3067,-4.2396,-4.1948,-4.2377,-4.2301,-4.2179,-4.1305,-4.0466,-4.1805,-4.1307,-4.0798,-4.1103,-4.1647,-4.2318,-4.2814,-4.3284,-4.3623,-4.3859,-4.3249,-4.2972,-4.2961,-4.2936,-4.2886,-4.2911,-4.2961,-4.2936,-4.2811,-4.2811,-4.2836,-4.2836,-4.2811,-4.276,-4.276,-4.271,-4.2886,-4.2836,-4.266,-4.2509,-4.2208,-4.1856,-4.1505,-4.1178,-4.0576,-4.0124,-3.9798,-3.9722,-3.9697,-3.9697,-3.9697,-3.9697,-3.9697,-3.9697,-3.9697,-3.9697,-3.9697,-3.9697,-3.9697,-3.9697,-3.9697,-6.3137,-6.3137,-6.3137,-6.3137,-6.3137,-6.3137,-6.3137,-6.3137,-6.3137,-6.272,-6.2151,-6.1912,-6.1108,-6.0146,-5.9907,-5.9578,-5.908,-5.9045,-5.8331,-5.7664,-5.8456,-5.7414,-5.5683,-5.4594,-5.4036,-5.3739,-5.3652,-5.3571,-5.3408,-5.2014,-5.1561,-5.2216,-4.9869,-4.9195,-4.9803,-4.7188,-4.5846,-4.603,-4.582,-4.566,-4.576,-4.52,-4.5291,-4.6012,-4.3466,-4.2631,-4.3436,-4.2184,-4.1896,-4.3141,-4.3264,-4.3891,-4.4893,-4.3637,-4.3158,-4.3882,-4.4969,-4.4655,-4.3312,-4.3537,-4.4162,-4.4189,-4.265,-4.2909,-4.414,-4.3061,-4.2449,-4.2346,-4.211,-4.1892,-4.2376,-4.271,-4.2885,-4.3212,-4.3108,-4.2986,-4.2986,-4.2986,-4.2986,-4.2986,-4.2986,-4.2986,-4.2986,-4.2986,-4.2986,-4.2986,-4.2986,-4.2986,-4.2986,-4.2986,-4.2986,-4.2986,-4.2886,-4.2861,-4.271,-4.2414,-4.2112,-4.1831,-4.1279,-4.0601,-4.0149,-3.9772,-3.9722,-3.9697,-3.9697,-3.9697,-3.9697,-3.9697,-3.9697,-3.9697,-3.9697,-3.9697,-3.9697,-3.9697,-3.9697,-6.3137,-6.3137,-6.3137,-6.3137,-6.3137,-6.3137,-6.3137,-6.3137,-6.3137,-6.2869,-6.251,-6.2211,-6.1124,-5.9608,-5.99,-5.9284,-5.8195,-5.8081,-5.7552,-5.6905,-5.6905,-5.6357,-5.5238,-5.432,-5.3629,-5.3259,-5.2408,-5.2455,-5.2587,-5.1008,-5.0621,-5.05,-4.887,-4.8399,-4.886,-4.6196,-4.4689,-4.4858,-4.4535,-4.4372,-4.4888,-4.4115,-4.4493,-4.4942,-4.3246,-4.2442,-4.2956,-4.2388,-4.2401,-4.3075,-4.3281,-4.3615,-4.4199,-4.3666,-4.3461,-4.4023,-4.4652,-4.4047,-4.3563,-4.3563,-4.3563,-4.3461,-4.2736,-4.2892,-4.3203,-4.284,-4.2421,-4.2545,-4.2033,-4.2066,-4.2414,-4.2564,-4.2715,-4.2997,-4.2986,-4.2986,-4.2986,-4.2986,-4.2986,-4.2986,-4.2986,-4.2986,-4.2986,-4.2986,-4.2986,-4.2986,-4.2986,-4.2986,-4.2986,-4.2986,-4.2986,-4.2986,-4.2986,-4.2936,-4.2936,-4.266,-4.2414,-4.2213,-4.1831,-4.1153,-4.0601,-4.0049,-3.9873,-3.9848,-3.9772,-3.9697,-3.9697,-3.9697,-3.9697,-3.9697,-3.9697,-3.9697,-3.9697,-3.9697,-3.9697,-6.3137,-6.3137,-6.3137,-6.3137,-6.3137,-6.3137,-6.3137,-6.3079,-6.2759,-6.2875,-6.2784,-6.2076,-6.0413,-5.8754,-5.9096,-5.8451,-5.6508,-5.6508,-5.6423,-5.5849,-5.5241,-5.4408,-5.4799,-5.4144,-5.3406,-5.2708,-5.1239,-5.132,-5.14,-5.063,-4.9967,-4.9308,-4.8169,-4.7693,-4.7541,-4.533,-4.4412,-4.4468,-4.3891,-4.3815,-4.4235,-4.3691,-4.3749,-4.4242,-4.3669,-4.2866,-4.3002,-4.2891,-4.3008,-4.318,-4.3154,-4.3363,-4.3362,-4.3388,-4.3829,-4.4471,-4.3546,-4.281,-4.2918,-4.2624,-4.2093,-4.2251,-4.2036,-4.1613,-4.2144,-4.2141,-4.2048,-4.2456,-4.2288,-4.2514,-4.2785,-4.2936,-4.2936,-4.2986,-4.2986,-4.2986,-4.2986,-4.2986,-4.2986,-4.2986,-4.2986,-4.2986,-4.2986,-4.2986,-4.2986,-4.2986,-4.2986,-4.2986,-4.2986,-4.2986,-4.2986,-4.2986,-4.2986,-4.2986,-4.2986,-4.2936,-4.2715,-4.2464,-4.2158,-4.163,-4.1103,-4.0626,-4.0249,-4.0049,-3.9898,-3.9772,-3.9697,-3.9697,-3.9697,-3.9697,-3.9697,-3.9697,-3.9697,-3.9697,-3.9697,-6.3137,-6.3137,-6.3137,-6.3137,-6.3137,-6.3137,-6.3137,-6.3021,-6.1644,-6.191,-6.2204,-6.0183,-5.8895,-5.8578,-5.7554,-5.6216,-5.5029,-5.4887,-5.4859,-5.4682,-5.3248,-5.2673,-5.3016,-5.3134,-5.2306,-5.0902,-4.9917,-4.9595,-4.9301,-4.8505,-4.7808,-4.8409,-4.7178,-4.6579,-4.7209,-4.5551,-4.4224,-4.4086,-4.3727,-4.3557,-4.3482,-4.3346,-4.3235,-4.3492,-4.3184,-4.3042,-4.2986,-4.2986,-4.3002,-4.3047,-4.3085,-4.3419,-4.3986,-4.3499,-4.3689,-4.4387,-4.4493,-4.3741,-4.3304,-4.3633,-4.417,-4.3743,-4.2983,-4.3081,-4.4063,-4.3059,-4.2746,-4.2811,-4.2811,-4.2866,-4.2936,-4.2986,-4.2986,-4.2986,-4.2986,-4.2986,-4.2986,-4.2986,-4.2986,-4.2986,-4.2986,-4.2986,-4.2986,-4.2986,-4.2986,-4.2986,-4.2986,-4.2986,-4.2986,-4.2986,-4.2986,-4.2986,-4.2986,-4.2986,-4.2986,-4.2986,-4.2861,-4.274,-4.2459,-4.2258,-4.1706,-4.1128,-4.0727,-4.0325,-3.9973,-3.9873,-3.9772,-3.9697,-3.9697,-3.9697,-3.9697,-3.9697,-3.9697,-3.9697,-3.9697,-6.3137,-6.3137,-6.3137,-6.3137,-6.3137,-6.3137,-6.3137,-6.2759,-6.1258,-6.099,-6.1198,-5.907,-5.7578,-5.6815,-5.6292,-5.5353,-5.3883,-5.3356,-5.2822,-5.2359,-5.1803,-5.1616,-5.1242,-5.196,-5.1629,-4.9785,-4.8677,-4.8347,-4.8075,-4.7146,-4.6815,-4.7357,-4.6391,-4.6172,-4.656,-4.5555,-4.4802,-4.435,-4.4166,-4.3915,-4.3463,-4.3363,-4.3187,-4.3037,-4.2986,-4.2986,-4.2986,-4.2986,-4.2986,-4.2986,-4.3042,-4.3295,-4.3852,-4.3381,-4.3436,-4.3852,-4.4071,-4.3797,-4.3381,-4.3602,-4.3991,-4.4126,-4.3351,-4.3492,-4.3797,-4.3351,-4.3098,-4.2986,-4.2961,-4.2986,-4.2986,-4.2986,-4.2986,-4.2986,-4.2986,-4.2986,-4.2986,-4.2986,-4.2986,-4.2986,-4.2986,-4.2986,-4.2986,-4.2986,-4.2986,-4.2986,-4.2986,-4.2986,-4.2986,-4.2986,-4.2986,-4.2986,-4.2986,-4.2986,-4.2986,-4.2986,-4.2986,-4.2886,-4.2811,-4.2685,-4.2459,-4.1806,-4.1178,-4.0752,-4.035,-3.9973,-3.9848,-3.9772,-3.9722,-3.9697,-3.9697,-3.9697,-3.9697,-3.9697,-3.9697,-6.3137,-6.3137,-6.3137,-6.3137,-6.3137,-6.3079,-6.2875,-6.235,-6.087,-5.9994,-5.9659,-5.8167,-5.5988,-5.5104,-5.5024,-5.4119,-5.2638,-5.1842,-5.1042,-5.0308,-5.1042,-5.0727,-5.0346,-5.0798,-5.0978,-4.9828,-4.8304,-4.7803,-4.7725,-4.7078,-4.6421,-4.6361,-4.6361,-4.6169,-4.5757,-4.5598,-4.5321,-4.4819,-4.4744,-4.4493,-4.4016,-4.3915,-4.3664,-4.3263,-4.3011,-4.2986,-4.2986,-4.2986,-4.2986,-4.2986,-4.2986,-4.2986,-4.2986,-4.2986,-4.2986,-4.3017,-4.3184,-4.3129,-4.3073,-4.3098,-4.3154,-4.2986,-4.2986,-4.2986,-4.3042,-4.3073,-4.3042,-4.2986,-4.2986,-4.2986,-4.2986,-4.2986,-4.2986,-4.2986,-4.2986,-4.2986,-4.2986,-4.2986,-4.2986,-4.2986,-4.2986,-4.2986,-4.2986,-4.2986,-4.2986,-4.2986,-4.2986,-4.2986,-4.2986,-4.2986,-4.2986,-4.2986,-4.2986,-4.2986,-4.2986,-4.2986,-4.2986,-4.2986,-4.2986,-4.2961,-4.2911,-4.2484,-4.1831,-4.1204,-4.0752,-4.04,-4.0099,-4.0049,-3.9948,-3.9798,-3.9697,-3.9697,-3.9697,-3.9697,-3.9697,-6.3137,-6.3137,-6.3137,-6.3137,-6.3137,-6.3137,-6.2292,-6.075,-5.9256,-5.8446,-5.8005,-5.5274,-5.4322,-5.4079,-5.2642,-5.1416,-5.0627,-5.0295,-5.0014,-4.959,-5.0078,-4.9822,-4.9886,-4.9989,-4.9825,-4.9014,-4.8121,-4.7752,-4.7319,-4.6698,-4.6426,-4.6351,-4.6326,-4.62,-4.615,-4.6125,-4.5849,-4.5422,-4.5321,-4.5045,-4.4618,-4.4392,-4.4192,-4.3664,-4.3338,-4.3162,-4.3062,-4.3011,-4.2986,-4.2986,-4.2986,-4.3011,-4.3112,-4.3112,-4.3062,-4.2986,-4.2986,-4.2986,-4.2986,-4.2986,-4.2986,-4.2986,-4.2986,-4.2986,-4.2986,-4.2986,-4.2986,-4.2986,-4.2986,-4.2986,-4.2986,-4.2986,-4.3011,-4.2986,-4.3037,-4.3062,-4.3087,-4.3062,-4.3062,-4.3087,-4.3062,-4.2986,-4.2986,-4.2986,-4.2986,-4.2986,-4.2986,-4.2986,-4.2986,-4.2986,-4.2986,-4.2986,-4.2986,-4.2986,-4.2986,-4.2986,-4.2986,-4.2986,-4.2986,-4.2986,-4.2936,-4.2936,-4.2509,-4.1882,-4.1329,-4.0927,-4.0676,-4.0375,-4.0049,-3.9823,-3.9747,-3.9697,-3.9697,-3.9697,-3.9697,-6.3137,-6.3137,-6.3137,-6.3137,-6.3137,-6.3137,-6.2116,-6.0419,-5.8759,-5.7496,-5.6141,-5.4122,-5.3164,-5.3155,-5.2108,-5.0645,-4.9866,-4.959,-4.959,-4.959,-4.959,-4.959,-4.959,-4.959,-4.9464,-4.9088,-4.8611,-4.8058,-4.7506,-4.7004,-4.6753,-4.6652,-4.6476,-4.6326,-4.6301,-4.6276,-4.6175,-4.5924,-4.5874,-4.5623,-4.507,-4.4844,-4.4443,-4.4217,-4.3991,-4.384,-4.3815,-4.3815,-4.384,-4.3865,-4.384,-4.384,-4.3815,-4.374,-4.3539,-4.3137,-4.3037,-4.3011,-4.2986,-4.2986,-4.2986,-4.2986,-4.3011,-4.2986,-4.2986,-4.2986,-4.3037,-4.3011,-4.2986,-4.2986,-4.2986,-4.3011,-4.3112,-4.3338,-4.3413,-4.3539,-4.3664,-4.3539,-4.3438,-4.3363,-4.3187,-4.3112,-4.2986,-4.2986,-4.2986,-4.2986,-4.2986,-4.2986,-4.2986,-4.2986,-4.2986,-4.2986,-4.2986,-4.2986,-4.2986,-4.2986,-4.2986,-4.2986,-4.2986,-4.2986,-4.2986,-4.2961,-4.2967,-4.264,-4.2057,-4.153,-4.0877,-4.045,-4.0149,-3.9873,-3.9823,-3.9772,-3.9722,-3.9697,-3.9697,-6.3137,-6.3079,-6.2701,-6.2613,-6.2555,-6.2175,-6.1019,-5.9413,-5.7977,-5.6402,-5.4875,-5.3538,-5.2929,-5.2628,-5.1867,-5.077,-4.9916,-4.9816,-4.9665,-4.9766,-4.964,-4.959,-4.959,-4.959,-4.9565,-4.9464,-4.9163,-4.8636,-4.8083,-4.7531,-4.733,-4.7205,-4.6828,-4.6552,-4.6552,-4.6577,-4.6476,-4.6326,-4.6301,-4.605,-4.5623,-4.5121,-4.4794,-4.4744,-4.4694,-4.4568,-4.4493,-4.4468,-4.4468,-4.4493,-4.4518,-4.4568,-4.4593,-4.4618,-4.4217,-4.3489,-4.3313,-4.3313,-4.3338,-4.3388,-4.3489,-4.3514,-4.3363,-4.3338,-4.3363,-4.3489,-4.3388,-4.3313,-4.3363,-4.3413,-4.3489,-4.3363,-4.3564,-4.3815,-4.3991,-4.4091,-4.4242,-4.4217,-4.4016,-4.3815,-4.3463,-4.3237,-4.3137,-4.2986,-4.2986,-4.2986,-4.2986,-4.2986,-4.2986,-4.2986,-4.2986,-4.2986,-4.2986,-4.2986,-4.2986,-4.2986,-4.2986,-4.2986,-4.2986,-4.2986,-4.2986,-4.2986,-4.2911,-4.2916,-4.2715,-4.2082,-4.1304,-4.0727,-4.0626,-4.045,-4.0049,-3.9823,-3.9747,-3.9697,-3.9697,-6.3137,-6.2933,-6.1437,-6.081,-6.0629,-5.938,-5.7724,-5.6245,-5.5984,-5.4742,-5.3427,-5.3042,-5.2929,-5.2628,-5.18,-5.1247,-5.0795,-5.0193,-4.9941,-5.0142,-4.9866,-4.9665,-4.959,-4.959,-4.959,-4.959,-4.9515,-4.9188,-4.8661,-4.8083,-4.7832,-4.7782,-4.7657,-4.7506,-4.7054,-4.7029,-4.6717,-4.6426,-4.6326,-4.6276,-4.6125,-4.5648,-4.5422,-4.5271,-4.4995,-4.4769,-4.4844,-4.4844,-4.4794,-4.4769,-4.4694,-4.4644,-4.4618,-4.4618,-4.4535,-4.4468,-4.4443,-4.4418,-4.4317,-4.4242,-4.4217,-4.4192,-4.4267,-4.4392,-4.4267,-4.4242,-4.4242,-4.4443,-4.4367,-4.4267,-4.4217,-4.4342,-4.4468,-4.4493,-4.4543,-4.4593,-4.4694,-4.4769,-4.4568,-4.4443,-4.4166,-4.3664,-4.3363,-4.3137,-4.2986,-4.2986,-4.2986,-4.2986,-4.2986,-4.2986,-4.2986,-4.2986,-4.2986,-4.2986,-4.2986,-4.2986,-4.2986,-4.2986,-4.2986,-4.2986,-4.2986,-4.2986,-4.2986,-4.2911,-4.2841,-4.2715,-4.2057,-4.1605,-4.1354,-4.0953,-4.0526,-4.0124,-3.9747,-3.9747,-3.9823,-6.1644,-6.1466,-5.981,-5.9104,-5.9008,-5.8257,-5.7021,-5.5683,-5.5353,-5.4474,-5.311,-5.2861,-5.2779,-5.2427,-5.19,-5.1574,-5.1222,-5.072,-5.0444,-5.0419,-5.0167,-4.9891,-4.964,-4.959,-4.959,-4.959,-4.959,-4.9515,-4.9088,-4.8711,-4.841,-4.836,-4.8109,-4.7807,-4.7581,-4.7556,-4.7255,-4.6853,-4.6502,-4.6326,-4.625,-4.6075,-4.5949,-4.5949,-4.5673,-4.5547,-4.5522,-4.5573,-4.5573,-4.5573,-4.5573,-4.5598,-4.5598,-4.5598,-4.5573,-4.5573,-4.5573,-4.5271,-4.4719,-4.4669,-4.4694,-4.4644,-4.4644,-4.4568,-4.4618,-4.4669,-4.4669,-4.4593,-4.4618,-4.4644,-4.4669,-4.4618,-4.4844,-4.497,-4.5095,-4.5296,-4.5321,-4.5171,-4.5095,-4.4995,-4.4844,-4.4392,-4.3966,-4.374,-4.3564,-4.3438,-4.3313,-4.3137,-4.3062,-4.2986,-4.2986,-4.2986,-4.2986,-4.2986,-4.2986,-4.2986,-4.2986,-4.2986,-4.2986,-4.2986,-4.2986,-4.2986,-4.2986,-4.2986,-4.2911,-4.276,-4.264,-4.2313,-4.1781,-4.1379,-4.0949,-4.0701,-4.0425,-4.0224,-4.0199,-5.9872,-5.9721,-5.804,-5.7369,-5.7277,-5.6919,-5.5945,-5.4875,-5.4742,-5.4055,-5.3179,-5.2904,-5.2678,-5.2352,-5.2176,-5.195,-5.1724,-5.1423,-5.1147,-5.087,-5.0519,-5.0193,-4.9916,-4.9741,-4.959,-4.959,-4.959,-4.9565,-4.9464,-4.9213,-4.8987,-4.8962,-4.8686,-4.8309,-4.8159,-4.8083,-4.7832,-4.7018,-4.6753,-4.6502,-4.6351,-4.6301,-4.6276,-4.6301,-4.6301,-4.6326,-4.6326,-4.625,-4.625,-4.6225,-4.62,-4.615,-4.6175,-4.615,-4.615,-4.615,-4.6125,-4.5899,-4.5397,-4.5196,-4.5045,-4.5045,-4.5045,-4.5196,-4.5146,-4.5045,-4.5045,-4.5171,-4.5171,-4.5146,-4.5045,-4.5095,-4.5321,-4.5573,-4.5698,-4.5974,-4.6125,-4.5824,-4.5648,-4.5623,-4.5497,-4.5321,-4.492,-4.4518,-4.4242,-4.3991,-4.3714,-4.3413,-4.3338,-4.3313,-4.3413,-4.3539,-4.3564,-4.3489,-4.3288,-4.3237,-4.3162,-4.3037,-4.3037,-4.2986,-4.2986,-4.2986,-4.2986,-4.2986,-4.2986,-4.2911,-4.2785,-4.2539,-4.2263,-4.1831,-4.153,-4.1404,-4.1204,-4.0927,-4.0676,-5.8194,-5.7977,-5.631,-5.5551,-5.5485,-5.3878,-5.3247,-5.3316,-5.3179,-5.311,-5.2929,-5.2861,-5.2879,-5.2729,-5.2427,-5.2402,-5.2703,-5.1724,-5.1624,-5.1473,-5.0996,-5.0494,-5.0142,-4.9866,-4.959,-4.959,-4.959,-4.959,-4.959,-4.9515,-4.9464,-4.949,-4.9238,-4.9063,-4.8837,-4.8586,-4.8159,-4.7506,-4.7079,-4.6753,-4.6502,-4.6351,-4.6326,-4.6326,-4.6326,-4.6326,-4.6326,-4.6326,-4.6326,-4.6326,-4.6326,-4.6326,-4.6326,-4.6326,-4.6326,-4.6326,-4.6326,-4.615,-4.5949,-4.5924,-4.61,-4.615,-4.6075,-4.5949,-4.5899,-4.6075,-4.615,-4.5999,-4.5874,-4.5974,-4.605,-4.6175,-4.5999,-4.6024,-4.605,-4.6125,-4.625,-4.625,-4.6125,-4.62,-4.61,-4.5849,-4.5723,-4.5321,-4.4895,-4.4618,-4.4292,-4.3991,-4.4091,-4.4116,-4.4242,-4.4342,-4.4367,-4.4217,-4.3815,-4.3714,-4.3614,-4.3388,-4.3237,-4.3087,-4.2986,-4.2986,-4.2986,-4.2986,-4.2986,-4.2986,-4.2961,-4.276,-4.2564,-4.2313,-4.2057,-4.1932,-4.1706,-4.1404,-4.1254,-5.7341,-5.6271,-5.4567,-5.3878,-5.381,-5.3179,-5.2861,-5.2861,-5.2861,-5.2861,-5.2861,-5.2861,-5.2861,-5.2785,-5.2779,-5.2703,-5.2879,-5.2553,-5.2277,-5.1875,-5.1348,-5.0795,-5.0393,-4.9967,-4.959,-4.959,-4.959,-4.959,-4.959,-4.959,-4.959,-4.959,-4.959,-4.9515,-4.9264,-4.8962,-4.851,-4.8109,-4.7506,-4.6943,-4.6853,-4.6451,-4.6326,-4.6326,-4.6326,-4.6326,-4.6326,-4.6326,-4.6326,-4.6326,-4.6351,-4.6326,-4.6326,-4.6326,-4.6326,-4.6326,-4.6326,-4.6326,-4.6326,-4.6326,-4.6326,-4.6326,-4.6301,-4.6326,-4.6326,-4.6326,-4.6326,-4.6301,-4.6326,-4.6326,-4.6301,-4.6276,-4.625,-4.6301,-4.6326,-4.6326,-4.6326,-4.6326,-4.6301,-4.6276,-4.6276,-4.62,-4.615,-4.6075,-4.5648,-4.5246,-4.4895,-4.4644,-4.4769,-4.4819,-4.4895,-4.492,-4.4945,-4.4769,-4.4392,-4.4217,-4.4091,-4.3765,-4.3463,-4.3288,-4.3162,-4.2986,-4.2986,-4.2986,-4.2986,-4.2986,-4.2986,-4.2986,-4.2836,-4.261,-4.2509,-4.2434,-4.2183,-4.1882,-4.1756,-5.6504,-5.5221,-5.3606,-5.2861,-5.2861,-5.2861,-5.2861,-5.2861,-5.2861,-5.2861,-5.2861,-5.2861,-5.2861,-5.2861,-5.2861,-5.2836,-5.2861,-5.2829,-5.2653,-5.2277,-5.18,-5.1222,-5.067,-5.0167,-4.9816,-4.9665,-4.959,-4.959,-4.959,-4.959,-4.959,-4.959,-4.959,-4.959,-4.949,-4.9238,-4.8937,-4.8586,-4.8134,-4.7481,-4.7355,-4.7054,-4.6853,-4.6803,-4.6728,-4.6753,-4.6778,-4.6778,-4.6627,-4.6627,-4.6577,-4.6476,-4.6376,-4.6326,-4.6326,-4.6326,-4.6326,-4.6326,-4.6326,-4.6326,-4.6326,-4.6326,-4.6326,-4.6326,-4.6326,-4.6326,-4.6326,-4.6326,-4.6326,-4.6326,-4.6326,-4.6326,-4.6326,-4.6326,-4.6326,-4.6326,-4.6326,-4.6326,-4.6326,-4.6301,-4.6326,-4.6326,-4.6301,-4.6225,-4.6075,-4.5773,-4.5648,-4.5447,-4.5447,-4.5447,-4.5397,-4.5397,-4.5397,-4.5171,-4.492,-4.4844,-4.4694,-4.4166,-4.3865,-4.3589,-4.3413,-4.3212,-4.3011,-4.2986,-4.2986,-4.2986,-4.2986,-4.2986,-4.2986,-4.2961,-4.2836,-4.271,-4.266,-4.2384,-4.2283,-5.5485,-5.5155,-5.3563,-5.2861,-5.2861,-5.2861,-5.2861,-5.2861,-5.2861,-5.2861,-5.2861,-5.2861,-5.2861,-5.2861,-5.2861,-5.2861,-5.2861,-5.2861,-5.2785,-5.2678,-5.2176,-5.1724,-5.1247,-5.0695,-5.0243,-4.9741,-4.969,-4.9741,-4.9665,-4.9615,-4.9615,-4.959,-4.959,-4.959,-4.959,-4.959,-4.9289,-4.8862,-4.8711,-4.8309,-4.7983,-4.7732,-4.7631,-4.7531,-4.728,-4.728,-4.7405,-4.7255,-4.7129,-4.7043,-4.7004,-4.6803,-4.6502,-4.6351,-4.6326,-4.6326,-4.6326,-4.6326,-4.6326,-4.6326,-4.6376,-4.6326,-4.6326,-4.6326,-4.6326,-4.6326,-4.6326,-4.6326,-4.6326,-4.6326,-4.6326,-4.6326,-4.6326,-4.6326,-4.6326,-4.6326,-4.6326,-4.6326,-4.6326,-4.6326,-4.6326,-4.6326,-4.6326,-4.6301,-4.6301,-4.6225,-4.6276,-4.62,-4.605,-4.5949,-4.5849,-4.5824,-4.5773,-4.5698,-4.5497,-4.5472,-4.5246,-4.4719,-4.4342,-4.4141,-4.3765,-4.3463,-4.3263,-4.3087,-4.2986,-4.2986,-4.2986,-4.2986,-4.2986,-4.2986,-4.2986,-4.2911,-4.2911,-4.2861,-4.2685,-5.5748,-5.3742,-5.311,-5.2861,-5.2861,-5.2861,-5.2861,-5.2861,-5.2861,-5.2861,-5.2861,-5.2861,-5.2861,-5.2861,-5.2861,-5.2861,-5.2861,-5.2861,-5.2861,-5.2854,-5.2402,-5.2076,-5.1674,-5.1272,-5.087,-5.0645,-5.0419,-5.0142,-5.0167,-4.9866,-4.964,-4.959,-4.959,-4.959,-4.959,-4.959,-4.9464,-4.9289,-4.8987,-4.8661,-4.846,-4.8159,-4.7983,-4.7983,-4.7757,-4.7782,-4.7983,-4.7782,-4.7682,-4.7606,-4.7481,-4.7129,-4.6828,-4.6652,-4.6376,-4.6351,-4.6351,-4.6527,-4.6728,-4.6828,-4.6652,-4.6502,-4.6401,-4.6426,-4.6326,-4.6326,-4.6326,-4.6351,-4.6401,-4.6401,-4.6326,-4.6326,-4.6326,-4.6326,-4.6326,-4.6326,-4.6326,-4.6326,-4.6326,-4.6326,-4.6326,-4.6326,-4.6326,-4.6326,-4.6326,-4.6326,-4.6326,-4.6326,-4.62,-4.62,-4.615,-4.615,-4.615,-4.615,-4.6075,-4.5924,-4.5723,-4.5296,-4.502,-4.4869,-4.4443,-4.389,-4.3614,-4.3463,-4.3212,-4.2986,-4.2986,-4.2986,-4.2986,-4.2986,-4.2986,-4.2986,-4.2961,-4.2961,-4.2911,-5.5446,-5.2998,-5.2861,-5.2861,-5.2861,-5.2861,-5.2861,-5.2861,-5.2861,-5.2861,-5.2861,-5.2861,-5.2861,-5.2861,-5.2861,-5.2861,-5.2861,-5.2861,-5.2861,-5.2879,-5.2603,-5.2302,-5.2026,-5.1749,-5.1398,-5.1247,-5.0996,-5.072,-5.0695,-5.0142,-4.9816,-4.964,-4.9615,-4.959,-4.959,-4.959,-4.959,-4.9464,-4.9238,-4.9113,-4.8962,-4.8761,-4.856,-4.8485,-4.8385,-4.8309,-4.8385,-4.8335,-4.8209,-4.8083,-4.7908,-4.7581,-4.7355,-4.7104,-4.6853,-4.6878,-4.6903,-4.7079,-4.7305,-4.7405,-4.723,-4.7004,-4.6878,-4.6853,-4.6853,-4.6979,-4.6979,-4.6903,-4.6677,-4.6602,-4.6577,-4.6552,-4.6376,-4.6376,-4.6401,-4.6401,-4.6401,-4.6401,-4.6426,-4.6401,-4.6376,-4.6351,-4.6326,-4.6326,-4.6326,-4.6326,-4.6326,-4.6326,-4.6326,-4.6326,-4.6326,-4.6326,-4.6326,-4.6276,-4.625,-4.6225,-4.6024,-4.5799,-4.5598,-4.5372,-4.502,-4.4468,-4.4166,-4.384,-4.3564,-4.3313,-4.3062,-4.2986,-4.2986,-4.2986,-4.2986,-4.2986,-4.2986,-4.2986,-4.2986,-5.4433,-5.2998,-5.2861,-5.2861,-5.2861,-5.2861,-5.2861,-5.2861,-5.2861,-5.2861,-5.2861,-5.2861,-5.2861,-5.2861,-5.2861,-5.2861,-5.2861,-5.2861,-5.2861,-5.2861,-5.2804,-5.2528,-5.2327,-5.2151,-5.195,-5.1599,-5.1322,-5.1297,-5.1222,-5.072,-5.0218,-4.9816,-4.9766,-4.969,-4.9665,-4.959,-4.959,-4.954,-4.9515,-4.9414,-4.9339,-4.9414,-4.9289,-4.9188,-4.9012,-4.9038,-4.9063,-4.9012,-4.8862,-4.8761,-4.8686,-4.836,-4.8109,-4.7908,-4.7908,-4.7857,-4.7782,-4.7807,-4.7933,-4.7933,-4.8033,-4.7958,-4.7958,-4.7958,-4.7757,-4.7606,-4.7556,-4.7431,-4.723,-4.7068,-4.6993,-4.6753,-4.6476,-4.6502,-4.6527,-4.6552,-4.6552,-4.6577,-4.6577,-4.6552,-4.6502,-4.6451,-4.6351,-4.6326,-4.6426,-4.6326,-4.6326,-4.6326,-4.6326,-4.6326,-4.6326,-4.6326,-4.6326,-4.6326,-4.6326,-4.6326,-4.625,-4.6024,-4.5849,-4.5623,-4.5321,-4.507,-4.4719,-4.4367,-4.3966,-4.3639,-4.3388,-4.3137,-4.2986,-4.2986,-4.2986,-4.2986,-4.2986,-4.2986,-4.2986,-5.4433,-5.2929,-5.2861,-5.2861,-5.2861,-5.2861,-5.2861,-5.2861,-5.2861,-5.2861,-5.2861,-5.2861,-5.2861,-5.2861,-5.2861,-5.2861,-5.2861,-5.2861,-5.2861,-5.2861,-5.2861,-5.2804,-5.2729,-5.2628,-5.2553,-5.2352,-5.2101,-5.185,-5.1749,-5.1297,-5.0745,-5.0268,-5.0117,-4.9941,-4.9741,-4.9615,-4.959,-4.959,-4.959,-4.959,-4.959,-4.959,-4.959,-4.949,-4.9414,-4.9464,-4.9439,-4.9439,-4.9314,-4.9314,-4.8962,-4.8611,-4.8586,-4.8159,-4.7908,-4.7908,-4.7933,-4.8033,-4.841,-4.851,-4.8636,-4.8912,-4.9012,-4.8535,-4.8234,-4.8008,-4.8033,-4.7958,-4.7682,-4.7506,-4.738,-4.7129,-4.6928,-4.6928,-4.7004,-4.7129,-4.7154,-4.7154,-4.7154,-4.7104,-4.7029,-4.6778,-4.6627,-4.6527,-4.6602,-4.6426,-4.6326,-4.6351,-4.6326,-4.6326,-4.6326,-4.6326,-4.6326,-4.6326,-4.6326,-4.6326,-4.6326,-4.625,-4.6075,-4.5949,-4.5849,-4.5598,-4.5271,-4.4844,-4.4367,-4.3991,-4.3664,-4.3489,-4.3338,-4.3037,-4.3011,-4.2986,-4.2986,-4.2986,-4.2986,-5.4433,-5.2998,-5.2861,-5.2861,-5.2861,-5.2861,-5.2861,-5.2861,-5.2861,-5.2861,-5.2861,-5.2861,-5.2861,-5.2861,-5.2861,-5.2861,-5.2861,-5.2861,-5.2861,-5.2861,-5.2861,-5.2836,-5.2861,-5.2861,-5.281,-5.2779,-5.2653,-5.2427,-5.2277,-5.1875,-5.1322,-5.0795,-5.0594,-5.0243,-4.9967,-4.9766,-4.959,-4.959,-4.959,-4.959,-4.959,-4.959,-4.959,-4.959,-4.959,-4.959,-4.959,-4.959,-4.959,-4.959,-4.9163,-4.9113,-4.9088,-4.8761,-4.8611,-4.8661,-4.8686,-4.8812,-4.9038,-4.9088,-4.9289,-4.949,-4.959,-4.9238,-4.8937,-4.8736,-4.8711,-4.8636,-4.8184,-4.7807,-4.7707,-4.7606,-4.7506,-4.7431,-4.7657,-4.7857,-4.7883,-4.7857,-4.7832,-4.7807,-4.7606,-4.733,-4.7129,-4.6979,-4.6853,-4.6778,-4.6652,-4.6552,-4.6426,-4.6326,-4.6326,-4.6326,-4.6326,-4.6326,-4.6326,-4.6326,-4.6326,-4.6326,-4.625,-4.6175,-4.6225,-4.6075,-4.5698,-4.5221,-4.4694,-4.4392,-4.4141,-4.394,-4.3765,-4.3489,-4.3237,-4.3237,-4.3162,-4.2986,-4.2986,-5.4299,-5.2861,-5.2861,-5.2861,-5.2861,-5.2861,-5.2861,-5.2861,-5.2861,-5.2861,-5.2861,-5.2861,-5.2861,-5.2861,-5.2861,-5.2861,-5.2861,-5.2861,-5.2861,-5.2861,-5.2861,-5.2861,-5.2861,-5.2861,-5.2861,-5.2861,-5.281,-5.2754,-5.2729,-5.2377,-5.185,-5.1297,-5.082,-5.0419,-5.0067,-4.9766,-4.9615,-4.959,-4.959,-4.959,-4.959,-4.959,-4.959,-4.959,-4.959,-4.959,-4.959,-4.959,-4.959,-4.959,-4.9565,-4.954,-4.9515,-4.9464,-4.9464,-4.9439,-4.9339,-4.9364,-4.9414,-4.9439,-4.949,-4.9565,-4.959,-4.9515,-4.9314,-4.9238,-4.9213,-4.9088,-4.8686,-4.8385,-4.8259,-4.8134,-4.8033,-4.8083,-4.8259,-4.8435,-4.851,-4.846,-4.8385,-4.8309,-4.8134,-4.7832,-4.7581,-4.7431,-4.7355,-4.723,-4.6979,-4.6803,-4.6627,-4.6451,-4.6351,-4.6351,-4.6326,-4.6326,-4.6326,-4.6326,-4.6326,-4.6326,-4.6326,-4.6301,-4.6276,-4.62,-4.6125,-4.5648,-4.5196,-4.492,-4.4669,-4.4443,-4.4217,-4.3991,-4.379,-4.3614,-4.3438,-4.3263,-4.3037,-5.3316,-5.2929,-5.2861,-5.2861,-5.2861,-5.2861,-5.2861,-5.2861,-5.2861,-5.2861,-5.2861,-5.2861,-5.2861,-5.2861,-5.2861,-5.2861,-5.2861,-5.2861,-5.2861,-5.2861,-5.2861,-5.2861,-5.2861,-5.2861,-5.2861,-5.2861,-5.2861,-5.2861,-5.281,-5.2653,-5.2226,-5.1423,-5.1021,-5.072,-5.0067,-4.9741,-4.969,-4.9615,-4.969,-4.964,-4.959,-4.959,-4.959,-4.959,-4.959,-4.959,-4.959,-4.959,-4.959,-4.959,-4.959,-4.959,-4.959,-4.959,-4.959,-4.959,-4.959,-4.959,-4.959,-4.959,-4.959,-4.959,-4.959,-4.959,-4.959,-4.959,-4.954,-4.9414,-4.9238,-4.8987,-4.8786,-4.8661,-4.8586,-4.8736,-4.8862,-4.8987,-4.9113,-4.9012,-4.8912,-4.8761,-4.8611,-4.8385,-4.8109,-4.7958,-4.7857,-4.7606,-4.7255,-4.7029,-4.6878,-4.6702,-4.6502,-4.6451,-4.6326,-4.6326,-4.6326,-4.6326,-4.6326,-4.6326,-4.6326,-4.6326,-4.6326,-4.6276,-4.62,-4.605,-4.5748,-4.5447,-4.5146,-4.4819,-4.4593,-4.4468,-4.4392,-4.4242,-4.4041,-4.3865,-4.3438,-5.2861,-5.2861,-5.2861,-5.2861,-5.2861,-5.2861,-5.2861,-5.2861,-5.2861,-5.2861,-5.2861,-5.2861,-5.2861,-5.2861,-5.2861,-5.2861,-5.2861,-5.2861,-5.2861,-5.2861,-5.2861,-5.2861,-5.2861,-5.2861,-5.2861,-5.2861,-5.2861,-5.2861,-5.2861,-5.2879,-5.2477,-5.1925,-5.1599,-5.0971,-5.0268,-5.0117,-4.9841,-4.9615,-4.9816,-4.9841,-4.969,-4.9615,-4.9615,-4.959,-4.959,-4.959,-4.959,-4.959,-4.959,-4.959,-4.959,-4.959,-4.959,-4.959,-4.959,-4.959,-4.959,-4.959,-4.959,-4.959,-4.959,-4.959,-4.959,-4.959,-4.959,-4.959,-4.959,-4.949,-4.9464,-4.9238,-4.9238,-4.9138,-4.9113,-4.9213,-4.9264,-4.9339,-4.9389,-4.9364,-4.9289,-4.9238,-4.9138,-4.9088,-4.8887,-4.8887,-4.8711,-4.8335,-4.7933,-4.7606,-4.738,-4.7054,-4.6803,-4.6627,-4.6602,-4.6401,-4.6326,-4.6326,-4.6326,-4.6326,-4.6326,-4.6326,-4.6326,-4.6326,-4.6276,-4.615,-4.6075,-4.5999,-4.5673,-4.5347,-4.5171,-4.507,-4.4995,-4.4895,-4.4694,-4.4468,-4.4116,-5.2861,-5.2861,-5.2861,-5.2861,-5.2861,-5.2861,-5.2861,-5.2861,-5.2861,-5.2861,-5.2861,-5.2861,-5.2861,-5.2861,-5.2861,-5.2861,-5.2861,-5.2861,-5.2861,-5.2861,-5.2861,-5.2861,-5.2861,-5.2861,-5.2861,-5.2861,-5.2861,-5.2861,-5.2861,-5.2904,-5.2829,-5.2628,-5.2076,-5.1348,-5.1147,-5.082,-5.0368,-5.0167,-5.0167,-5.0167,-4.9941,-4.964,-4.9615,-4.959,-4.959,-4.959,-4.959,-4.959,-4.959,-4.959,-4.959,-4.959,-4.959,-4.959,-4.959,-4.959,-4.959,-4.959,-4.959,-4.959,-4.959,-4.959,-4.959,-4.959,-4.959,-4.959,-4.959,-4.959,-4.9565,-4.9565,-4.954,-4.954,-4.954,-4.954,-4.9565,-4.959,-4.959,-4.959,-4.959,-4.9565,-4.9565,-4.954,-4.954,-4.954,-4.9339,-4.8987,-4.8686,-4.8435,-4.8083,-4.7631,-4.728,-4.7154,-4.7079,-4.6828,-4.6426,-4.6351,-4.6351,-4.6326,-4.6326,-4.6326,-4.6326,-4.6326,-4.6326,-4.6301,-4.6225,-4.6175,-4.62,-4.5999,-4.5849,-4.5598,-4.5598,-4.5497,-4.5271,-4.507,-4.4844,-5.2861,-5.2861,-5.2861,-5.2861,-5.2861,-5.2861,-5.2861,-5.2861,-5.2861,-5.2861,-5.2861,-5.2861,-5.2861,-5.2861,-5.2861,-5.2861,-5.2861,-5.2861,-5.2861,-5.2861,-5.2861,-5.2861,-5.2861,-5.2861,-5.2861,-5.2861,-5.2861,-5.2861,-5.2861,-5.2904,-5.2703,-5.2327,-5.2251,-5.1724,-5.1297,-5.1071,-5.1021,-5.0795,-5.0619,-5.0594,-5.0619,-5.0243,-4.9665,-4.959,-4.959,-4.959,-4.959,-4.959,-4.959,-4.959,-4.959,-4.959,-4.959,-4.959,-4.959,-4.959,-4.959,-4.959,-4.959,-4.959,-4.959,-4.959,-4.959,-4.959,-4.959,-4.959,-4.959,-4.959,-4.959,-4.959,-4.9565,-4.9565,-4.9565,-4.9565,-4.959,-4.959,-4.959,-4.959,-4.959,-4.959,-4.959,-4.9565,-4.9565,-4.9565,-4.9565,-4.9238,-4.8987,-4.8761,-4.8636,-4.8234,-4.7782,-4.7682,-4.7581,-4.7004,-4.6527,-4.6451,-4.6426,-4.6376,-4.6326,-4.6326,-4.6326,-4.6326,-4.6326,-4.6326,-4.6326,-4.6276,-4.6301,-4.6326,-4.625,-4.6024,-4.6125,-4.6075,-4.5849,-4.5623,-4.5397]},{"header":{"parameterUnit":"m.s-1","parameterCategory":1,"la1":31.0,"la2":29.5877,"lo1":-88.7671,"lo2":-86.6584,"dy":0.0162,"dx":0.0185,"nx":115,"ny":88,"refTime":"2024-06-15T18:00:00:Z","depth":0,"parameterNumber":3,"parameterNumberName":"V-component_of_WINDS"},"data":[0.0,0.0,0.0,0.0,0.0,0.0,0.0,0.0,0.0,0.0,0.0,0.0,0.0,0.0,0.0,0.0,0.0,0.0,0.0,0.0,0.0,0.0,0.0,0.0,0.0,0.0,0.0,0.0,0.0,0.0,0.0,0.0,0.0,0.0,0.0,0.0,0.0,0.0,0.0,0.0,0.0,0.0,0.0,0.0,0.0,0.0,0.0,0.0,0.0,0.0,0.0,0.0,0.0,0.0,0.0,0.0,0.0,0.0,0.0,0.0,0.0,0.0,0.0,0.0,0.0,0.0,0.0,0.0,0.0,0.0,0.0,0.0,0.0,0.0,0.0,0.0,0.0,0.0,0.0,0.0,0.0,0.0,0.0,0.0,0.0,0.0,0.0,0.0,0.0,0.0,0.0,0.0,0.0,0.0,0.0,0.0,0.0,0.0,0.0,0.0,0.0,0.0,0.0,0.0,0.0,0.0,0.0,0.0,0.0,0.0,0.0,0.0,0.0,0.0,0.0,0.0,0.0,0.0,0.0,0.0,0.0,0.0,0.0,0.0,0.0,0.0,0.0,0.0,0.0,0.0,0.0,0.0,0.0,0.0,0.0,0.0,0.0,0.0,0.0,0.0,0.0,0.0,0.0,0.0,0.0,0.0,0.0,0.0,0.0,0.0,0.0,0.0,0.0,0.0,0.0,0.0,0.0,0.0,0.0,0.0,0.0,0.0,0.0,0.0,0.0,0.0,0.0,0.0,0.0,0.0,0.0,0.0,0.0,0.0,0.0,0.0,0.0,0.0,0.0,0.0,0.0,0.0,0.0,0.0,0.0,0.0,0.0,0.0,0.0,0.0,0.0,0.0,0.0,0.0,0.0,0.0,0.0,0.0,0.0,0.0,0.0,0.0,0.0,0.0,0.0,0.0,0.0,0.0,0.0,0.0,0.0,0.0,0.0,0.0,0.0,0.0,0.0,0.0,0.0,0.0,0.0,0.0,0.0,0.0,0.0,0.0,0.0,0.0,0.0,0.0,0.0,0.0,0.0,0.0,0.0,0.0,0.0,0.0,0.0,0.0,0.0,0.0,0.0,0.0,0.0,0.0,0.0,0.0,0.0,0.0,0.0,0.0,0.0,0.0,0.0,0.0,0.0,0.0,0.0,0.0,0.0,0.0,0.0,0.0,0.0,0.0,0.0,0.0,0.0,0.0,0.0,0.0,0.0,0.0,0.0,0.0,0.0,0.0,0.0,0.0,0.0,0.0,0.0,0.0,0.0,0.0,0.0,0.0,0.0,0.0,0.0,0.0,0.0,0.0,0.0,0.0,0.0,0.0,0.0,0.0,0.0,0.0,0.0,0.0,0.0,0.0,0.0,0.0,0.0,0.0,0.0,0.0,0.0,0.0,0.0,0.0,0.0,0.0,0.0,0.0,0.0,0.0,0.0,0.0,0.0,0.0,0.0,0.0,0.0,0.0,0.0,0.0,0.0,0.0,0.0,0.0,0.0,0.0,0.0,0.0,0.0,0.0,0.0,0.0,0.0,0.0,0.0,0.0,0.0,0.0,0.0,0.0,0.0,0.0,0.0,0.0,0.0,0.0,0.0,0.0,0.0,0.0,0.0,0.0,0.0,0.0,0.0,0.0,0.0,0.0,0.0,0.0,0.0,0.0,0.0,0.0,0.0,0.0,0.0,0.0,0.0,0.0,0.0,0.0,0.0,0.0,0.0,0.0,0.0,0.0,0.0,0.0,0.0,0.0,0.0,0.0,0.0,0.0,0.0,0.0,0.0,0.0,0.0,0.0,0.0,0.0,0.0,0.0,0.0,0.0,0.0,0.0,0.0,0.0,0.0,0.0,0.0,0.0,0.0,0.0,0.0,0.0,0.0,0.0,0.0,0.0,0.0,0.0,0.0,0.0,0.0,0.0,0.0,0.0,0.0,0.0,0.0,0.0,0.0,0.0,0.0,0.0,0.0,0.0,0.0,0.0,0.0,0.0,0.0,0.0,0.0,0.0,0.0,0.0,0.0,0.0,0.0,0.0,0.0,0.0,0.0,0.0,0.0,0.0,0.0,0.0,0.0,0.0,0.0,0.0,0.0,0.0,0.0,0.0,0.0,0.0,0.0,0.0,0.0,0.0,0.0,0.0,0.0,0.0,0.0,0.0,0.0,0.0,0.0,0.0,0.0,0.0,0.0,0.0,0.0,0.0,0.0,0.0,0.0,0.0,0.0,0.0,0.0,0.0,0.0,0.0,0.0,0.0,0.0,0.0,0.0,0.0,0.0,0.0,0.0,0.0,0.0,0.0,0.0,0.0,0.0,0.0,0.0,0.0,0.0,0.0,0.0,0.0,0.0,0.0,0.0,0.0,0.0,0.0,0.0,0.0,0.0,0.0,0.0,0.0,0.0,0.0,0.0,0.0,0.0,0.0,0.0,0.0,0.0,0.0,0.0,0.0,0.0,0.0,0.0,0.0,0.0,0.0,0.0,0.0,0.0,0.0,0.0,0.0,0.0,0.0,0.0,0.0,0.0,0.0,0.0,0.0,0.0,0.0,0.0,0.0,0.0,0.0,0.0,0.0,0.0,0.0,0.0,0.0,0.0,0.0,0.0,0.0,0.0,0.0,0.0,0.0,0.0,0.0,0.0,0.0,0.0,0.0,0.0,0.0,0.0,0.0,0.0,0.0,0.0,0.0,0.0,0.0,0.0,0.0,0.0,0.0,0.0,0.0,0.0,0.0,0.0,0.0,0.0,0.0,0.0,0.0,0.0,0.0,0.0,0.0,0.0,0.0,0.0,0.0,0.0,0.0,0.0,0.0,0.0,0.0,0.0,0.0,0.0,0.0,0.0,0.0,0.0,0.0,0.0,0.0,0.0,0.0,0.0,0.0,0.0,0.0,0.0,0.0,0.0,0.0,0.0,0.0,0.0,0.0,0.0,0.0,0.0,0.0,0.0,0.0,0.0,0.0,0.0,0.0,0.0,0.0,0.0,0.0,0.0,0.0,0.0,0.0,0.0,0.0,0.0,0.0,0.0,0.0,0.0,0.0,0.0,0.0,0.0,0.0,0.0,0.0,0.0,0.0,0.0,0.0,0.0,0.0,0.0,0.0,0.0,0.0,0.0,0.0,0.0,0.0,0.0,0.0,0.0,0.0,0.0,0.0,0.0,0.0,0.0,0.0,0.0,0.0,0.0,0.0,0.0,0.0,0.0,0.0,0.0,0.0,0.0,0.0,0.0,0.0,0.0,0.0,0.0,0.0,0.0,0.0,0.0,0.0,0.0,0.0,0.0,0.0,0.0,0.0,0.0,0.0,0.0,0.0,0.0,0.0,0.0,0.0,0.0,0.0,0.0,0.0,0.0,0.0,0.0,0.0,0.0,0.0,0.0,0.0,0.0,0.0,0.0,0.0,0.0,0.0,0.0,0.0,0.0,0.0,0.0,0.0,0.0,0.0,0.0,0.0,0.0,0.0,0.0,0.0,0.0,0.0,0.0,0.0,0.0,0.0,0.0,0.0,0.0,0.0,0.0,0.0,0.0,0.0,0.0,0.0,0.0,0.0,0.0,0.0,0.0,0.0,0.0,0.0,0.0,0.0,0.0,0.0,0.0,0.0,0.0,0.0,0.0,0.0,0.0,0.0,0.0,0.0,0.0,0.0,0.0,0.0,0.0,0.0,0.0,0.0,0.0,0.0,0.0,0.0,0.0,0.0,0.0,0.0,0.0,0.0,0.0,0.0,0.0,0.0,0.0,0.0,0.0,0.0,0.0,0.0,0.0,0.0,0.0,0.0,0.0,0.0,0.0,0.0,0.0,0.0,0.0,0.0,0.0,0.0,0.0,0.0,0.0,0.0,0.0,0.0,0.0,0.0,0.0,0.0,0.0,0.0,0.0,0.0,0.0,0.0,0.0,0.0,0.0,0.0,0.0,0.0,0.0,0.0,0.0,0.0,0.0,0.0,0.0,0.0,0.0,0.0,0.0,0.0,0.0,0.0,0.0,0.0,0.0,0.0,0.0,0.0,0.0,0.0,0.0,0.0,0.0,0.0,0.0,0.0,0.0,0.0,0.0,0.0,0.0,0.0,0.0,0.0,0.0,0.0,0.0,0.0,0.0,0.0,0.0,0.0,0.0,0.0,0.0,0.0,0.0,0.0,0.0,0.0,0.0,0.0,0.0,0.0,0.0,0.0,0.0,0.0,0.0,0.0,0.0,0.0,0.0,0.0,0.0,0.0,0.0,0.0,0.0,0.0,0.0,0.0,0.0,0.0,0.0,0.0,0.0,0.0,1.65,0.0,0.0,0.0,0.0,0.0,0.0,0.0,0.0,0.0,0.0,0.0,0.0,0.0,0.0,0.0,0.0,0.0,0.0,0.0,0.0,0.0,0.0,0.0,0.0,0.0,0.0,0.0,0.0,0.0,0.0,0.0,0.0,0.0,0.0,0.0,0.0,0.0,0.0,0.0,0.0,0.0,0.0,0.0,0.0,0.0,0.0,0.0,0.0,0.0,0.0,0.0,0.0,0.0,0.0,0.0,0.0,0.0,0.0,0.0,0.0,0.0,0.0,0.0,0.0,0.0,0.0,0.0,0.0,0.0,0.0,0.0,0.0,0.0,0.0,0.0,0.0,0.0,0.0,0.0,0.0,0.0,0.0,0.0,0.0,0.0,0.0,0.0,0.0,0.0,0.0,0.0,0.0,0.0,0.0,0.0,0.0,0.0,0.0,0.0,0.0,0.0,0.0,0.0,0.0,0.0,0.0,0.0,0.0,0.0,0.0,1.65,1.65,1.65,1.65,1.6522,0.0,0.0,0.0,0.0,0.0,0.0,0.0,0.0,0.0,0.0,0.0,0.0,0.0,0.0,0.0,0.0,0.0,0.0,0.0,0.0,0.0,0.0,0.0,0.0,0.0,0.0,0.0,0.0,0.0,0.0,0.0,0.0,0.0,0.0,0.0,0.0,0.0,0.0,0.0,0.0,0.0,0.0,0.0,0.0,0.0,0.0,0.0,0.0,0.0,0.0,0.0,0.0,0.0,0.0,0.0,0.0,0.0,0.0,0.0,0.0,0.0,0.0,0.0,0.0,0.0,0.0,0.0,0.0,0.0,0.0,0.0,0.0,0.0,0.0,0.0,0.0,0.0,0.0,0.0,0.0,0.0,0.0,0.0,0.0,0.0,0.0,0.0,0.0,0.0,0.0,0.0,0.0,0.0,0.0,0.0,0.0,0.0,0.0,0.0,0.0,0.0,0.0,0.0,0.0,0.0,0.0,0.0,0.0,0.0,0.0,0.0,0.0,1.7275,1.725,1.725,0.0,0.0,0.0,0.0,0.0,0.0,0.0,0.0,0.0,0.0,0.0,0.0,0.0,0.0,0.0,0.0,0.0,0.0,0.0,0.0,0.0,0.0,0.0,0.0,0.0,0.0,0.0,0.0,0.0,0.0,0.0,0.0,0.0,0.0,0.0,0.0,0.0,0.0,0.0,0.0,0.0,0.0,0.0,0.0,0.0,0.0,0.0,0.0,0.0,0.0,0.0,0.0,0.0,0.0,0.0,0.0,0.0,0.0,0.0,0.0,0.0,0.0,0.0,0.0,0.0,0.0,0.0,0.0,0.0,0.0,0.0,0.0,0.0,0.0,0.0,0.0,0.0,0.0,0.0,0.0,0.0,0.0,0.0,0.0,0.0,0.0,0.0,0.0,0.0,0.0,0.0,0.0,0.0,0.0,0.0,0.0,0.0,0.0,0.0,0.0,0.0,0.0,0.0,0.0,0.0,0.0,0.0,0.0,0.0,0.0,1.7428,1.9434,1.9484,0.0,1.956,0.0,0.0,0.0,0.0,0.0,0.0,0.0,0.0,0.0,0.0,0.0,0.0,0.0,0.0,0.0,0.0,0.0,0.0,0.0,0.0,0.0,0.0,0.0,0.0,0.0,0.0,0.0,0.0,0.0,0.0,0.0,0.0,0.0,0.0,0.0,0.0,0.0,0.0,0.0,0.0,0.0,0.0,0.0,0.0,0.0,0.0,0.0,0.0,0.0,0.0,0.0,0.0,0.0,0.0,0.0,0.0,0.0,0.0,0.0,0.0,0.0,0.0,0.0,0.0,0.0,0.0,0.0,0.0,0.0,0.0,0.0,0.0,0.0,0.0,0.0,0.0,0.0,0.0,0.0,0.0,0.0,0.0,0.0,0.0,0.0,0.0,0.0,0.0,0.0,0.0,0.0,0.0,0.0,0.0,0.0,0.0,0.0,0.0,0.0,0.0,0.0,0.0,0.0,0.0,0.0,0.0,0.0,0.0,0.0,0.0,0.0,1.9786,1.9811,2.0245,0.0,0.0,0.0,0.0,0.0,0.0,0.0,0.0,0.0,0.0,0.0,0.0,0.0,0.0,0.0,0.0,0.0,0.0,0.0,0.0,0.0,0.0,0.0,0.0,0.0,0.0,0.0,0.0,0.0,0.0,0.0,0.0,0.0,0.0,0.0,0.0,0.0,0.0,0.0,0.0,0.0,0.0,0.0,0.0,0.0,0.0,0.0,0.0,0.0,0.0,0.0,0.0,0.0,0.0,0.0,0.0,0.0,0.0,0.0,0.0,0.0,0.0,0.0,0.0,0.0,0.0,0.0,0.0,0.0,0.0,0.0,0.0,0.0,0.0,0.0,0.0,0.0,0.0,0.0,0.0,0.0,0.0,0.0,0.0,0.0,0.0,0.0,0.0,0.0,0.0,0.0,0.0,0.0,0.0,0.0,0.0,0.0,0.0,0.0,0.0,0.0,0.0,0.0,0.0,0.0,0.0,0.0,0.0,0.0,0.0,1.9583,0.0,2.1302,2.159,2.1782,2.1908,0.0,0.0,0.0,0.0,0.0,0.0,0.0,0.0,0.0,0.0,0.0,0.0,0.0,0.0,0.0,0.0,0.0,0.0,0.0,0.0,0.0,0.0,0.0,0.0,0.0,0.0,0.0,0.0,0.0,0.0,0.0,0.0,0.0,0.0,0.0,0.0,0.0,0.0,0.0,0.0,0.0,0.0,0.0,0.0,0.0,0.0,0.0,0.0,0.0,0.0,0.0,0.0,0.0,0.0,0.0,0.0,0.0,0.0,0.0,0.0,0.0,0.0,0.0,0.0,0.0,0.0,0.0,0.0,0.0,0.0,0.0,0.0,0.0,0.0,0.0,0.0,0.0,0.0,0.0,0.0,0.0,0.0,0.0,0.0,0.0,0.0,0.0,0.0,0.0,0.0,0.0,0.0,0.0,0.0,0.0,0.0,0.0,0.0,0.0,0.0,0.0,0.0,0.0,0.0,0.0,0.0,0.0,0.0,0.0,2.1694,2.2468,2.5081,2.603,2.4889,0.0,0.0,0.0,0.0,0.0,0.0,0.0,0.0,0.0,0.0,0.0,0.0,0.0,0.0,0.0,0.0,0.0,0.0,0.0,0.0,0.0,0.0,0.0,0.0,0.0,0.0,0.0,0.0,0.0,0.0,0.0,0.0,0.0,0.0,0.0,0.0,0.0,0.0,0.0,0.0,0.0,0.0,0.0,0.0,0.0,0.0,0.0,0.0,0.0,0.0,0.0,0.0,0.0,0.0,0.0,0.0,0.0,0.0,0.0,0.0,0.0,0.0,0.0,0.0,0.0,0.0,0.0,0.0,0.0,0.0,0.0,0.0,0.0,0.0,0.0,0.0,0.0,0.0,0.0,0.0,0.0,0.0,0.0,0.0,0.0,0.0,0.0,0.0,0.0,0.0,0.0,0.0,0.0,0.0,0.0,0.0,0.0,0.0,0.0,0.0,0.0,0.0,0.0,0.0,0.0,0.0,0.0,0.0,0.0,1.8832,2.0158,2.3498,2.8645,2.5372,2.3971,0.0,0.0,0.0,0.0,0.0,0.0,0.0,0.0,0.0,0.0,0.0,0.0,0.0,0.0,0.0,0.0,0.0,0.0,0.0,0.0,0.0,0.0,0.0,0.0,0.0,0.0,0.0,0.0,0.0,0.0,0.0,0.0,0.0,0.0,0.0,0.0,0.0,0.0,0.0,0.0,0.0,0.0,0.0,0.0,0.0,0.0,0.0,0.0,0.0,0.0,0.0,0.0,0.0,0.0,0.0,0.0,0.0,0.0,0.0,0.0,0.0,0.0,0.0,0.0,0.0,0.0,0.0,0.0,0.0,0.0,0.0,0.0,0.0,0.0,0.0,0.0,0.0,0.0,0.0,0.0,0.0,0.0,0.0,0.0,0.0,0.0,0.0,0.0,0.0,0.0,0.0,0.0,0.0,0.0,0.0,0.0,0.0,0.0,0.0,0.0,0.0,0.0,0.0,0.0,0.0,0.0,0.0,0.0,0.0,1.9136,0.0,2.527,0.0,2.5583,2.3937,0.0,0.0,0.0,0.0,0.0,0.0,0.0,0.0,0.0,0.0,0.0,0.0,0.0,0.0,0.0,0.0,0.0,0.0,0.0,0.0,0.0,0.0,0.0,0.0,0.0,0.0,0.0,0.0,0.0,0.0,0.0,0.0,0.0,0.0,0.0,0.0,0.0,0.0,0.0,0.0,0.0,0.0,0.0,0.0,0.0,0.0,0.0,0.0,0.0,0.0,0.0,0.0,0.0,0.0,0.0,0.0,0.0,0.0,0.0,0.0,0.0,0.0,0.0,0.0,0.0,0.0,0.0,0.0,0.0,0.0,0.0,0.0,0.0,0.0,0.0,0.0,0.0,0.0,0.0,0.0,0.0,0.0,0.0,0.0,0.0,0.0,0.0,0.0,0.0,0.0,0.0,0.0,0.0,0.0,0.0,0.0,0.0,0.0,0.0,0.0,0.0,0.0,0.0,0.0,0.0,0.0,0.0,0.0,1.9779,2.4355,2.7057,2.7797,2.643,2.7041,2.5076,0.0,0.0,0.0,0.0,0.0,0.0,0.0,0.0,0.0,0.0,0.0,0.0,0.0,0.0,0.0,0.0,0.0,0.0,0.0,0.0,0.0,0.0,0.0,0.0,0.0,0.0,0.0,0.0,0.0,0.0,0.0,0.0,0.0,0.0,0.0,0.0,0.0,0.0,0.0,0.0,0.0,0.0,0.0,0.0,0.0,0.0,0.0,0.0,0.0,0.0,0.0,0.0,0.0,0.0,0.0,0.0,0.0,0.0,0.0,0.0,0.0,0.0,0.0,0.0,0.0,0.0,0.0,0.0,0.0,0.0,0.0,0.0,0.0,0.0,0.0,0.0,0.0,0.0,0.0,0.0,0.0,0.0,0.0,0.0,0.0,0.0,0.0,0.0,0.0,0.0,0.0,0.0,0.0,0.0,0.0,0.0,0.0,0.0,0.0,0.0,0.0,0.0,0.0,0.0,0.0,0.0,0.0,0.0,0.0,2.4115,2.6241,2.8626,3.0955,2.7527,2.5644,0.0,0.0,0.0,0.0,0.0,0.0,0.0,0.0,0.0,0.0,0.0,0.0,0.0,0.0,0.0,0.0,0.0,0.0,0.0,0.0,0.0,0.0,0.0,0.0,0.0,0.0,0.0,0.0,0.0,0.0,0.0,0.0,0.0,0.0,0.0,0.0,0.0,0.0,0.0,0.0,0.0,0.0,0.0,0.0,0.0,0.0,0.0,0.0,0.0,0.0,0.0,0.0,0.0,0.0,0.0,0.0,0.0,0.0,0.0,0.0,0.0,0.0,0.0,0.0,0.0,0.0,0.0,0.0,0.0,0.0,0.0,0.0,0.0,0.0,0.0,0.0,0.0,0.0,0.0,0.0,0.0,0.0,0.0,0.0,0.0,0.0,0.0,0.0,0.0,0.0,0.0,0.0,0.0,0.0,0.0,0.0,0.0,0.0,0.0,0.0,0.0,0.0,0.0,0.0,0.0,0.0,0.0,0.0,0.0,2.7541,2.903,3.0717,3.2547,2.8601,2.6542,2.6632,0.0,0.0,0.0,0.0,0.0,0.0,0.0,0.0,0.0,0.0,0.0,0.0,0.0,0.0,0.0,0.0,0.0,0.0,0.0,0.0,0.0,0.0,0.0,0.0,0.0,0.0,0.0,0.0,0.0,0.0,0.0,0.0,0.0,0.0,0.0,0.0,0.0,0.0,0.0,0.0,0.0,0.0,0.0,0.0,0.0,0.0,0.0,0.0,0.0,0.0,0.0,0.0,0.0,0.0,0.0,0.0,0.0,0.0,0.0,0.0,0.0,0.0,0.0,0.0,0.0,0.0,0.0,0.0,0.0,0.0,0.0,0.0,0.0,0.0,0.0,0.0,0.0,0.0,0.0,0.0,0.0,0.0,0.0,0.0,0.0,0.0,0.0,0.0,0.0,0.0,0.0,0.0,0.0,0.0,0.0,0.0,0.0,0.0,0.0,0.0,0.0,0.0,0.0,0.0,0.0,0.0,0.0,0.0,3.3638,3.4743,3.4114,3.1683,3.0423,2.7944,0.0,0.0,0.0,0.0,0.0,0.0,0.0,0.0,0.0,0.0,0.0,0.0,0.0,0.0,0.0,0.0,0.0,0.0,0.0,0.0,0.0,0.0,0.0,0.0,0.0,0.0,0.0,0.0,0.0,0.0,0.0,0.0,0.0,0.0,0.0,0.0,0.0,0.0,0.0,0.0,0.0,0.0,0.0,0.0,0.0,0.0,0.0,0.0,0.0,0.0,0.0,0.0,0.0,0.0,0.0,0.0,0.0,0.0,0.0,0.0,0.0,0.0,0.0,0.0,0.0,0.0,0.0,0.0,0.0,0.0,0.0,0.0,0.0,0.0,0.0,0.0,0.0,0.0,0.0,0.0,0.0,0.0,0.0,0.0,0.0,0.0,0.0,0.0,0.0,0.0,0.0,0.0,0.0,0.0,0.0,0.0,0.0,0.0,0.0,0.0,0.0,0.0,0.0,0.0,0.0,0.0,0.0,0.0,0.0,3.5614,3.7836,3.8222,3.6501,3.3391,3.0582,0.0,0.0,0.0,0.0,0.0,0.0,0.0,0.0,0.0,0.0,0.0,0.0,0.0,0.0,0.0,0.0,0.0,0.0,0.0,0.0,0.0,0.0,0.0,0.0,0.0,0.0,0.0,0.0,0.0,0.0,0.0,0.0,0.0,0.0,0.0,0.0,0.0,0.0,0.0,0.0,0.0,0.0,0.0,0.0,0.0,0.0,0.0,0.0,0.0,0.0,0.0,0.0,0.0,0.0,0.0,0.0,0.0,0.0,0.0,0.0,0.0,0.0,0.0,0.0,0.0,0.0,0.0,0.0,0.0,0.0,0.0,0.0,0.0,0.0,0.0,0.0,0.0,0.0,0.0,0.0,0.0,0.0,0.0,0.0,0.0,0.0,0.0,0.0,0.0,0.0,0.0,0.0,0.0,0.0,0.0,0.0,0.0,0.0,0.0,0.0,0.0,0.0,0.0,0.0,0.0,0.0,0.0,0.0,3.4167,3.8482,4.0307,4.0883,4.0104,3.6237,3.2736,0.0,0.0,0.0,0.0,0.0,0.0,0.0,0.0,0.0,0.0,0.0,0.0,0.0,0.0,0.0,0.0,0.0,0.0,0.0,0.0,0.0,0.0,0.0,0.0,0.0,0.0,0.0,0.0,0.0,0.0,0.0,0.0,0.0,0.0,0.0,0.0,0.0,0.0,0.0,0.0,0.0,0.0,0.0,0.0,0.0,0.0,0.0,0.0,0.0,0.0,0.0,0.0,0.0,0.0,0.0,0.0,0.0,0.0,0.0,0.0,0.0,0.0,0.0,0.0,0.0,0.0,0.0,0.0,0.0,0.0,0.0,0.0,0.0,0.0,0.0,0.0,0.0,0.0,0.0,0.0,0.0,0.0,0.0,0.0,0.0,0.0,0.0,0.0,0.0,0.0,0.0,0.0,0.0,0.0,0.0,0.0,0.0,0.0,0.0,0.0,0.0,0.0,0.0,0.0,0.0,0.0,0.0,0.0,3.6728,4.1294,4.2201,4.256,4.241,3.8667,3.4472,0.0,0.0,0.0,0.0,0.0,0.0,0.0,0.0,0.0,0.0,0.0,0.0,0.0,0.0,0.0,0.0,0.0,0.0,0.0,0.0,0.0,0.0,0.0,0.0,0.0,0.0,0.0,0.0,0.0,0.0,0.0,0.0,0.0,0.0,0.0,0.0,0.0,0.0,0.0,0.0,0.0,0.0,0.0,0.0,0.0,0.0,0.0,0.0,0.0,0.0,0.0,0.0,0.0,0.0,0.0,0.0,0.0,0.0,0.0,0.0,0.0,0.0,0.0,0.0,0.0,0.0,0.0,0.0,0.0,0.0,0.0,0.0,0.0,0.0,0.0,0.0,0.0,0.0,0.0,0.0,0.0,0.0,0.0,0.0,0.0,0.0,0.0,0.0,0.0,0.0,0.0,0.0,0.0,0.0,0.0,0.0,0.0,0.0,0.0,0.0,0.0,0.0,0.0,0.0,0.0,0.0,0.0,0.0,3.8179,4.1324,4.303,4.3658,4.312,3.929,3.5549,0.0,0.0,0.0,0.0,0.0,0.0,0.0,0.0,0.0,0.0,0.0,0.0,0.0,0.0,0.0,0.0,0.0,0.0,0.0,0.0,0.0,0.0,0.0,0.0,0.0,0.0,0.0,0.0,0.0,0.0,0.0,0.0,0.0,0.0,0.0,0.0,0.0,0.0,0.0,0.0,0.0,0.0,0.0,0.0,0.0,0.0,0.0,0.0,2.1156,0.0,0.0,0.0,0.0,0.0,0.0,0.0,0.0,0.0,0.0,0.0,0.0,0.0,0.0,0.0,0.0,0.0,0.0,0.0,0.0,0.0,0.0,0.0,0.0,0.0,0.0,0.0,0.0,0.0,0.0,0.0,0.0,0.0,0.0,0.0,0.0,0.0,0.0,0.0,0.0,0.0,0.0,0.0,0.0,0.0,0.0,0.0,0.0,0.0,0.0,0.0,0.0,0.0,0.0,0.0,0.0,0.0,0.0,0.0,3.9325,4.2632,4.3778,4.4287,4.4107,4.0427,3.6656,0.0,0.0,0.0,0.0,0.0,0.0,0.0,0.0,0.0,0.0,0.0,0.0,0.0,0.0,0.0,0.0,0.0,0.0,0.0,0.0,0.0,0.0,0.0,0.0,0.0,0.0,0.0,0.0,0.0,0.0,0.0,0.0,0.0,0.0,0.0,0.0,0.0,0.0,0.0,0.0,0.0,0.0,0.0,0.0,0.0,0.0,0.0,0.0,0.0,0.0,0.0,0.0,0.0,0.0,0.0,0.0,0.0,0.0,0.0,0.0,0.0,0.0,0.0,0.0,0.0,0.0,0.0,0.0,0.0,0.0,0.0,0.0,0.0,0.0,0.0,0.0,0.0,0.0,0.0,0.0,0.0,0.0,0.0,0.0,0.0,0.0,0.0,0.0,0.0,0.0,0.0,0.0,0.0,0.0,0.0,0.0,0.0,0.0,0.0,0.0,0.0,0.0,0.0,0.0,0.0,0.0,0.0,3.6574,4.0283,4.4246,4.4466,4.4736,4.5214,4.1474,3.7644,3.3933,0.0,0.0,0.0,0.0,0.0,0.0,0.0,0.0,0.0,0.0,0.0,0.0,0.0,0.0,0.0,0.0,0.0,0.0,0.0,0.0,0.0,0.0,0.0,0.0,0.0,0.0,0.0,0.0,0.0,0.0,0.0,0.0,0.0,0.0,0.0,0.0,0.0,0.0,2.0397,2.2104,0.0,0.0,0.0,0.0,0.0,0.0,0.0,0.0,2.2553,0.0,0.0,0.0,0.0,0.0,0.0,0.0,0.0,0.0,0.0,0.0,0.0,0.0,0.0,0.0,0.0,0.0,0.0,0.0,0.0,0.0,0.0,0.0,0.0,0.0,0.0,0.0,0.0,0.0,0.0,0.0,0.0,0.0,0.0,0.0,0.0,0.0,0.0,0.0,0.0,0.0,0.0,0.0,0.0,0.0,0.0,0.0,0.0,0.0,0.0,0.0,0.0,0.0,0.0,0.0,0.0,3.6422,3.8286,4.1083,4.5005,4.5125,4.5185,4.5185,4.1474,3.8093,3.519,0.0,0.0,0.0,0.0,0.0,0.0,0.0,0.0,0.0,0.0,0.0,0.0,0.0,0.0,0.0,0.0,0.0,0.0,0.0,0.0,0.0,0.0,0.0,0.0,0.0,0.0,0.0,0.0,0.0,0.0,0.0,0.0,0.0,0.0,0.0,0.0,0.0,0.0,0.0,2.5046,2.6207,0.0,0.0,0.0,0.0,0.0,0.0,0.0,0.0,2.3191,0.0,0.0,0.0,0.0,0.0,0.0,0.0,0.0,0.0,0.0,0.0,0.0,0.0,0.0,0.0,0.0,0.0,0.0,0.0,0.0,0.0,0.0,0.0,0.0,0.0,0.0,0.0,0.0,0.0,0.0,0.0,0.0,0.0,0.0,0.0,0.0,0.0,0.0,0.0,0.0,0.0,0.0,0.0,0.0,0.0,0.0,0.0,0.0,0.0,0.0,0.0,0.0,0.0,0.0,0.0,3.5636,3.9201,4.2342,4.5155,4.5274,4.5125,4.4706,4.0307,3.6836,0.0,0.0,0.0,0.0,0.0,0.0,0.0,0.0,0.0,0.0,0.0,0.0,0.0,0.0,0.0,0.0,0.0,0.0,0.0,0.0,0.0,0.0,0.0,0.0,0.0,0.0,0.0,0.0,0.0,0.0,0.0,0.0,0.0,0.0,0.0,0.0,0.0,0.0,0.0,0.0,2.5764,2.6961,2.7949,0.0,0.0,0.0,0.0,0.0,0.0,2.4537,2.3999,0.0,0.0,0.0,0.0,0.0,0.0,0.0,0.0,0.0,0.0,0.0,0.0,0.0,0.0,0.0,0.0,0.0,0.0,0.0,0.0,0.0,0.0,0.0,0.0,0.0,0.0,0.0,0.0,0.0,0.0,0.0,0.0,0.0,0.0,0.0,0.0,0.0,0.0,0.0,0.0,0.0,0.0,0.0,0.0,0.0,0.0,0.0,0.0,0.0,0.0,0.0,0.0,0.0,0.0,0.0,3.3802,3.9009,4.2753,4.4864,4.5221,4.4975,4.4257,3.9619,3.5938,0.0,0.0,0.0,0.0,0.0,0.0,0.0,0.0,0.0,0.0,0.0,0.0,0.0,0.0,0.0,0.0,0.0,0.0,0.0,0.0,0.0,0.0,0.0,0.0,0.0,0.0,0.0,0.0,0.0,0.0,0.0,0.0,0.0,0.0,0.0,0.0,0.0,0.0,0.0,0.0,0.0,2.8068,2.8846,2.8543,0.0,0.0,0.0,0.0,2.6727,2.6219,0.0,0.0,0.0,0.0,0.0,0.0,0.0,0.0,0.0,0.0,0.0,0.0,0.0,0.0,0.0,0.0,0.0,0.0,0.0,0.0,0.0,0.0,0.0,0.0,0.0,0.0,0.0,0.0,0.0,0.0,0.0,0.0,0.0,0.0,0.0,0.0,0.0,0.0,0.0,0.0,0.0,0.0,0.0,0.0,0.0,0.0,0.0,0.0,0.0,0.0,0.0,0.0,0.0,0.0,0.0,0.0,3.1857,3.6703,4.0706,4.3646,4.4815,4.4975,4.4287,4.0905,3.7315,0.0,0.0,0.0,0.0,0.0,0.0,0.0,0.0,0.0,0.0,0.0,0.0,0.0,0.0,0.0,0.0,0.0,0.0,0.0,0.0,0.0,0.0,0.0,0.0,0.0,0.0,0.0,0.0,0.0,0.0,0.0,0.0,0.0,0.0,0.0,0.0,0.0,0.0,0.0,0.0,0.0,3.145,3.0432,3.0223,3.0103,0.0,0.0,2.9535,3.0644,3.0225,0.0,0.0,0.0,0.0,0.0,0.0,0.0,0.0,0.0,0.0,0.0,0.0,0.0,0.0,0.0,0.0,0.0,0.0,0.0,0.0,0.0,0.0,0.0,0.0,0.0,0.0,0.0,0.0,0.0,0.0,0.0,0.0,0.0,0.0,0.0,0.0,0.0,0.0,0.0,0.0,0.0,0.0,0.0,0.0,0.0,0.0,0.0,0.0,0.0,0.0,0.0,0.0,0.0,0.0,0.0,2.8254,3.1573,3.7444,4.1497,4.3517,4.4731,4.4796,4.3708,3.9858,3.6058,0.0,0.0,0.0,0.0,0.0,0.0,0.0,0.0,0.0,0.0,0.0,0.0,0.0,0.0,0.0,0.0,0.0,0.0,0.0,0.0,0.0,0.0,0.0,0.0,0.0,0.0,0.0,0.0,0.0,0.0,0.0,0.0,0.0,0.0,0.0,0.0,0.0,0.0,0.0,0.0,0.0,0.0,3.2108,3.2198,0.0,0.0,0.0,3.13,3.1481,0.0,0.0,0.0,0.0,0.0,0.0,0.0,0.0,0.0,0.0,0.0,0.0,0.0,0.0,0.0,0.0,0.0,0.0,0.0,0.0,0.0,0.0,0.0,0.0,0.0,0.0,0.0,0.0,0.0,0.0,0.0,0.0,0.0,0.0,0.0,0.0,0.0,0.0,0.0,0.0,0.0,0.0,0.0,0.0,0.0,0.0,0.0,0.0,0.0,0.0,0.0,0.0,0.0,0.0,0.0,0.0,0.0,3.1329,3.7929,4.2052,4.3382,4.4621,4.4676,4.3329,3.9379,0.0,0.0,0.0,0.0,0.0,0.0,0.0,0.0,0.0,0.0,0.0,0.0,0.0,0.0,0.0,0.0,0.0,0.0,0.0,0.0,0.0,0.0,0.0,0.0,0.0,0.0,0.0,1.7699,0.0,0.0,0.0,0.0,0.0,0.0,0.0,0.0,0.0,0.0,0.0,0.0,0.0,0.0,3.1869,3.3514,3.3903,3.3933,0.0,0.0,3.2946,3.2766,3.2168,3.0971,0.0,0.0,0.0,0.0,0.0,0.0,0.0,0.0,0.0,0.0,0.0,0.0,0.0,0.0,0.0,0.0,0.0,0.0,0.0,0.0,0.0,0.0,0.0,0.0,0.0,0.0,0.0,0.0,0.0,0.0,0.0,0.0,0.0,0.0,0.0,0.0,0.0,0.0,0.0,0.0,0.0,0.0,0.0,0.0,0.0,0.0,0.0,0.0,0.0,0.0,0.0,0.0,0.0,0.0,0.0,3.073,3.7039,4.1112,4.2703,4.4412,4.4676,4.3389,4.0666,3.6772,0.0,0.0,0.0,0.0,0.0,0.0,0.0,0.0,0.0,0.0,0.0,0.0,0.0,0.0,0.0,0.0,0.0,0.0,0.0,0.0,0.0,0.0,0.0,0.0,0.0,0.0,0.0,0.0,0.0,0.0,0.0,0.0,0.0,0.0,0.0,0.0,0.0,0.0,0.0,0.0,0.0,3.3605,3.4324,3.4951,3.5759,0.0,0.0,3.4803,3.5968,3.5579,3.4053,3.0821,0.0,0.0,0.0,0.0,0.0,0.0,0.0,0.0,0.0,0.0,0.0,0.0,0.0,0.0,0.0,0.0,0.0,0.0,0.0,0.0,0.0,0.0,0.0,0.0,0.0,0.0,0.0,0.0,0.0,0.0,0.0,0.0,0.0,0.0,0.0,0.0,0.0,0.0,0.0,0.0,0.0,0.0,0.0,0.0,0.0,0.0,0.0,0.0,0.0,0.0,0.0,0.0,0.0,2.7806,3.1085,3.6664,4.0541,4.2648,4.3629,4.4091,4.3988,4.1384,3.7913,0.0,0.0,0.0,0.0,0.0,0.0,0.0,0.0,0.0,0.0,0.0,0.0,0.0,0.0,0.0,0.0,0.0,0.0,0.0,0.0,0.0,0.0,0.0,0.0,0.0,0.0,0.0,0.0,2.012,2.0468,2.0348,0.0,0.0,0.0,0.0,0.0,0.0,0.0,0.0,0.0,0.0,3.4622,3.6058,3.6507,0.0,0.0,3.6776,3.6327,3.6477,3.5938,3.4502,3.157,3.0582,0.0,0.0,0.0,0.0,0.0,0.0,0.0,0.0,0.0,0.0,0.0,0.0,0.0,0.0,0.0,0.0,0.0,0.0,0.0,0.0,0.0,0.0,0.0,0.0,0.0,0.0,0.0,0.0,0.0,0.0,0.0,0.0,0.0,0.0,0.0,0.0,0.0,0.0,0.0,0.0,0.0,0.0,0.0,0.0,0.0,0.0,0.0,0.0,0.0,0.0,0.0,0.0,2.8209,3.1612,3.6582,4.036,4.2887,4.3227,4.3714,4.4176,4.1773,3.8631,0.0,0.0,0.0,0.0,0.0,0.0,0.0,0.0,0.0,0.0,0.0,0.0,0.0,0.0,0.0,0.0,0.0,0.0,0.0,0.0,0.0,0.0,0.0,0.0,0.0,0.0,0.0,0.0,2.1425,2.1365,2.0498,0.0,0.0,0.0,0.0,0.0,0.0,0.0,0.0,0.0,0.0,3.5699,3.7434,3.7704,3.7793,3.7973,3.7494,3.7045,3.6806,3.6237,3.4981,3.2497,0.0,0.0,0.0,0.0,0.0,0.0,0.0,0.0,0.0,0.0,0.0,0.0,0.0,0.0,0.0,0.0,0.0,0.0,0.0,0.0,0.0,0.0,0.0,0.0,0.0,0.0,0.0,0.0,0.0,0.0,2.355,0.0,0.0,0.0,0.0,0.0,0.0,0.0,0.0,0.0,0.0,0.0,0.0,0.0,0.0,0.0,0.0,0.0,0.0,0.0,0.0,0.0,0.0,2.841,3.2164,3.6746,4.0502,4.3318,4.3381,4.3672,4.4206,4.1773,3.8841,3.5549,0.0,0.0,0.0,0.0,0.0,0.0,0.0,0.0,0.0,0.0,0.0,0.0,0.0,0.0,0.0,0.0,0.0,0.0,0.0,0.0,0.0,0.0,0.0,0.0,0.0,0.0,2.1605,2.1695,2.1216,0.0,0.0,0.0,0.0,0.0,0.0,0.0,0.0,0.0,0.0,3.519,3.6926,3.8212,3.8362,3.8631,3.929,3.7793,3.6776,3.7345,3.6896,3.5789,0.0,0.0,0.0,0.0,0.0,0.0,0.0,0.0,0.0,0.0,0.0,0.0,0.0,0.0,0.0,0.0,0.0,0.0,0.0,0.0,0.0,0.0,0.0,0.0,0.0,0.0,0.0,3.0971,2.9507,0.0,0.0,0.0,0.0,0.0,0.0,0.0,0.0,0.0,0.0,0.0,3.5749,3.6245,0.0,0.0,0.0,0.0,0.0,0.0,0.0,0.0,0.0,0.0,0.0,0.0,2.9829,3.3269,3.6629,3.9618,4.215,4.215,4.2644,4.3642,4.2426,3.9595,3.5013,0.0,0.0,0.0,0.0,0.0,0.0,0.0,0.0,0.0,0.0,0.0,0.0,0.0,0.0,0.0,0.0,0.0,0.0,0.0,0.0,0.0,0.0,0.0,0.0,0.0,2.1635,0.0,0.0,0.0,0.0,0.0,0.0,0.0,0.0,0.0,0.0,0.0,3.3515,3.525,3.7195,3.8751,3.9589,3.9738,3.9978,0.0,0.0,0.0,0.0,0.0,0.0,0.0,0.0,0.0,0.0,0.0,0.0,0.0,0.0,3.3088,2.854,2.7924,2.7924,2.7486,0.0,0.0,0.0,0.0,0.0,0.0,0.0,0.0,0.0,0.0,0.0,0.0,0.0,0.0,3.513,0.0,3.2976,0.0,0.0,0.0,0.0,0.0,0.0,0.0,0.0,3.8649,3.9716,4.0367,4.0691,4.0339,0.0,3.7043,3.4159,0.0,0.0,0.0,0.0,0.0,0.0,0.0,0.0,3.1235,3.4148,3.691,3.9368,4.1462,4.1146,4.1698,4.33,4.2286,3.9865,3.6001,3.3724,3.124,0.0,0.0,0.0,0.0,0.0,0.0,0.0,0.0,0.0,0.0,0.0,0.0,0.0,0.0,0.0,0.0,0.0,0.0,0.0,0.0,0.0,0.0,0.0,2.2892,0.0,0.0,0.0,0.0,0.0,0.0,0.0,0.0,0.0,3.1928,3.4203,3.645,3.7973,3.929,4.0337,4.0995,0.0,0.0,0.0,0.0,0.0,0.0,0.0,3.914,3.8242,3.8153,3.8182,3.8123,3.8661,3.8931,3.8452,0.0,0.0,3.2826,3.1988,3.1898,3.142,3.1989,3.2537,3.2507,3.3035,3.3478,0.0,0.0,0.0,0.0,0.0,0.0,0.0,0.0,3.908,3.8721,0.0,3.7285,0.0,0.0,0.0,0.0,0.0,3.9188,0.0,0.0,4.4169,4.4471,4.1655,4.4115,4.4453,4.2782,4.2485,4.1467,3.9513,3.1116,0.0,0.0,0.0,0.0,0.0,0.0,3.2566,3.4776,3.7462,3.9751,4.139,4.0386,4.0974,4.3214,4.144,3.9792,3.8422,3.5968,3.3664,3.166,2.9146,0.0,0.0,0.0,0.0,0.0,0.0,0.0,0.0,0.0,0.0,0.0,0.0,0.0,0.0,0.0,0.0,0.0,0.0,0.0,0.0,2.3879,0.0,0.0,0.0,0.0,0.0,0.0,0.0,0.0,0.0,0.0,3.5132,3.7015,3.923,4.1115,0.0,0.0,0.0,0.0,4.1713,4.241,4.1961,4.1572,4.1504,4.1444,4.1025,3.9762,0.0,0.0,3.9858,4.0127,4.0157,3.8871,3.92,3.929,3.8542,3.7225,3.6447,3.6447,3.6443,3.6596,3.6626,3.6948,3.743,4.7578,0.0,0.0,0.0,0.0,4.3838,4.4975,4.7027,4.5933,4.4646,4.324,4.1983,0.0,0.0,0.0,0.0,0.0,0.0,4.2439,4.4418,4.5186,4.6003,4.6947,4.7733,4.7155,4.5319,4.3938,4.2131,3.9789,3.5649,3.2347,2.996,0.0,0.0,0.0,0.0,3.4073,3.5906,3.7913,3.9323,4.0262,4.0317,4.1098,4.2654,4.0839,3.9815,3.9792,3.8182,3.6181,3.3754,3.2018,0.0,0.0,0.0,0.0,0.0,0.0,0.0,0.0,0.0,0.0,0.0,0.0,0.0,0.0,0.0,0.0,0.0,0.0,0.0,2.4537,2.4664,2.5561,0.0,0.0,0.0,0.0,0.0,0.0,0.0,0.0,0.0,4.0599,4.1406,4.1953,0.0,0.0,4.3359,4.309,4.3299,4.3718,4.4347,4.4287,0.0,0.0,4.309,4.2791,4.288,4.3629,4.4047,4.3658,4.3389,4.306,4.2641,4.2013,4.1482,4.1242,3.9798,3.8661,3.8601,3.896,3.926,3.932,3.9798,4.0217,5.141,4.716,4.7333,4.7908,4.8566,4.7938,4.8775,5.0524,4.9793,4.8925,4.7967,4.6681,4.4706,4.2282,4.1474,0.0,0.0,0.0,4.4192,4.5817,4.5352,4.6044,4.759,4.7619,4.7041,4.5807,4.3967,4.2587,4.1597,3.8997,3.6652,3.4631,0.0,0.0,3.2139,3.4148,3.5805,3.701,3.8442,3.9371,3.9697,4.0068,4.0515,4.0919,3.9704,3.9344,4.0047,3.862,3.7144,3.5699,3.4143,3.1719,0.0,0.0,0.0,0.0,0.0,0.0,0.0,0.0,0.0,0.0,0.0,2.349,2.1425,0.0,0.0,0.0,2.3729,2.5525,2.8098,2.8218,0.0,0.0,0.0,0.0,0.0,0.0,0.0,4.0217,4.1504,4.2602,4.3958,4.4586,4.4676,4.4018,4.4377,4.4646,4.4485,0.0,4.4945,4.5603,4.5693,4.5574,4.5185,4.4725,4.4515,4.4676,4.5005,4.5274,4.5274,4.4945,4.4706,4.4616,4.4077,4.3579,4.3549,4.2521,4.1354,4.0427,4.0516,4.0786,4.0786,4.1153,4.1422,5.33,5.1735,5.2151,5.2218,5.2089,5.156,5.1369,5.1399,5.1404,5.1768,5.2187,5.0913,4.9673,4.8327,4.6531,0.0,4.4576,4.5705,4.5825,4.5238,4.5139,4.5139,4.5238,4.5316,4.5161,4.5007,4.3339,4.3045,4.3857,4.1104,3.9572,3.9149,3.6458,3.5232,3.5608,3.6734,3.7563,3.809,3.9145,3.9697,3.9672,3.9682,3.9396,3.8932,3.8271,3.8391,3.9355,3.7719,3.6888,3.7246,3.5609,3.3425,3.0791,0.0,0.0,0.0,0.0,0.0,0.0,0.0,0.0,0.0,0.0,0.0,0.0,0.0,0.0,0.0,2.7799,0.0,3.2527,3.3335,0.0,0.0,0.0,3.5998,3.8661,3.9948,4.1145,4.256,0.0,0.0,4.5544,4.6531,4.707,4.6429,4.5843,4.5663,4.619,4.5813,4.5693,4.6322,4.6339,4.6369,4.6279,4.6279,4.6112,4.5603,4.5454,4.5514,4.5514,4.5424,4.5394,4.5364,4.5334,4.5244,4.5274,4.5065,4.4556,4.2162,4.1713,4.1654,4.1594,4.1624,4.1654,5.5094,5.4244,5.3917,5.2883,5.1618,5.2172,5.2723,5.3175,5.3396,5.3294,5.2905,5.2097,5.099,4.9717,4.9239,4.8348,4.7223,4.6469,4.6301,4.655,4.5494,4.5599,4.6629,4.6629,4.582,4.4435,4.399,4.3154,4.1979,4.0866,4.028,4.0134,3.9045,3.7739,3.6307,3.7713,3.8542,3.8668,3.9346,3.9697,3.9672,3.8867,3.8563,3.8885,3.7086,3.6784,3.8122,3.6929,3.6347,3.6683,3.6267,3.4801,3.2168,3.0043,0.0,0.0,0.0,0.0,0.0,0.0,0.0,0.0,0.0,2.8999,2.4694,0.0,3.0046,0.0,3.115,3.3006,3.4622,3.537,0.0,0.0,3.9379,4.0217,4.3269,4.306,4.329,4.5185,4.5933,4.6471,4.677,4.71,4.7249,4.707,4.692,4.6711,4.6369,4.6651,4.689,4.701,4.704,4.707,4.704,4.707,4.701,4.686,4.68,4.683,4.683,4.6411,4.6082,4.6052,4.5633,4.5334,4.5334,4.5274,4.5125,4.4466,4.3958,4.3449,4.2961,4.2841,4.288,5.3948,5.3429,5.2783,5.1927,5.1009,5.2152,5.2824,5.316,5.3066,5.2833,5.2428,5.1504,5.05,4.9577,4.9288,4.88,4.7947,4.6377,4.5811,4.6056,4.4752,4.4535,4.5262,4.5316,4.4729,4.3689,4.3457,4.2744,4.1735,4.0902,4.0526,4.0501,3.9973,3.9094,3.7965,3.8768,3.9245,3.9245,3.9546,3.9697,3.9672,3.8592,3.8056,3.8114,3.618,3.5563,3.6346,3.5939,3.5733,3.5869,3.6246,3.5549,3.3484,3.1809,3.0103,0.0,0.0,0.0,0.0,0.0,0.0,0.0,0.0,0.0,0.0,0.0,3.3036,3.3544,3.513,3.6926,3.8811,3.9589,4.0816,4.291,4.2791,4.3419,4.5544,4.5095,4.5173,4.6591,4.677,4.689,4.7249,4.7309,4.7309,4.7309,4.7309,4.7189,4.686,4.71,4.7309,4.7309,4.7309,4.7309,4.7309,4.7309,4.7309,4.7309,4.7309,4.7309,4.7309,4.701,4.677,4.6741,4.6441,4.6172,4.6172,4.6202,4.6112,4.5783,4.5484,4.4975,4.4347,4.4197,4.4197,5.19,5.1348,5.0845,5.0569,5.0489,5.1622,5.2174,5.2243,5.184,5.1678,5.1513,5.0381,4.9472,4.8867,4.837,4.7988,4.7614,4.6009,4.5097,4.4907,4.37,4.3087,4.3087,4.3011,4.2986,4.2961,4.2539,4.2313,4.2288,4.1229,4.0701,4.0601,4.0074,3.9747,3.9697,3.9697,3.9697,3.9697,3.9697,3.9697,3.9697,3.8668,3.7789,3.7061,3.5479,3.455,3.4492,3.4935,3.5199,3.5165,3.6153,3.6178,3.5043,3.3664,3.2617,0.0,3.0672,0.0,0.0,0.0,0.0,0.0,0.0,0.0,0.0,3.4981,3.6297,3.7913,3.932,4.1047,4.323,4.4097,4.4796,4.5334,4.5514,4.5783,4.6381,4.6399,4.6681,4.7249,4.7309,4.7309,4.7309,4.7309,4.7309,4.7309,4.7309,4.7279,4.7279,4.7279,4.7309,4.7309,4.7309,4.7309,4.7309,4.7309,4.7309,4.7309,4.7309,4.7309,4.7309,4.7309,4.7279,4.7279,4.7219,4.7249,4.7309,4.7279,4.71,4.6531,4.6411,4.6142,4.5424,4.5185,4.5274,5.2452,5.195,5.1825,5.1272,5.0459,5.0689,5.0986,5.1329,5.1953,5.198,5.154,5.0795,5.0133,4.9527,4.9417,4.8437,4.691,4.6555,4.5749,4.4668,4.3954,4.3639,4.3614,4.3187,4.2986,4.2986,4.2861,4.2836,4.2866,4.2158,4.163,4.1125,4.0626,4.0149,3.9722,0.0,0.0,0.0,3.9697,3.9697,3.9672,3.9044,3.8015,3.6606,3.4901,0.0,3.3251,3.417,3.5059,3.5805,3.7251,0.0,0.0,0.0,0.0,0.0,0.0,0.0,0.0,0.0,0.0,0.0,3.8811,3.8003,3.6896,3.9738,4.1624,4.1542,4.309,4.4167,4.4137,4.5173,4.595,4.61,4.6591,4.698,4.71,4.71,4.7189,4.7279,4.7309,4.7309,4.7309,4.7309,4.7309,4.7309,4.7309,4.7309,4.7309,4.7309,4.7309,4.7309,4.7309,4.7309,4.7309,4.7309,4.7309,4.7309,4.7309,4.7309,4.7309,4.7309,4.7309,4.7309,4.7309,4.7309,4.7309,4.7309,4.7249,4.713,4.71,4.677,4.5544,4.5304,4.5274,5.2779,0.0,5.2226,5.1774,0.0,5.0645,5.0521,5.0713,5.0638,5.0134,4.9376,4.9059,4.8611,4.7999,4.7709,4.7419,4.7073,4.6078,4.5634,4.5577,4.4662,4.4066,4.379,4.3514,4.3237,4.2986,4.2986,4.2986,4.2961,4.2489,4.2062,4.1731,4.0927,4.0375,4.0099,3.9823,3.9697,3.9697,3.9697,3.9697,3.9672,3.9145,3.824,3.6857,3.5751,0.0,0.0,0.0,0.0,0.0,0.0,0.0,0.0,0.0,0.0,3.7409,3.6776,3.6985,3.8277,3.8727,3.9888,4.2132,4.294,4.2423,4.0449,4.2521,4.3988,4.4317,4.5244,4.5813,4.5813,4.6411,4.6758,4.683,4.71,4.7309,4.7309,4.7309,4.7309,4.7309,4.7309,4.7309,4.7309,4.7309,4.7309,4.7309,4.7309,4.7309,4.7309,4.7309,4.7309,4.7309,4.7309,4.7309,4.7309,4.7309,4.7309,4.7309,4.7309,4.7309,4.7309,4.7309,4.7309,4.7309,4.7309,4.7309,4.7309,4.7309,4.7309,4.7309,4.7309,4.713,4.6411,4.6292,4.6292,5.2861,5.2879,5.2452,5.2201,5.2026,5.1096,5.0594,5.0343,0.0,0.0,0.0,4.7168,4.6878,4.6426,4.5874,4.6221,4.7163,4.5621,4.5508,4.6543,4.5374,4.4543,4.4091,4.389,4.3564,4.3137,4.3037,4.2986,4.2961,4.2564,4.2288,4.2137,4.1153,4.0576,4.035,3.9923,3.9697,3.9697,3.9697,3.9697,3.9672,3.9245,3.8517,3.7362,3.6832,3.578,3.4293,3.6173,3.6879,3.6073,3.7829,3.9013,3.926,3.917,3.9649,4.0816,4.0935,4.1444,4.265,4.286,4.3489,4.4766,4.5843,4.5711,4.3947,4.4466,4.5304,4.6369,4.6501,4.6668,4.7249,4.7309,4.7309,4.7309,4.7309,4.7309,4.7309,4.7309,4.7309,4.7309,4.7309,4.7309,4.7309,4.7309,4.7309,4.7309,4.7309,4.7309,4.7309,4.7309,4.7309,4.7309,4.7309,4.7309,4.7309,4.7309,4.7309,4.7309,4.7309,4.7309,4.7309,4.7309,4.7309,4.7309,4.7309,4.7309,4.7309,4.7309,4.7309,4.7309,4.7309,4.7309,4.7309,4.7309,4.7249,5.2861,5.2904,5.2854,5.2553,5.2101,5.1925,5.1322,5.0343,4.9238,4.8686,4.8485,4.7556,4.7043,4.7004,4.6451,4.6295,4.6449,4.616,4.6169,4.6323,4.5691,4.5321,4.5196,4.4267,4.3765,4.3639,4.3187,4.2986,4.2961,4.2886,4.2635,4.2187,4.153,4.0752,3.9898,3.9722,3.9697,3.9697,3.9697,3.9697,3.9697,3.9622,3.9044,3.7939,3.7362,3.6533,3.5378,3.7007,3.8128,3.8504,4.0076,4.1481,4.2494,4.2073,4.2132,4.2851,4.2871,4.32,4.3988,4.4556,4.5454,4.6741,4.707,4.68,4.598,4.6501,4.698,4.716,4.713,4.7189,4.7309,4.7309,4.7309,4.7309,4.7309,4.7309,4.7309,4.7309,4.7309,4.7309,4.7309,4.7309,4.7309,4.7309,4.7309,4.7309,4.7309,4.7309,4.7309,4.7309,4.7309,4.7309,4.7309,4.7309,4.7309,4.7309,4.7309,4.7309,4.7309,4.7309,4.7309,4.7309,4.7309,4.7309,4.7309,4.7309,4.7309,4.7309,4.7309,4.7309,4.7309,4.7309,4.7309,4.7309,4.7309,5.2861,5.2861,5.2861,5.2779,5.2503,5.1925,5.1197,5.0368,4.9565,4.9038,4.8686,4.7908,4.7405,4.7018,4.6552,4.6326,4.6326,4.6326,4.6326,4.6301,4.605,4.5773,4.5472,4.4945,4.4392,4.3815,4.3539,4.3263,4.3011,4.2986,4.2836,4.2615,4.1756,4.0927,4.0174,3.9848,3.9697,3.9697,3.9697,3.9697,3.9697,3.9697,3.9295,3.8492,3.8216,3.7713,3.691,3.8251,3.8978,3.8908,4.0841,4.1937,4.1823,4.2824,4.3407,4.3395,4.4009,4.4706,4.5323,4.6022,4.6651,4.7249,4.7309,4.7189,4.689,4.713,4.7309,4.7309,4.7309,4.7309,4.7309,4.7309,4.7309,4.7309,4.7309,4.7309,4.7309,4.7309,4.7309,4.7309,4.7309,4.7309,4.7309,4.7309,4.7309,4.7309,4.7309,4.7309,4.7309,4.7309,4.7309,4.7309,4.7309,4.7309,4.7309,4.7309,4.7309,4.7309,4.7309,4.7309,4.7309,4.7309,4.7309,4.7309,4.7309,4.7309,4.7309,4.7309,4.7309,4.7309,4.7309,4.7309,4.7309,4.7309,4.7309,5.2861,5.2861,5.2861,5.2861,5.2829,5.1875,5.1147,5.0569,5.0017,4.9464,4.8937,4.836,4.7807,4.728,4.6728,4.6426,4.6326,4.6326,4.6326,4.6326,4.6326,4.61,4.5698,4.5547,4.502,4.4217,4.394,4.3564,4.3187,4.3037,4.2911,4.271,4.1932,4.1178,4.0526,4.0099,3.9823,3.9697,3.9697,3.9697,3.9697,3.9697,3.9496,3.9094,3.9044,3.8843,3.8466,3.928,3.9577,3.9333,4.0976,4.1675,4.1111,4.3098,4.4183,4.4008,4.506,4.5963,4.6459,4.701,4.7309,4.7309,4.7309,4.7309,4.7309,4.7309,4.7309,4.7309,4.7309,4.7309,4.7309,4.7309,4.7309,4.7309,4.7309,4.7309,4.7309,4.7309,4.7309,4.7309,4.7309,4.7309,4.7309,4.7309,4.7309,4.7309,4.7309,4.7309,4.7309,4.7309,4.7309,4.7309,4.7309,4.7309,4.7309,4.7309,4.7309,4.7309,4.7309,4.7309,4.7309,4.7309,4.7309,4.7309,4.7309,4.7309,4.7309,4.7309,4.7309,4.7309,4.7309,4.7309,4.7309,4.7309,4.7309,5.2861,5.2861,5.2861,5.2861,5.2785,5.2277,5.1699,5.1147,5.0569,5.0042,4.9464,4.8937,4.8385,4.7807,4.728,4.6778,4.6351,4.6326,4.6326,4.6326,4.6326,4.6276,4.6175,4.5723,4.5447,4.5171,4.4292,4.379,4.3664,4.3212,4.2735,4.2338,4.2162,4.153,4.0626,4.0475,4.0199,3.9722,3.9697,3.9697,3.9697,3.9697,3.9672,3.9622,3.9622,3.9597,3.9471,3.9649,3.9929,4.0425,4.0658,4.1254,4.2241,4.3612,4.4598,4.5129,4.6388,4.716,4.7146,4.7279,4.7266,4.7309,4.7266,4.7266,4.7309,4.7309,4.7309,4.7309,4.7309,4.7309,4.7309,4.7309,4.7309,4.7309,4.7309,4.7309,4.7309,4.7309,4.7309,4.7309,4.7309,4.7309,4.7309,4.7309,4.7309,4.7309,4.7309,4.7309,4.7309,4.7309,4.7309,4.7309,4.7309,4.7309,4.7309,4.7309,4.7309,4.7309,4.7309,4.7309,4.7309,4.7309,4.7309,4.7309,4.7309,4.7309,4.7309,4.7309,4.7309,4.7309,4.7309,4.7309,4.7309,4.7309,4.7309,5.2861,5.2861,5.2861,5.2861,5.2854,5.2327,5.18,5.1247,5.067,5.0117,4.9615,4.9364,4.8937,4.836,4.7531,4.7004,4.6778,4.6451,4.6326,4.6326,4.6326,4.6326,4.6276,4.61,4.5824,4.5447,4.4669,4.4116,4.3765,4.3237,4.2861,4.2665,4.2363,4.181,4.1053,4.0623,4.0249,3.9722,3.9697,3.9697,3.9697,3.9697,3.9697,3.9697,3.9697,3.9697,3.9697,3.9697,3.9828,4.0082,4.078,4.1051,4.088,4.2739,4.4003,4.4368,4.6211,4.6975,4.6211,4.6166,4.6477,4.7266,4.6594,4.6462,4.7222,4.7309,4.7309,4.7309,4.7309,4.7309,4.7309,4.7309,4.7309,4.7309,4.7309,4.7309,4.7309,4.7309,4.7309,4.7309,4.7309,4.7309,4.7309,4.7309,4.7309,4.7309,4.7309,4.7309,4.7309,4.7309,4.7309,4.7309,4.7309,4.7309,4.7309,4.7309,4.7309,4.7309,4.7309,4.7309,4.7309,4.7309,4.7309,4.7309,4.7309,4.7309,4.7309,4.7309,4.7309,4.7309,4.7309,4.7309,4.7309,4.7309,4.7309,5.2861,5.2861,5.2861,5.2861,5.2836,5.2503,5.2026,5.1473,5.0896,5.0343,4.9816,4.9665,4.9389,4.8887,4.8008,4.7431,4.7104,4.6728,4.6451,4.6326,4.6326,4.6326,4.6326,4.6301,4.61,4.5673,4.5146,4.4493,4.384,4.3413,4.3137,4.2936,4.264,4.2108,4.1555,4.1028,4.0475,3.9973,3.9798,3.9697,3.9697,3.9697,3.9697,3.9697,3.9697,3.9697,3.9697,3.9697,3.9697,3.9749,4.0618,4.0844,4.0364,4.1959,4.3266,4.4022,4.5389,4.6003,4.5389,4.5417,4.5779,4.6594,4.5869,4.5913,4.6931,4.6975,4.6975,4.7309,4.7309,4.7309,4.7309,4.7309,4.7309,4.7309,4.7309,4.7309,4.7309,4.7309,4.7309,4.7309,4.7309,4.7309,4.7309,4.7309,4.7309,4.7309,4.7309,4.7309,4.7309,4.7309,4.7309,4.7309,4.7309,4.7309,4.7309,4.7309,4.7309,4.7309,4.7309,4.7309,4.7309,4.7309,4.7309,4.7309,4.7309,4.7309,4.7309,4.7309,4.7309,4.7309,4.7309,4.7309,4.7309,4.7309,4.7309,5.2861,5.2861,5.2861,5.2861,5.2861,5.2879,5.2553,5.1975,5.1448,5.0896,5.0293,4.9816,4.9565,4.949,4.8887,4.8134,4.7255,4.7104,4.6803,4.6401,4.6326,4.6326,4.6326,4.6326,4.6301,4.615,4.5623,4.4844,4.384,4.3765,4.3489,4.2986,4.2911,4.269,4.2137,4.1555,4.1028,4.045,3.9998,3.9697,3.9697,3.9697,3.9697,3.9697,3.9697,3.9697,3.9697,3.9697,3.9697,3.9697,3.9826,4.0313,4.1319,4.164,4.2834,4.4656,4.4349,4.4303,4.5207,4.5298,4.5434,4.5598,4.5463,4.5913,4.7062,4.6462,4.6299,4.7193,4.7309,4.7309,4.7309,4.7309,4.7309,4.7309,4.7339,4.7369,4.7339,4.7489,4.7339,4.7339,4.7339,4.7309,4.7309,4.7309,4.7309,4.7309,4.7309,4.7309,4.7309,4.7309,4.7309,4.7309,4.7309,4.7309,4.7309,4.7309,4.7309,4.7309,4.7309,4.7309,4.7309,4.7309,4.7309,4.7309,4.7309,4.7309,4.7309,4.7309,4.7309,4.7309,4.7309,4.7309,4.7309,4.7309,4.7309,5.2861,5.2861,5.2861,5.2861,5.2861,5.2861,5.2603,5.2076,5.1523,5.0971,5.0393,4.9841,4.959,4.959,4.9389,4.8887,4.8159,4.7481,4.7029,4.6803,4.6476,4.6326,4.6326,4.6326,4.6326,4.6225,4.5748,4.4895,4.3915,4.379,4.3514,4.3062,4.2986,4.2766,4.2263,4.2037,4.143,4.0601,4.03,4.0049,3.9722,3.9697,3.9697,3.9697,3.9697,3.9697,3.9697,3.9697,3.9697,3.9697,3.9697,3.9878,4.0465,4.1936,4.2425,4.2084,4.4349,4.5463,4.4396,4.4163,4.4932,4.6299,4.507,4.5161,4.6726,4.6887,4.6814,4.7222,4.7309,4.7309,4.7309,4.7309,4.7309,4.7369,4.7668,4.7938,4.8027,4.8297,4.8416,4.7997,4.7608,4.7309,4.7399,4.7309,4.7309,4.7309,4.7309,4.7339,4.7309,4.7309,4.7399,4.7339,4.7309,4.7309,4.7309,4.7309,4.7309,4.7309,4.7309,4.7309,4.7309,4.7309,4.7309,4.7309,4.7309,4.7309,4.7309,4.7309,4.7309,4.7309,4.7309,4.7309,4.7309,4.7309,4.7309,5.2861,5.2861,5.2861,5.2861,5.2861,5.2861,5.2729,5.2327,5.18,5.1222,5.067,5.0117,4.9766,4.9615,4.959,4.9414,4.8962,4.8083,4.7556,4.733,4.6828,4.6577,4.6552,4.6401,4.6326,4.6276,4.5949,4.5246,4.4418,4.4141,4.379,4.3288,4.3087,4.2811,4.2514,4.2313,4.181,4.1128,4.0877,4.0526,4.0049,3.9948,3.9873,3.98,4.0083,4.0134,3.9749,3.9697,3.9697,3.9697,3.9697,3.9697,3.9929,4.2496,4.317,4.164,4.3693,4.5161,4.4256,4.374,4.4256,4.5824,4.5024,4.4978,4.6506,4.6682,4.6887,4.7106,4.6844,4.6682,4.6741,4.686,4.7184,4.7567,4.8207,4.864,4.867,4.903,4.906,4.8656,4.8267,4.8027,4.7938,4.7967,4.7967,4.7938,4.7938,4.7938,4.7938,4.7938,4.7938,4.7938,4.8027,4.7908,4.7818,4.7758,4.7489,4.7429,4.7309,4.7309,4.7309,4.7309,4.7309,4.7309,4.7309,4.7309,4.7309,4.7309,4.7309,4.7309,4.7309,4.7309,4.7309,4.7309,4.7309,5.2861,5.2861,5.2861,5.2861,5.2861,5.2861,5.2904,5.2779,5.2302,5.1699,5.1122,5.0619,5.0042,4.9665,4.959,4.9565,4.9414,4.8937,4.841,4.7908,4.738,4.7104,4.6968,4.6602,4.6351,4.6326,4.6301,4.5974,4.5347,4.4794,4.4267,4.3765,4.3212,4.2961,4.2992,4.2624,4.2322,4.2149,4.1771,4.1213,4.0576,4.0633,4.0329,3.9952,4.0971,4.1045,3.9878,3.9878,3.9929,3.9749,3.98,3.9724,4.0313,4.3122,4.4656,4.3266,4.2496,4.3074,4.4794,4.4116,4.3551,4.4163,4.4674,4.5161,4.5553,4.5644,4.6032,4.6682,4.6344,4.5644,4.5879,4.6434,4.7073,4.8075,4.8716,4.9299,4.9329,4.9329,4.9329,4.9299,4.9179,4.9269,4.9269,4.909,4.9,4.903,4.906,4.903,4.8955,4.897,4.9179,4.9179,4.897,4.8656,4.8446,4.8237,4.7848,4.7549,4.7399,4.7309,4.7309,4.7309,4.7309,4.7309,4.7309,4.7309,4.7309,4.7309,4.7309,4.7309,4.7309,4.7309,4.7309,4.7309,4.7309,5.2861,5.2861,5.2861,5.2861,5.2861,5.2861,5.2861,5.281,5.2352,5.1774,5.1247,5.067,5.0117,4.969,4.959,4.959,4.959,4.9389,4.9038,4.8485,4.7908,4.7481,4.7093,4.6954,4.6677,4.6376,4.6326,4.6024,4.5472,4.492,4.4342,4.379,4.3319,4.2986,4.3017,4.3672,4.4011,4.3594,4.3412,4.3048,4.2528,4.2034,4.1364,4.0589,4.1978,4.2301,4.1169,4.1838,4.1442,3.9878,4.0567,4.0969,4.1419,4.293,4.3882,4.3551,4.317,4.3122,4.3834,4.3834,4.3929,4.4489,4.4442,4.4581,4.5252,4.5463,4.5644,4.6166,4.6373,4.6874,4.7377,4.7969,4.7965,4.7144,4.8725,4.9942,4.9942,4.9942,4.9942,4.9883,4.9553,4.9329,4.9329,4.9359,4.9419,4.9419,4.9389,4.9389,4.9359,4.9449,4.9299,4.9299,4.9269,4.9344,4.9075,4.8745,4.8356,4.7848,4.7519,4.7339,4.7309,4.7309,4.7309,4.7309,4.7309,4.7309,4.7309,4.7309,4.7309,4.7309,4.7309,4.7309,4.7309,4.7309,4.7309,5.2861,5.2861,5.2861,5.2861,5.2861,5.2861,5.2861,5.2879,5.2578,5.2101,5.1548,5.0996,5.0419,4.9941,4.969,4.959,4.959,4.959,4.9414,4.9038,4.8485,4.7933,4.7405,4.6979,4.6677,4.6376,4.6326,4.6125,4.5773,4.5221,4.4644,4.4091,4.4102,4.3721,4.3321,4.4779,4.5394,4.4705,4.4942,4.4779,4.3935,4.3793,4.3143,4.2138,4.3775,4.4194,4.3291,4.4693,4.4232,4.1895,4.1936,4.2084,4.1789,4.317,4.3787,4.3122,4.3693,4.421,4.421,4.4303,4.4489,4.5115,4.507,4.4978,4.5508,4.5734,4.618,4.6577,4.6726,4.7259,4.7863,4.8529,4.8278,4.7304,4.9221,5.0448,5.0554,5.0554,5.0554,5.0541,5.0272,5.0032,4.9972,5.0002,5.0002,4.9972,4.9972,4.9972,5.0002,5.0032,4.9972,4.9972,5.0122,5.0032,4.9673,4.9284,4.8865,4.8267,4.7698,4.7459,4.7309,4.7309,4.7309,4.7309,4.7309,4.7309,4.7309,4.7309,4.7309,4.7309,4.7309,4.7309,4.7309,4.7309,4.7309,5.2861,5.2861,5.2861,5.2861,5.2861,5.2861,5.2861,5.2861,5.2904,5.2553,5.2026,5.1548,5.0946,5.0393,4.9916,4.969,4.959,4.959,4.9758,4.9645,4.9203,4.8611,4.8154,4.7354,4.6898,4.6661,4.6601,4.6516,4.6569,4.6272,4.5372,4.5106,4.5601,4.508,4.4277,4.5873,4.6682,4.5897,4.6627,4.6302,4.491,4.5672,4.5426,4.377,4.5929,4.6738,4.5914,4.7416,4.7257,4.4283,4.3847,4.3348,4.2609,4.4181,4.4481,4.2765,4.4209,4.5068,4.5379,4.5246,4.5263,4.543,4.6279,4.6756,4.5722,4.6382,4.7244,4.7703,4.7281,4.7102,4.7759,4.8283,4.8555,4.8711,5.0082,5.0986,5.1199,5.1169,5.1109,5.1139,5.1199,5.1169,5.102,5.102,5.105,5.105,5.102,5.096,5.096,5.09,5.1109,5.105,5.084,5.0661,5.0301,4.9883,4.9464,4.9075,4.8356,4.7818,4.7429,4.7339,4.7309,4.7309,4.7309,4.7309,4.7309,4.7309,4.7309,4.7309,4.7309,4.7309,4.7309,4.7309,4.7309,5.2861,5.2861,5.2861,5.2861,5.2861,5.2861,5.2861,5.2861,5.2861,5.2628,5.2151,5.195,5.1389,5.0469,5.0268,4.9992,4.9794,4.9654,5.0372,5.1016,4.9926,4.958,4.9482,4.8942,4.8335,4.7964,4.7886,4.7919,4.7983,4.8292,4.7977,4.6913,4.7324,4.6786,4.5736,4.7498,4.8418,4.8189,4.8389,4.8432,4.7906,4.7631,4.7003,4.5912,4.7643,4.808,4.7195,4.842,4.8515,4.667,4.6395,4.5749,4.46,4.5883,4.6281,4.554,4.4578,4.4948,4.6244,4.5978,4.5433,4.5461,4.6749,4.6724,4.5509,4.6583,4.7352,4.7758,4.8018,4.8725,4.9288,4.9567,4.988,5.0372,5.0922,5.1229,5.1229,5.1229,5.1229,5.1229,5.1229,5.1229,5.1229,5.1229,5.1229,5.1229,5.1229,5.1229,5.1229,5.1229,5.1229,5.1229,5.1109,5.1079,5.09,5.0435,5.0076,4.9853,4.9194,4.8386,4.7848,4.7399,4.7339,4.7309,4.7309,4.7309,4.7309,4.7309,4.7309,4.7309,4.7309,4.7309,4.7309,4.7309,4.7309,5.2861,5.2861,5.2861,5.2861,5.2861,5.2861,5.2861,5.2861,5.2861,5.2754,5.2452,5.2201,5.1975,5.1702,5.0821,5.0521,5.0588,5.06,5.1142,5.1803,5.1803,5.1303,5.0616,4.9884,4.925,4.9017,4.9301,4.9022,4.8824,4.969,4.9528,4.898,4.9406,4.8717,4.708,4.9215,4.996,4.9493,4.9679,4.9824,4.9202,4.9426,4.8769,4.8089,4.9204,4.9694,4.9198,4.974,4.9317,4.784,4.7337,4.6976,4.6373,4.6928,4.7119,4.6594,4.5937,4.6517,4.7024,4.7024,4.7024,4.7119,4.7882,4.7742,4.7355,4.7788,4.8265,4.8727,4.9324,4.9911,5.0435,5.0614,5.0794,5.1016,5.1229,5.1229,5.1229,5.1229,5.1229,5.1229,5.1229,5.1229,5.1229,5.1229,5.1229,5.1229,5.1229,5.1229,5.1229,5.1229,5.1229,5.1229,5.1229,5.1169,5.1169,5.084,5.0435,5.0196,4.9853,4.9045,4.8386,4.7728,4.7519,4.7489,4.7399,4.7309,4.7309,4.7309,4.7309,4.7309,4.7309,4.7309,4.7309,4.7309,4.7309,5.2861,5.2861,5.2861,5.2861,5.2861,5.2861,5.2861,5.2929,5.3247,5.311,5.2916,5.2784,5.3214,5.3486,5.2169,5.16,5.2236,5.2236,5.2271,5.2883,5.3462,5.37,5.223,5.0934,5.035,5.0347,5.0793,5.0322,5.0072,5.074,5.0847,5.0726,5.1542,5.081,4.9554,5.1011,5.109,5.0262,5.0714,5.0626,4.9999,5.0371,5.0217,4.9678,5.0235,5.0973,5.0909,5.1003,5.0135,4.7956,4.7822,4.7843,4.7738,4.7662,4.731,4.6761,4.7835,4.8495,4.8191,4.871,4.9067,4.9034,4.9218,4.9373,4.9127,4.9232,4.967,5.0041,5.0285,5.0554,5.099,5.1169,5.1169,5.1229,5.1229,5.1229,5.1229,5.1229,5.1229,5.1229,5.1229,5.1229,5.1229,5.1229,5.1229,5.1229,5.1229,5.1229,5.1229,5.1229,5.1229,5.1229,5.1229,5.1229,5.1229,5.1169,5.0794,5.0495,5.0242,4.9613,4.8985,4.8416,4.7967,4.7728,4.7549,4.7399,4.7309,4.7309,4.7309,4.7309,4.7309,4.7309,4.7309,4.7309,4.7309,5.2861,5.2861,5.2861,5.2861,5.2861,5.2861,5.2861,5.2998,5.4299,5.4055,5.3716,5.5511,5.5403,5.3794,5.4378,5.4644,5.3959,5.3937,5.391,5.4089,5.5502,5.5993,5.502,5.3483,5.2764,5.2826,5.3063,5.2721,5.2408,5.2934,5.3564,5.2598,5.2975,5.288,5.1632,5.217,5.2587,5.1732,5.1882,5.1566,5.0911,5.0976,5.1071,5.0698,5.1011,5.1182,5.1229,5.1229,5.0909,5.0513,5.0223,4.9728,4.9174,4.971,4.949,4.876,4.8769,4.9549,5.0035,4.9644,4.9272,4.9443,5.0105,5.033,4.9368,5.0194,5.0717,5.102,5.102,5.0973,5.1169,5.1229,5.1229,5.1229,5.1229,5.1229,5.1229,5.1229,5.1229,5.1229,5.1229,5.1229,5.1229,5.1229,5.1229,5.1229,5.1229,5.1229,5.1229,5.1229,5.1229,5.1229,5.1229,5.1229,5.1229,5.1229,5.1079,5.0823,5.0601,5.0361,4.9703,4.9015,4.8536,4.8057,4.7638,4.7519,4.7399,4.7309,4.7309,4.7309,4.7309,4.7309,4.7309,4.7309,4.7309,5.2861,5.2861,5.2861,5.2861,5.2861,5.2861,5.2861,5.3247,5.4675,5.4916,5.4742,5.6919,5.7327,5.6321,5.6292,5.596,5.592,5.5615,5.5907,5.6394,5.6905,5.7075,5.7411,5.5965,5.4884,5.4569,5.4778,5.4288,5.3745,5.4355,5.4692,5.4119,5.4437,5.406,5.3208,5.3456,5.3275,5.2737,5.2636,5.2336,5.1798,5.1678,5.1468,5.1289,5.1229,5.1229,5.1229,5.1229,5.1229,5.1229,5.1182,5.0917,5.0335,5.0793,5.0745,5.0335,5.0143,5.0383,5.0793,5.0603,5.0162,5.0095,5.087,5.0698,5.0383,5.087,5.1135,5.1229,5.1199,5.1229,5.1229,5.1229,5.1229,5.1229,5.1229,5.1229,5.1229,5.1229,5.1229,5.1229,5.1229,5.1229,5.1229,5.1229,5.1229,5.1229,5.1229,5.1229,5.1229,5.1229,5.1229,5.1229,5.1229,5.1229,5.1229,5.1229,5.1229,5.1109,5.102,5.087,5.0601,4.9823,4.9075,4.8566,4.8087,4.7638,4.7489,4.7399,4.7339,4.7309,4.7309,4.7309,4.7309,4.7309,4.7309,5.2861,5.2861,5.2861,5.2861,5.2861,5.2929,5.311,5.3606,5.5049,5.5945,5.6245,5.7787,5.9257,5.8962,5.7856,5.753,5.7571,5.745,5.7693,5.8386,5.7693,5.797,5.8301,5.7544,5.6493,5.5583,5.5936,5.5233,5.442,5.4517,5.5078,5.5128,5.5128,5.4779,5.4411,5.4341,5.4012,5.3414,5.3324,5.3025,5.2456,5.2336,5.2037,5.1558,5.1259,5.1229,5.1229,5.1229,5.1229,5.1229,5.1229,5.1229,5.1229,5.1229,5.1229,5.1152,5.1011,5.1058,5.1105,5.1135,5.1088,5.1229,5.1229,5.1229,5.1182,5.1105,5.1182,5.1229,5.1229,5.1229,5.1229,5.1229,5.1229,5.1229,5.1229,5.1229,5.1229,5.1229,5.1229,5.1229,5.1229,5.1229,5.1229,5.1229,5.1229,5.1229,5.1229,5.1229,5.1229,5.1229,5.1229,5.1229,5.1229,5.1229,5.1229,5.1229,5.1229,5.1229,5.1229,5.1199,5.1139,5.0631,4.9853,4.9105,4.8566,4.8147,4.7788,4.7728,4.7608,4.7429,4.7309,4.7309,4.7309,4.7309,4.7309,5.2861,5.2861,5.2861,5.2861,5.2861,5.2861,5.3674,5.5181,5.6726,5.756,5.8005,6.0718,6.0997,6.0061,6.0291,5.9803,5.8885,5.85,5.8689,5.9099,5.8634,5.8852,5.8798,5.8659,5.808,5.7642,5.7221,5.6408,5.5649,5.5406,5.5329,5.5239,5.5209,5.5059,5.4999,5.497,5.464,5.4132,5.4012,5.3683,5.3174,5.2905,5.2665,5.2037,5.1648,5.1439,5.1319,5.1259,5.1229,5.1229,5.1229,5.1259,5.1379,5.1379,5.1319,5.1229,5.1229,5.1229,5.1229,5.1229,5.1229,5.1229,5.1229,5.1229,5.1229,5.1229,5.1229,5.1229,5.1229,5.1229,5.1229,5.1229,5.1259,5.1229,5.1289,5.1319,5.1349,5.1319,5.1319,5.1349,5.1319,5.1229,5.1229,5.1229,5.1229,5.1229,5.1229,5.1229,5.1229,5.1229,5.1229,5.1229,5.1229,5.1229,5.1229,5.1229,5.1229,5.1229,5.1229,5.1229,5.1169,5.1169,5.0661,4.9912,4.9254,4.8775,4.8476,4.8117,4.7728,4.7459,4.7369,4.7309,4.7309,4.7309,4.7309,5.2861,5.2861,5.2861,5.2861,5.2861,5.2861,5.3878,5.5485,5.724,5.8509,5.981,6.1851,6.2523,6.1553,6.1011,6.0356,5.9428,5.9099,5.9099,5.9099,5.9099,5.9099,5.9099,5.9099,5.8949,5.8501,5.7932,5.7274,5.6615,5.6017,5.5718,5.5598,5.5388,5.5209,5.5179,5.5149,5.5029,5.473,5.467,5.4371,5.3713,5.3443,5.2965,5.2695,5.2426,5.2247,5.2217,5.2217,5.2247,5.2276,5.2247,5.2247,5.2217,5.2127,5.1887,5.1409,5.1289,5.1259,5.1229,5.1229,5.1229,5.1229,5.1259,5.1229,5.1229,5.1229,5.1289,5.1259,5.1229,5.1229,5.1229,5.1259,5.1379,5.1648,5.1738,5.1887,5.2037,5.1887,5.1768,5.1678,5.1468,5.1379,5.1229,5.1229,5.1229,5.1229,5.1229,5.1229,5.1229,5.1229,5.1229,5.1229,5.1229,5.1229,5.1229,5.1229,5.1229,5.1229,5.1229,5.1229,5.1229,5.1199,5.1092,5.0704,5.0122,4.9494,4.8716,4.8207,4.7848,4.7519,4.7459,4.7399,4.7339,4.7309,4.7309,5.2861,5.2929,5.3316,5.3359,5.3427,5.381,5.4942,5.6504,5.7977,5.9565,6.1079,6.2409,6.3079,6.272,6.1676,6.0505,5.9488,5.9368,5.9189,5.9308,5.9159,5.9099,5.9099,5.9099,5.9069,5.8949,5.859,5.7962,5.7304,5.6645,5.6406,5.6256,5.5807,5.5478,5.5478,5.5508,5.5388,5.5209,5.5179,5.488,5.4371,5.3773,5.3384,5.3324,5.3264,5.3114,5.3025,5.2995,5.2995,5.3025,5.3054,5.3114,5.3144,5.3174,5.2695,5.1828,5.1618,5.1618,5.1648,5.1708,5.1828,5.1858,5.1678,5.1648,5.1678,5.1828,5.1708,5.1618,5.1678,5.1738,5.1828,5.1678,5.1917,5.2217,5.2426,5.2546,5.2725,5.2695,5.2456,5.2217,5.1798,5.1528,5.1409,5.1229,5.1229,5.1229,5.1229,5.1229,5.1229,5.1229,5.1229,5.1229,5.1229,5.1229,5.1229,5.1229,5.1229,5.1229,5.1229,5.1229,5.1229,5.1229,5.1139,5.1033,5.0794,5.0152,4.9224,4.8536,4.8416,4.8207,4.7728,4.7459,4.7369,4.7309,4.7309,5.2861,5.3042,5.4474,5.5115,5.5314,5.6596,5.823,5.9659,5.9904,6.1198,6.2555,6.2933,6.3079,6.272,6.1732,6.1074,6.0535,5.9817,5.9518,5.9757,5.9428,5.9189,5.9099,5.9099,5.9099,5.9099,5.9009,5.862,5.7992,5.7304,5.7004,5.6944,5.6795,5.6615,5.6077,5.6047,5.5799,5.5329,5.5209,5.5149,5.497,5.4401,5.4132,5.3952,5.3623,5.3354,5.3443,5.3443,5.3384,5.3354,5.3264,5.3204,5.3174,5.3174,5.3193,5.2995,5.2965,5.2935,5.2815,5.2725,5.2695,5.2665,5.2755,5.2905,5.2755,5.2725,5.2725,5.2965,5.2875,5.2755,5.2695,5.2845,5.2995,5.3025,5.3084,5.3144,5.3264,5.3354,5.3114,5.2965,5.2636,5.2037,5.1678,5.1409,5.1229,5.1229,5.1229,5.1229,5.1229,5.1229,5.1229,5.1229,5.1229,5.1229,5.1229,5.1229,5.1229,5.1229,5.1229,5.1229,5.1229,5.1229,5.1229,5.1139,5.0943,5.0794,5.0122,4.9583,4.9284,4.8805,4.8297,4.7818,4.7369,4.7369,4.7459,5.4299,5.45,5.6141,5.6828,5.6984,5.7751,5.8918,6.0237,6.054,6.1437,6.2875,6.3137,6.2899,6.248,6.1852,6.1463,6.1044,6.0446,6.0116,6.0086,5.9787,5.9458,5.9159,5.9099,5.9099,5.9099,5.9099,5.9009,5.8501,5.8052,5.7693,5.7633,5.7334,5.6974,5.6705,5.6675,5.6316,5.5837,5.5418,5.5209,5.5119,5.491,5.476,5.476,5.4431,5.4281,5.4251,5.4311,5.4311,5.4311,5.4311,5.4341,5.4341,5.4341,5.4311,5.4311,5.4311,5.3952,5.3294,5.3234,5.3264,5.3204,5.3204,5.3114,5.3174,5.3234,5.3234,5.3144,5.3174,5.3204,5.3234,5.3174,5.3443,5.3593,5.3743,5.3982,5.4012,5.3832,5.3743,5.3623,5.3443,5.2905,5.2396,5.2127,5.1917,5.1768,5.1618,5.1409,5.1319,5.1229,5.1229,5.1229,5.1229,5.1229,5.1229,5.1229,5.1229,5.1229,5.1229,5.1229,5.1229,5.1229,5.1229,5.1229,5.1139,5.096,5.0704,5.0315,4.9793,4.9314,4.891,4.8506,4.8177,4.7938,4.7908,5.6076,5.618,5.7914,5.8634,5.8669,5.907,5.9994,6.1079,6.1198,6.191,6.2817,6.3049,6.278,6.2391,6.2181,6.1912,6.1642,6.1283,6.0954,6.0625,6.0206,5.9817,5.9488,5.9279,5.9099,5.9099,5.9099,5.9069,5.8949,5.865,5.8381,5.8351,5.8022,5.7573,5.7393,5.7304,5.7004,5.6158,5.5718,5.5418,5.5239,5.5179,5.5149,5.5179,5.5179,5.5209,5.5209,5.5119,5.5119,5.5089,5.5059,5.4999,5.5029,5.4999,5.4999,5.4999,5.497,5.47,5.4102,5.3862,5.3683,5.3683,5.3683,5.3862,5.3803,5.3683,5.3683,5.3832,5.3832,5.3803,5.3683,5.3743,5.4012,5.4311,5.4461,5.479,5.497,5.461,5.4401,5.4371,5.4221,5.4012,5.3533,5.3054,5.2725,5.2426,5.2097,5.1738,5.1648,5.1618,5.1738,5.1887,5.1917,5.1828,5.1588,5.1528,5.1439,5.1289,5.1289,5.1229,5.1229,5.1229,5.1229,5.1229,5.1229,5.1139,5.099,5.0584,5.0255,4.9853,4.9494,4.9344,4.9105,4.8775,4.8476,5.7815,5.7977,5.9598,6.0359,6.0419,6.2116,6.2759,6.2701,6.2817,6.2875,6.3079,6.3137,6.3019,6.2839,6.248,6.245,6.281,6.1642,6.1523,6.1343,6.0775,6.0176,5.9757,5.9428,5.9099,5.9099,5.9099,5.9099,5.9099,5.9009,5.8949,5.8979,5.868,5.8471,5.8201,5.7902,5.7393,5.6615,5.6107,5.5718,5.5418,5.5239,5.5209,5.5209,5.5209,5.5209,5.5209,5.5209,5.5209,5.5209,5.5209,5.5209,5.5209,5.5209,5.5209,5.5209,5.5209,5.4999,5.476,5.473,5.494,5.4999,5.491,5.476,5.47,5.491,5.4999,5.482,5.467,5.479,5.488,5.5029,5.482,5.485,5.488,5.497,5.5119,5.5119,5.497,5.5059,5.494,5.464,5.4491,5.4012,5.3503,5.3174,5.2785,5.2426,5.2546,5.2576,5.2725,5.2845,5.2875,5.2695,5.2217,5.2097,5.1977,5.1708,5.1528,5.1349,5.1229,5.1229,5.1229,5.1229,5.1229,5.1229,5.1199,5.096,5.0614,5.0315,5.0122,4.9972,4.9703,4.9344,4.9164,5.8606,5.9688,6.1407,6.2116,6.2175,6.2817,6.3137,6.3137,6.3137,6.3137,6.3137,6.3137,6.3137,6.3047,6.2899,6.281,6.3019,6.263,6.2301,6.1822,6.1194,6.0535,6.0057,5.9548,5.9099,5.9099,5.9099,5.9099,5.9099,5.9099,5.9099,5.9099,5.9099,5.9009,5.871,5.8351,5.7812,5.7334,5.6615,5.6068,5.5837,5.5359,5.5209,5.5209,5.5209,5.5209,5.5209,5.5209,5.5209,5.5209,5.5239,5.5209,5.5209,5.5209,5.5209,5.5209,5.5209,5.5209,5.5209,5.5209,5.5209,5.5209,5.5179,5.5209,5.5209,5.5209,5.5209,5.5179,5.5209,5.5209,5.5179,5.5149,5.5119,5.5179,5.5209,5.5209,5.5209,5.5209,5.5179,5.5149,5.5149,5.5059,5.4999,5.491,5.4401,5.3922,5.3503,5.3204,5.3354,5.3414,5.3503,5.3533,5.3563,5.3354,5.2905,5.2695,5.2546,5.2157,5.1798,5.1588,5.1439,5.1229,5.1229,5.1229,5.1229,5.1229,5.1229,5.1229,5.105,5.078,5.0661,5.0571,5.0272,4.9912,4.9763,5.9413,6.0661,6.235,6.3137,6.3137,6.3137,6.3137,6.3137,6.3137,6.3137,6.3137,6.3137,6.3137,6.3137,6.3137,6.3107,6.3137,6.2959,6.275,6.2301,6.1732,6.1044,6.0386,5.9787,5.9368,5.9189,5.9099,5.9099,5.9099,5.9099,5.9099,5.9099,5.9099,5.9099,5.8979,5.868,5.8321,5.7902,5.7363,5.6585,5.6436,5.6077,5.5837,5.5777,5.5688,5.5718,5.5748,5.5748,5.5568,5.5568,5.5508,5.5388,5.5269,5.5209,5.5209,5.5209,5.5209,5.5209,5.5209,5.5209,5.5209,5.5209,5.5209,5.5209,5.5209,5.5209,5.5209,5.5209,5.5209,5.5209,5.5209,5.5209,5.5209,5.5209,5.5209,5.5209,5.5209,5.5209,5.5209,5.5179,5.5209,5.5209,5.5179,5.5089,5.491,5.4551,5.4401,5.4162,5.4162,5.4162,5.4102,5.4102,5.4102,5.3832,5.3533,5.3443,5.3264,5.2636,5.2276,5.1947,5.1738,5.1498,5.1259,5.1229,5.1229,5.1229,5.1229,5.1229,5.1229,5.1199,5.105,5.09,5.084,5.0511,5.0391,6.0419,6.0721,6.2438,6.3137,6.3137,6.3137,6.3137,6.3137,6.3137,6.3137,6.3137,6.3137,6.3137,6.3137,6.3137,6.3137,6.3137,6.3137,6.3047,6.278,6.2181,6.1642,6.1074,6.0416,5.9877,5.9279,5.9219,5.9279,5.9189,5.9129,5.9129,5.9099,5.9099,5.9099,5.9099,5.9099,5.874,5.8231,5.8052,5.7573,5.7184,5.6885,5.6765,5.6645,5.6346,5.6346,5.6496,5.6316,5.6166,5.6188,5.6017,5.5777,5.5418,5.5239,5.5209,5.5209,5.5209,5.5209,5.5209,5.5209,5.5269,5.5209,5.5209,5.5209,5.5209,5.5209,5.5209,5.5209,5.5209,5.5209,5.5209,5.5209,5.5209,5.5209,5.5209,5.5209,5.5209,5.5209,5.5209,5.5209,5.5209,5.5209,5.5209,5.5179,5.5179,5.5089,5.5149,5.5059,5.488,5.476,5.464,5.461,5.4551,5.4461,5.4221,5.4192,5.3922,5.3294,5.2845,5.2606,5.2157,5.1798,5.1558,5.1349,5.1229,5.1229,5.1229,5.1229,5.1229,5.1229,5.1229,5.1139,5.1139,5.1079,5.087,6.0176,6.2233,6.2875,6.3137,6.3137,6.3137,6.3137,6.3137,6.3137,6.3137,6.3137,6.3137,6.3137,6.3137,6.3137,6.3137,6.3137,6.3137,6.3137,6.2989,6.245,6.2061,6.1583,6.1104,6.0625,6.0356,6.0086,5.9757,5.9787,5.9428,5.9159,5.9099,5.9099,5.9099,5.9099,5.9099,5.8949,5.874,5.8381,5.7992,5.7752,5.7393,5.7184,5.7184,5.6915,5.6944,5.7184,5.6944,5.6825,5.6735,5.6585,5.6166,5.5807,5.5598,5.5269,5.5239,5.5239,5.5448,5.5688,5.5807,5.5598,5.5418,5.5299,5.5329,5.5209,5.5209,5.5209,5.5239,5.5299,5.5299,5.5209,5.5209,5.5209,5.5209,5.5209,5.5209,5.5209,5.5209,5.5209,5.5209,5.5209,5.5209,5.5209,5.5209,5.5209,5.5209,5.5209,5.5209,5.5059,5.5059,5.4999,5.4999,5.4999,5.4999,5.491,5.473,5.4491,5.3982,5.3653,5.3473,5.2965,5.2306,5.1977,5.1798,5.1498,5.1229,5.1229,5.1229,5.1229,5.1229,5.1229,5.1229,5.1199,5.1199,5.1139,6.0508,6.3021,6.3137,6.3137,6.3137,6.3137,6.3137,6.3137,6.3137,6.3137,6.3137,6.3137,6.3137,6.3137,6.3137,6.3137,6.3137,6.3137,6.3137,6.3019,6.269,6.2331,6.2002,6.1672,6.1253,6.1074,6.0775,6.0446,6.0416,5.9757,5.9368,5.9159,5.9129,5.9099,5.9099,5.9099,5.9099,5.8949,5.868,5.853,5.8351,5.8112,5.7872,5.7782,5.7663,5.7573,5.7663,5.7603,5.7453,5.7304,5.7094,5.6705,5.6436,5.6137,5.5837,5.5867,5.5897,5.6107,5.6376,5.6496,5.6286,5.6017,5.5867,5.5837,5.5837,5.5987,5.5987,5.5897,5.5628,5.5538,5.5508,5.5478,5.5269,5.5269,5.5299,5.5299,5.5299,5.5299,5.5329,5.5299,5.5269,5.5239,5.5209,5.5209,5.5209,5.5209,5.5209,5.5209,5.5209,5.5209,5.5209,5.5209,5.5209,5.5149,5.5119,5.5089,5.485,5.4581,5.4341,5.4072,5.3653,5.2995,5.2636,5.2247,5.1917,5.1618,5.1319,5.1229,5.1229,5.1229,5.1229,5.1229,5.1229,5.1229,5.1229,6.1525,6.3021,6.3137,6.3137,6.3137,6.3137,6.3137,6.3137,6.3137,6.3137,6.3137,6.3137,6.3137,6.3137,6.3137,6.3137,6.3137,6.3137,6.3137,6.3137,6.2929,6.26,6.2361,6.2151,6.1912,6.1493,6.1164,6.1134,6.1044,6.0446,5.9847,5.9368,5.9308,5.9219,5.9189,5.9099,5.9099,5.9039,5.9009,5.889,5.88,5.889,5.874,5.862,5.8411,5.8441,5.8471,5.8411,5.8231,5.8112,5.8022,5.7633,5.7334,5.7094,5.7094,5.7034,5.6944,5.6974,5.7124,5.7124,5.7244,5.7154,5.7154,5.7154,5.6915,5.6735,5.6675,5.6526,5.6286,5.6218,5.6128,5.5718,5.5388,5.5418,5.5448,5.5478,5.5478,5.5508,5.5508,5.5478,5.5418,5.5359,5.5239,5.5209,5.5329,5.5209,5.5209,5.5209,5.5209,5.5209,5.5209,5.5209,5.5209,5.5209,5.5209,5.5209,5.5119,5.485,5.464,5.4371,5.4012,5.3713,5.3294,5.2875,5.2396,5.2007,5.1708,5.1409,5.1229,5.1229,5.1229,5.1229,5.1229,5.1229,5.1229,6.1525,6.3079,6.3137,6.3137,6.3137,6.3137,6.3137,6.3137,6.3137,6.3137,6.3137,6.3137,6.3137,6.3137,6.3137,6.3137,6.3137,6.3137,6.3137,6.3137,6.3137,6.2929,6.2839,6.272,6.263,6.2391,6.2091,6.1792,6.1672,6.1134,6.0475,5.9907,5.9727,5.9518,5.9279,5.9129,5.9099,5.9099,5.9099,5.9099,5.9099,5.9099,5.9099,5.8979,5.889,5.8949,5.8919,5.8919,5.877,5.877,5.8351,5.7932,5.7902,5.7393,5.7094,5.7094,5.7124,5.7244,5.7693,5.7812,5.7962,5.8291,5.8411,5.7842,5.7483,5.7214,5.7244,5.7154,5.6825,5.6615,5.6466,5.6166,5.5927,5.5927,5.6017,5.6166,5.6196,5.6196,5.6196,5.6137,5.6047,5.5748,5.5568,5.5448,5.5538,5.5329,5.5209,5.5239,5.5209,5.5209,5.5209,5.5209,5.5209,5.5209,5.5209,5.5209,5.5209,5.5119,5.491,5.476,5.464,5.4341,5.3952,5.3443,5.2875,5.2426,5.2037,5.1828,5.1648,5.1289,5.1259,5.1229,5.1229,5.1229,5.1229,6.1525,6.3021,6.3137,6.3137,6.3137,6.3137,6.3137,6.3137,6.3137,6.3137,6.3137,6.3137,6.3137,6.3137,6.3137,6.3137,6.3137,6.3137,6.3137,6.3137,6.3137,6.3107,6.3137,6.3137,6.3077,6.2899,6.275,6.248,6.2301,6.1822,6.1164,6.0535,6.0296,5.9877,5.9548,5.9308,5.9099,5.9099,5.9099,5.9099,5.9099,5.9099,5.9099,5.9099,5.9099,5.9099,5.9099,5.9099,5.9099,5.9099,5.859,5.853,5.8501,5.8112,5.7932,5.7992,5.8022,5.8171,5.8441,5.8501,5.874,5.8979,5.9099,5.868,5.8321,5.8082,5.8052,5.7962,5.7423,5.6974,5.6855,5.6735,5.6615,5.6526,5.6795,5.7034,5.7064,5.7034,5.7004,5.6974,5.6735,5.6406,5.6166,5.5987,5.5837,5.5748,5.5598,5.5478,5.5329,5.5209,5.5209,5.5209,5.5209,5.5209,5.5209,5.5209,5.5209,5.5209,5.5119,5.5029,5.5089,5.491,5.4461,5.3892,5.3264,5.2905,5.2606,5.2366,5.2157,5.1828,5.1528,5.1528,5.1439,5.1229,5.1229,6.1644,6.3137,6.3137,6.3137,6.3137,6.3137,6.3137,6.3137,6.3137,6.3137,6.3137,6.3137,6.3137,6.3137,6.3137,6.3137,6.3137,6.3137,6.3137,6.3137,6.3137,6.3137,6.3137,6.3137,6.3137,6.3137,6.3077,6.2869,6.2839,6.2421,6.1792,6.1134,6.0565,6.0086,5.9668,5.9308,5.9129,5.9099,5.9099,5.9099,5.9099,5.9099,5.9099,5.9099,5.9099,5.9099,5.9099,5.9099,5.9099,5.9099,5.9069,5.9039,5.9009,5.8949,5.8949,5.8919,5.88,5.883,5.889,5.8919,5.8979,5.9069,5.9099,5.9009,5.877,5.868,5.865,5.8501,5.8022,5.7663,5.7513,5.7363,5.7244,5.7304,5.7513,5.7723,5.7812,5.7752,5.7663,5.7573,5.7363,5.7004,5.6705,5.6526,5.6436,5.6286,5.5987,5.5777,5.5568,5.5359,5.5239,5.5239,5.5209,5.5209,5.5209,5.5209,5.5209,5.5209,5.5209,5.5179,5.5149,5.5059,5.497,5.4401,5.3862,5.3533,5.3234,5.2965,5.2695,5.2426,5.2187,5.1977,5.1768,5.1558,5.1289,6.2701,6.3079,6.3137,6.3137,6.3137,6.3137,6.3137,6.3137,6.3137,6.3137,6.3137,6.3137,6.3137,6.3137,6.3137,6.3137,6.3137,6.3137,6.3137,6.3137,6.3137,6.3137,6.3137,6.3137,6.3137,6.3137,6.3137,6.3137,6.3077,6.275,6.2241,6.1283,6.0805,6.0446,5.9668,5.9279,5.9219,5.9129,5.9219,5.9159,5.9099,5.9099,5.9099,5.9099,5.9099,5.9099,5.9099,5.9099,5.9099,5.9099,5.9099,5.9099,5.9099,5.9099,5.9099,5.9099,5.9099,5.9099,5.9099,5.9099,5.9099,5.9099,5.9099,5.9099,5.9099,5.9099,5.9039,5.889,5.868,5.8381,5.8141,5.7992,5.7902,5.8082,5.8231,5.8381,5.853,5.8411,5.8291,5.8112,5.7932,5.7663,5.7334,5.7154,5.7034,5.6735,5.6316,5.6047,5.5867,5.5658,5.5418,5.5359,5.5209,5.5209,5.5209,5.5209,5.5209,5.5209,5.5209,5.5209,5.5209,5.5149,5.5059,5.488,5.4521,5.4162,5.3803,5.3414,5.3144,5.2995,5.2905,5.2725,5.2486,5.2276,5.1768,6.3137,6.3137,6.3137,6.3137,6.3137,6.3137,6.3137,6.3137,6.3137,6.3137,6.3137,6.3137,6.3137,6.3137,6.3137,6.3137,6.3137,6.3137,6.3137,6.3137,6.3137,6.3137,6.3137,6.3137,6.3137,6.3137,6.3137,6.3137,6.3137,6.3019,6.254,6.1882,6.1493,6.0745,5.9907,5.9727,5.9398,5.9129,5.9368,5.9398,5.9219,5.9129,5.9129,5.9099,5.9099,5.9099,5.9099,5.9099,5.9099,5.9099,5.9099,5.9099,5.9099,5.9099,5.9099,5.9099,5.9099,5.9099,5.9099,5.9099,5.9099,5.9099,5.9099,5.9099,5.9099,5.9099,5.9099,5.8979,5.8949,5.868,5.868,5.856,5.853,5.865,5.871,5.88,5.886,5.883,5.874,5.868,5.856,5.8501,5.8261,5.8261,5.8052,5.7603,5.7124,5.6735,5.6466,5.6077,5.5777,5.5568,5.5538,5.5299,5.5209,5.5209,5.5209,5.5209,5.5209,5.5209,5.5209,5.5209,5.5149,5.4999,5.491,5.482,5.4431,5.4042,5.3832,5.3713,5.3623,5.3503,5.3264,5.2995,5.2576,6.3137,6.3137,6.3137,6.3137,6.3137,6.3137,6.3137,6.3137,6.3137,6.3137,6.3137,6.3137,6.3137,6.3137,6.3137,6.3137,6.3137,6.3137,6.3137,6.3137,6.3137,6.3137,6.3137,6.3137,6.3137,6.3137,6.3137,6.3137,6.3137,6.3049,6.2959,6.272,6.2061,6.1194,6.0954,6.0565,6.0027,5.9787,5.9787,5.9787,5.9518,5.9159,5.9129,5.9099,5.9099,5.9099,5.9099,5.9099,5.9099,5.9099,5.9099,5.9099,5.9099,5.9099,5.9099,5.9099,5.9099,5.9099,5.9099,5.9099,5.9099,5.9099,5.9099,5.9099,5.9099,5.9099,5.9099,5.9099,5.9069,5.9069,5.9039,5.9039,5.9039,5.9039,5.9069,5.9099,5.9099,5.9099,5.9099,5.9069,5.9069,5.9039,5.9039,5.9039,5.88,5.8381,5.8022,5.7723,5.7304,5.6765,5.6346,5.6196,5.6107,5.5807,5.5329,5.5239,5.5239,5.5209,5.5209,5.5209,5.5209,5.5209,5.5209,5.5179,5.5089,5.5029,5.5059,5.482,5.464,5.4341,5.4341,5.4221,5.3952,5.3713,5.3443,6.3137,6.3137,6.3137,6.3137,6.3137,6.3137,6.3137,6.3137,6.3137,6.3137,6.3137,6.3137,6.3137,6.3137,6.3137,6.3137,6.3137,6.3137,6.3137,6.3137,6.3137,6.3137,6.3137,6.3137,6.3137,6.3137,6.3137,6.3137,6.3137,6.3049,6.281,6.2361,6.2271,6.1642,6.1134,6.0864,6.0805,6.0535,6.0326,6.0296,6.0326,5.9877,5.9189,5.9099,5.9099,5.9099,5.9099,5.9099,5.9099,5.9099,5.9099,5.9099,5.9099,5.9099,5.9099,5.9099,5.9099,5.9099,5.9099,5.9099,5.9099,5.9099,5.9099,5.9099,5.9099,5.9099,5.9099,5.9099,5.9099,5.9099,5.9069,5.9069,5.9069,5.9069,5.9099,5.9099,5.9099,5.9099,5.9099,5.9099,5.9099,5.9069,5.9069,5.9069,5.9069,5.868,5.8381,5.8112,5.7962,5.7483,5.6944,5.6825,5.6705,5.6017,5.5448,5.5359,5.5329,5.5269,5.5209,5.5209,5.5209,5.5209,5.5209,5.5209,5.5209,5.5149,5.5179,5.5209,5.5119,5.485,5.497,5.491,5.464,5.4371,5.4102]}]]